Time,TemperatureF,DewpointF,PressureIn,WindDirection,WindDirectionDegrees,WindSpeedMPH,WindSpeedGustMPH,Humidity,HourlyPrecipIn,Conditions,Clouds,dailyrainin,SolarRadiationWatts/m^2,SoftwareType,DateUTC
2013-03-24 00:00:00,61.2,4.8,29.47,WNW,299,7.6,8.9,10,-99.99,,,0.00,0,rob ver 1A,2013-03-24 07:00:00,
2013-03-24 00:01:00,60.9,7.1,29.38,ENE,59,4.2,5.3,11,-99.99,,,0.00,0,rob ver 1B,2013-03-24 07:01:00,
2013-03-24 00:02:00,60.8,7.1,29.38,ENE,58,4.6,5.4,11,-99.99,,,0.00,0,rob ver 1B,2013-03-24 07:02:00,
2013-03-24 00:03:00,60.7,7.1,29.38,NE,54,4.5,5.4,11,-99.99,,,0.00,0,rob ver 1B,2013-03-24 07:03:00,
2013-03-24 00:04:00,60.6,7.1,29.38,NE,51,4.9,6.0,11,-99.99,,,0.00,0,rob ver 1B,2013-03-24 07:04:00,
2013-03-24 00:05:00,61.1,4.7,29.47,WNW,301,7.3,8.7,10,-99.99,,,0.00,0,rob ver 1A,2013-03-24 07:05:00,
2013-03-24 00:06:00,60.7,7.1,29.38,NE,48,4.7,6.1,11,-99.99,,,0.00,0,rob ver 1B,2013-03-24 07:06:00,
2013-03-24 00:07:00,60.7,7.0,29.38,NE,45,5.5,6.5,11,-99.99,,,0.00,0,rob ver 1B,2013-03-24 07:07:00,
2013-03-24 00:08:00,60.8,7.0,29.38,NE,45,5.4,6.4,11,-99.99,,,0.00,0,rob ver 1B,2013-03-24 07:08:00,
2013-03-24 00:09:00,60.8,7.1,29.41,NE,44,5.4,6.4,11,-99.99,,,0.00,0,rob ver 1B,2013-03-24 07:09:00,
2013-03-24 00:10:00,61.2,4.7,29.47,NW,304,7.3,8.6,10,-99.99,,,0.00,0,rob ver 1A,2013-03-24 07:10:00,
2013-03-24 00:11:00,60.8,7.1,29.38,NE,37,7.3,8.3,11,-99.99,,,0.00,0,rob ver 1B,2013-03-24 07:11:00,
2013-03-24 00:12:00,61.0,7.1,29.38,NNE,32,8.1,9.0,11,-99.99,,,0.00,0,rob ver 1B,2013-03-24 07:12:00,
2013-03-24 00:13:00,61.2,7.2,29.38,NNE,29,6.8,8.2,11,-99.99,,,0.00,0,rob ver 1B,2013-03-24 07:13:00,
2013-03-24 00:14:00,61.3,7.2,29.38,NNE,28,6.2,7.2,11,-99.99,,,0.00,0,rob ver 1B,2013-03-24 07:14:00,
2013-03-24 00:15:00,61.1,4.6,29.47,NW,305,7.4,9.2,10,-99.99,,,0.00,0,rob ver 1A,2013-03-24 07:15:00,
2013-03-24 00:16:00,61.6,7.2,29.38,NNE,18,6.1,6.8,11,-99.99,,,0.00,0,rob ver 1B,2013-03-24 07:16:00,
2013-03-24 00:17:00,61.9,7.3,29.38,NNE,19,5.7,6.4,11,-99.99,,,0.00,0,rob ver 1B,2013-03-24 07:17:00,
2013-03-24 00:18:00,62.0,7.3,29.38,NNE,21,5.9,6.4,11,-99.99,,,0.00,0,rob ver 1B,2013-03-24 07:18:00,
2013-03-24 00:19:00,62.0,7.3,29.38,NNE,20,5.9,6.4,11,-99.99,,,0.00,0,rob ver 1B,2013-03-24 07:19:00,
2013-03-24 00:20:00,61.2,4.6,29.44,NW,307,8.0,9.9,10,-99.99,,,0.00,0,rob ver 1A,2013-03-24 07:20:00,
2013-03-24 00:21:00,62.2,7.3,29.38,NNE,17,5.5,6.0,11,-99.99,,,0.00,0,rob ver 1B,2013-03-24 07:21:00,
2013-03-24 00:22:00,62.3,7.3,29.38,NNE,14,4.9,5.5,11,-99.99,,,0.00,0,rob ver 1B,2013-03-24 07:22:00,
2013-03-24 00:23:00,62.3,7.3,29.38,North,11,4.4,5.1,11,-99.99,,,0.00,0,rob ver 1B,2013-03-24 07:23:00,
2013-03-24 00:24:00,62.3,7.3,29.38,NNE,12,4.6,5.1,11,-99.99,,,0.00,0,rob ver 1B,2013-03-24 07:24:00,
2013-03-24 00:25:00,61.3,4.6,29.44,NW,305,8.7,10.2,10,-99.99,,,0.00,0,rob ver 1A,2013-03-24 07:25:00,
2013-03-24 00:26:00,62.4,7.3,29.38,North,1,3.8,4.2,11,-99.99,,,0.00,0,rob ver 1B,2013-03-24 07:26:00,
2013-03-24 00:27:00,62.4,7.3,29.38,North,352,3.5,4.0,11,-99.99,,,0.00,0,rob ver 1B,2013-03-24 07:27:00,
2013-03-24 00:28:00,62.4,7.5,29.38,NNW,345,3.3,3.7,11,-99.99,,,0.00,0,rob ver 1B,2013-03-24 07:28:00,
2013-03-24 00:29:00,62.3,7.4,29.38,NNW,342,3.2,3.7,11,-99.99,,,0.00,0,rob ver 1B,2013-03-24 07:29:00,
2013-03-24 00:30:00,61.4,4.5,29.44,NW,309,8.7,10.4,10,-99.99,,,0.00,0,rob ver 1A,2013-03-24 07:30:00,
2013-03-24 00:31:00,62.0,7.3,29.38,WNW,299,2.6,2.8,11,-99.99,,,0.00,0,rob ver 1B,2013-03-24 07:31:00,
2013-03-24 00:32:00,61.7,7.2,29.38,NW,321,2.8,3.1,11,-99.99,,,0.00,0,rob ver 1B,2013-03-24 07:32:00,
2013-03-24 00:33:00,61.5,7.3,29.38,NW,312,2.4,2.8,11,-99.99,,,0.00,0,rob ver 1B,2013-03-24 07:33:00,
2013-03-24 00:34:00,61.4,7.3,29.38,NW,312,2.7,3.3,11,-99.99,,,0.00,0,rob ver 1B,2013-03-24 07:34:00,
2013-03-24 00:35:00,61.5,4.5,29.44,NW,315,8.1,9.6,10,-99.99,,,0.00,0,rob ver 1A,2013-03-24 07:35:00,
2013-03-24 00:36:00,61.2,7.3,29.38,NW,312,2.8,3.2,11,-99.99,,,0.00,0,rob ver 1B,2013-03-24 07:36:00,
2013-03-24 00:37:00,61.1,7.3,29.38,NW,317,2.6,3.1,11,-99.99,,,0.00,0,rob ver 1B,2013-03-24 07:37:00,
2013-03-24 00:38:00,61.0,7.3,29.38,NW,319,2.8,3.2,11,-99.99,,,0.00,0,rob ver 1B,2013-03-24 07:38:00,
2013-03-24 00:39:00,60.8,7.4,29.38,NW,320,2.9,3.2,11,-99.99,,,0.00,0,rob ver 1B,2013-03-24 07:39:00,
2013-03-24 00:40:00,61.6,4.5,29.47,NW,314,8.1,9.1,10,-99.99,,,0.00,0,rob ver 1A,2013-03-24 07:40:00,
2013-03-24 00:41:00,60.7,7.3,29.38,NNW,335,2.4,2.9,11,-99.99,,,0.00,0,rob ver 1B,2013-03-24 07:41:00,
2013-03-24 00:42:00,60.6,7.3,29.38,NNW,334,2.0,2.6,11,-99.99,,,0.00,0,rob ver 1B,2013-03-24 07:42:00,
2013-03-24 00:43:00,60.5,7.2,29.38,North,358,2.1,2.3,11,-99.99,,,0.00,0,rob ver 1B,2013-03-24 07:43:00,
2013-03-24 00:44:00,60.4,7.2,29.38,NNE,17,2.3,2.8,11,-99.99,,,0.00,0,rob ver 1B,2013-03-24 07:44:00,
2013-03-24 00:45:00,61.4,4.4,29.44,NW,311,8.0,9.6,10,-99.99,,,0.00,0,rob ver 1A,2013-03-24 07:45:00,
2013-03-24 00:46:00,60.2,7.2,29.38,ENE,65,3.5,4.1,11,-99.99,,,0.00,0,rob ver 1B,2013-03-24 07:46:00,
2013-03-24 00:47:00,60.1,7.1,29.38,ENE,64,3.4,4.1,11,-99.99,,,0.00,0,rob ver 1B,2013-03-24 07:47:00,
2013-03-24 00:48:00,60.2,7.1,29.38,ESE,115,1.5,3.0,11,-99.99,,,0.00,0,rob ver 1B,2013-03-24 07:48:00,
2013-03-24 00:49:00,60.2,7.0,29.38,SE,131,1.2,1.9,11,-99.99,,,0.00,0,rob ver 1B,2013-03-24 07:49:00,
2013-03-24 00:50:00,60.2,7.0,29.38,ENE,65,1.1,1.8,11,-99.99,,,0.00,0,rob ver 1B,2013-03-24 07:50:00,
2013-03-24 00:51:00,61.8,4.4,29.44,NW,307,9.1,11.4,9,-99.99,,,0.00,0,rob ver 1A,2013-03-24 07:51:00,
2013-03-24 00:52:00,60.4,6.9,29.38,NNE,23,2.6,4.0,11,-99.99,,,0.00,0,rob ver 1B,2013-03-24 07:52:00,
2013-03-24 00:53:00,60.8,7.0,29.38,North,10,1.6,2.2,11,-99.99,,,0.00,0,rob ver 1B,2013-03-24 07:53:00,
2013-03-24 00:54:00,61.1,7.1,29.38,NNW,333,1.2,1.7,11,-99.99,,,0.00,0,rob ver 1B,2013-03-24 07:54:00,
2013-03-24 00:55:00,61.3,7.1,29.38,NNW,340,0.6,1.1,11,-99.99,,,0.00,0,rob ver 1B,2013-03-24 07:55:00,
2013-03-24 00:56:00,62.4,4.4,29.44,NW,308,10.2,11.3,9,-99.99,,,0.00,0,rob ver 1A,2013-03-24 07:56:00,
2013-03-24 00:57:00,61.4,7.1,29.38,NW,318,1.0,1.4,11,-99.99,,,0.00,0,rob ver 1B,2013-03-24 07:57:00,
2013-03-24 00:58:00,61.5,7.1,29.38,NNW,327,1.3,1.7,11,-99.99,,,0.00,0,rob ver 1B,2013-03-24 07:58:00,
2013-03-24 00:59:00,61.5,7.1,29.38,NNW,337,1.9,2.5,11,-99.99,,,0.00,0,rob ver 1B,2013-03-24 07:59:00,
2013-03-24 01:00:00,61.6,7.2,29.38,NNW,338,2.4,3.0,11,-99.99,,,0.00,0,rob ver 1B,2013-03-24 08:00:00,
2013-03-24 01:01:00,62.5,4.5,29.44,NW,306,10.6,12.7,9,-99.99,,,0.00,0,rob ver 1A,2013-03-24 08:01:00,
2013-03-24 01:02:00,61.9,7.2,29.38,NNW,336,2.3,2.7,11,-99.99,,,0.00,0,rob ver 1B,2013-03-24 08:02:00,
2013-03-24 01:03:00,62.1,7.3,29.38,NW,320,2.3,2.7,11,-99.99,,,0.00,0,rob ver 1B,2013-03-24 08:03:00,
2013-03-24 01:04:00,62.1,7.4,29.38,NW,311,2.4,2.7,11,-99.99,,,0.00,0,rob ver 1B,2013-03-24 08:04:00,
2013-03-24 01:05:00,62.1,7.4,29.38,NW,306,2.1,2.4,11,-99.99,,,0.00,0,rob ver 1B,2013-03-24 08:05:00,
2013-03-24 01:06:00,62.2,4.4,29.47,NW,306,8.0,9.2,9,-99.99,,,0.00,0,rob ver 1A,2013-03-24 08:06:00,
2013-03-24 01:07:00,62.0,7.4,29.38,WNW,290,2.0,2.2,11,-99.99,,,0.00,0,rob ver 1B,2013-03-24 08:07:00,
2013-03-24 01:08:00,61.8,7.3,29.38,NW,311,1.9,2.1,11,-99.99,,,0.00,0,rob ver 1B,2013-03-24 08:08:00,
2013-03-24 01:09:00,61.7,7.3,29.38,NW,311,1.7,1.9,11,-99.99,,,0.00,0,rob ver 1B,2013-03-24 08:09:00,
2013-03-24 01:10:00,61.5,7.3,29.38,NW,309,1.3,1.5,11,-99.99,,,0.00,0,rob ver 1B,2013-03-24 08:10:00,
2013-03-24 01:11:00,61.8,4.4,29.47,NW,306,8.0,9.6,9,-99.99,,,0.00,0,rob ver 1A,2013-03-24 08:11:00,
2013-03-24 01:12:00,61.1,7.2,29.38,WNW,294,1.0,1.1,11,-99.99,,,0.00,0,rob ver 1B,2013-03-24 08:12:00,
2013-03-24 01:13:00,60.9,7.1,29.38,WNW,292,1.0,1.2,11,-99.99,,,0.00,0,rob ver 1B,2013-03-24 08:13:00,
2013-03-24 01:14:00,60.8,7.1,29.38,WNW,298,0.9,1.0,11,-99.99,,,0.00,0,rob ver 1B,2013-03-24 08:14:00,
2013-03-24 01:15:00,60.7,7.2,29.41,WNW,302,0.7,0.8,11,-99.99,,,0.00,0,rob ver 1B,2013-03-24 08:15:00,
2013-03-24 01:16:00,61.3,4.3,29.44,WNW,300,7.6,8.3,10,-99.99,,,0.00,0,rob ver 1A,2013-03-24 08:16:00,
2013-03-24 01:17:00,60.6,7.1,29.38,WNW,299,0.8,0.9,11,-99.99,,,0.00,0,rob ver 1B,2013-03-24 08:17:00,
2013-03-24 01:18:00,60.6,7.1,29.38,West,274,1.2,1.4,11,-99.99,,,0.00,0,rob ver 1B,2013-03-24 08:18:00,
2013-03-24 01:19:00,60.5,7.1,29.38,West,273,1.2,1.4,11,-99.99,,,0.00,0,rob ver 1B,2013-03-24 08:19:00,
2013-03-24 01:20:00,60.5,7.1,29.38,West,272,1.5,2.0,11,-99.99,,,0.00,0,rob ver 1B,2013-03-24 08:20:00,
2013-03-24 01:21:00,60.9,4.3,29.44,WNW,298,7.3,8.2,10,-99.99,,,0.00,0,rob ver 1A,2013-03-24 08:21:00,
2013-03-24 01:22:00,60.3,7.0,29.38,NW,319,1.5,2.3,11,-99.99,,,0.00,0,rob ver 1B,2013-03-24 08:22:00,
2013-03-24 01:23:00,60.4,7.0,29.38,NNW,340,1.9,2.4,11,-99.99,,,0.00,0,rob ver 1B,2013-03-24 08:23:00,
2013-03-24 01:24:00,60.6,6.9,29.38,NNW,346,2.3,2.9,11,-99.99,,,0.00,0,rob ver 1B,2013-03-24 08:24:00,
2013-03-24 01:25:00,60.9,6.9,29.38,NNW,345,2.1,2.5,11,-99.99,,,0.00,0,rob ver 1B,2013-03-24 08:25:00,
2013-03-24 01:26:00,60.5,4.2,29.44,WNW,298,7.9,9.0,10,-99.99,,,0.00,0,rob ver 1A,2013-03-24 08:26:00,
2013-03-24 01:27:00,61.4,6.9,29.38,NNW,335,2.4,3.0,11,-99.99,,,0.00,0,rob ver 1B,2013-03-24 08:27:00,
2013-03-24 01:28:00,61.6,6.9,29.38,NNW,332,2.7,3.2,11,-99.99,,,0.00,0,rob ver 1B,2013-03-24 08:28:00,
2013-03-24 01:29:00,61.8,6.9,29.38,NNW,329,2.8,3.2,11,-99.99,,,0.00,0,rob ver 1B,2013-03-24 08:29:00,
2013-03-24 01:30:00,61.9,6.9,29.38,NNW,328,2.7,3.0,11,-99.99,,,0.00,0,rob ver 1B,2013-03-24 08:30:00,
2013-03-24 01:31:00,60.5,4.3,29.44,WNW,300,8.3,9.7,10,-99.99,,,0.00,0,rob ver 1A,2013-03-24 08:31:00,
2013-03-24 01:32:00,61.9,7.0,29.38,NW,312,2.1,2.4,11,-99.99,,,0.00,0,rob ver 1B,2013-03-24 08:32:00,
2013-03-24 01:33:00,61.8,6.9,29.38,NW,311,2.0,2.3,11,-99.99,,,0.00,0,rob ver 1B,2013-03-24 08:33:00,
2013-03-24 01:34:00,61.7,6.9,29.38,NW,314,2.4,2.7,11,-99.99,,,0.00,0,rob ver 1B,2013-03-24 08:34:00,
2013-03-24 01:35:00,61.6,7.0,29.38,NW,309,2.7,3.0,11,-99.99,,,0.00,0,rob ver 1B,2013-03-24 08:35:00,
2013-03-24 01:36:00,61.5,7.0,29.38,NW,309,3.2,3.4,11,-99.99,,,0.00,0,rob ver 1B,2013-03-24 08:36:00,
2013-03-24 01:37:00,60.1,4.2,29.44,WNW,293,7.3,8.3,10,-99.99,,,0.00,0,rob ver 1A,2013-03-24 08:37:00,
2013-03-24 01:38:00,61.1,6.8,29.38,NW,305,2.6,2.8,11,-99.99,,,0.00,0,rob ver 1B,2013-03-24 08:38:00,
2013-03-24 01:39:00,61.1,6.8,29.38,NW,311,2.5,2.7,11,-99.99,,,0.00,0,rob ver 1B,2013-03-24 08:39:00,
2013-03-24 01:40:00,61.1,6.8,29.38,NW,306,2.7,2.8,11,-99.99,,,0.00,0,rob ver 1B,2013-03-24 08:40:00,
2013-03-24 01:41:00,61.0,6.8,29.38,NW,309,2.7,3.0,11,-99.99,,,0.00,0,rob ver 1B,2013-03-24 08:41:00,
2013-03-24 01:42:00,59.6,4.2,29.44,WNW,293,7.9,9.0,10,-99.99,,,0.00,0,rob ver 1A,2013-03-24 08:42:00,
2013-03-24 01:43:00,60.8,6.8,29.38,NW,313,3.1,3.3,11,-99.99,,,0.00,0,rob ver 1B,2013-03-24 08:43:00,
2013-03-24 01:44:00,60.7,6.7,29.38,NW,315,3.2,3.4,11,-99.99,,,0.00,0,rob ver 1B,2013-03-24 08:44:00,
2013-03-24 01:45:00,60.6,6.7,29.38,NW,319,3.0,3.2,11,-99.99,,,0.00,0,rob ver 1B,2013-03-24 08:45:00,
2013-03-24 01:46:00,60.6,6.8,29.38,NW,322,2.9,3.3,11,-99.99,,,0.00,0,rob ver 1B,2013-03-24 08:46:00,
2013-03-24 01:47:00,59.4,4.2,29.44,WNW,289,7.2,8.3,10,-99.99,,,0.00,0,rob ver 1A,2013-03-24 08:47:00,
2013-03-24 01:48:00,60.5,6.9,29.38,NW,324,3.0,3.2,11,-99.99,,,0.00,0,rob ver 1B,2013-03-24 08:48:00,
2013-03-24 01:49:00,60.6,6.9,29.38,NW,325,3.3,3.5,11,-99.99,,,0.00,0,rob ver 1B,2013-03-24 08:49:00,
2013-03-24 01:50:00,60.6,6.9,29.38,NW,324,3.3,3.6,11,-99.99,,,0.00,0,rob ver 1B,2013-03-24 08:50:00,
2013-03-24 01:51:00,60.6,6.9,29.38,NW,324,3.3,3.7,11,-99.99,,,0.00,0,rob ver 1B,2013-03-24 08:51:00,
2013-03-24 01:52:00,58.9,4.1,29.44,WNW,297,7.2,8.3,10,-99.99,,,0.00,0,rob ver 1A,2013-03-24 08:52:00,
2013-03-24 01:53:00,60.5,7.0,29.38,NNW,328,3.5,3.8,11,-99.99,,,0.00,0,rob ver 1B,2013-03-24 08:53:00,
2013-03-24 01:54:00,60.3,7.0,29.38,NNW,327,3.7,4.3,11,-99.99,,,0.00,0,rob ver 1B,2013-03-24 08:54:00,
2013-03-24 01:55:00,60.0,6.9,29.38,NNW,330,4.1,4.6,11,-99.99,,,0.00,0,rob ver 1B,2013-03-24 08:55:00,
2013-03-24 01:56:00,59.9,6.7,29.38,NNW,331,4.4,4.8,11,-99.99,,,0.00,0,rob ver 1B,2013-03-24 08:56:00,
2013-03-24 01:57:00,59.0,4.1,29.44,NW,306,7.0,7.9,10,-99.99,,,0.00,0,rob ver 1A,2013-03-24 08:57:00,
2013-03-24 01:58:00,60.1,6.8,29.38,NW,326,4.9,5.7,11,-99.99,,,0.00,0,rob ver 1B,2013-03-24 08:58:00,
2013-03-24 01:59:00,60.5,6.8,29.38,NNW,329,4.9,5.3,11,-99.99,,,0.00,0,rob ver 1B,2013-03-24 08:59:00,
2013-03-24 02:00:00,60.9,6.9,29.38,NNW,329,4.6,5.4,11,-99.99,,,0.00,0,rob ver 1B,2013-03-24 09:00:00,
2013-03-24 02:01:00,61.1,7.1,29.38,NW,326,4.3,5.1,11,-99.99,,,0.00,0,rob ver 1B,2013-03-24 09:01:00,
2013-03-24 02:02:00,59.3,4.0,29.44,WNW,301,7.1,8.3,10,-99.99,,,0.00,0,rob ver 1A,2013-03-24 09:02:00,
2013-03-24 02:03:00,61.1,7.0,29.38,NW,324,4.1,4.8,11,-99.99,,,0.00,0,rob ver 1B,2013-03-24 09:03:00,
2013-03-24 02:04:00,61.1,6.9,29.38,NW,324,4.3,5.2,11,-99.99,,,0.00,0,rob ver 1B,2013-03-24 09:04:00,
2013-03-24 02:05:00,61.2,7.0,29.38,NW,325,4.4,5.1,11,-99.99,,,0.00,0,rob ver 1B,2013-03-24 09:05:00,
2013-03-24 02:06:00,61.3,7.1,29.38,NW,325,4.3,4.6,11,-99.99,,,0.00,0,rob ver 1B,2013-03-24 09:06:00,
2013-03-24 02:07:00,59.2,4.1,29.44,WNW,290,7.6,9.2,10,-99.99,,,0.00,0,rob ver 1A,2013-03-24 09:07:00,
2013-03-24 02:08:00,61.5,7.1,29.38,NW,326,4.4,4.9,11,-99.99,,,0.00,0,rob ver 1B,2013-03-24 09:08:00,
2013-03-24 02:09:00,61.7,7.2,29.38,NW,326,4.3,5.2,11,-99.99,,,0.00,0,rob ver 1B,2013-03-24 09:09:00,
2013-03-24 02:10:00,61.8,7.2,29.38,NW,325,3.9,4.4,11,-99.99,,,0.00,0,rob ver 1B,2013-03-24 09:10:00,
2013-03-24 02:11:00,62.0,7.2,29.38,NNW,331,3.9,4.5,11,-99.99,,,0.00,0,rob ver 1B,2013-03-24 09:11:00,
2013-03-24 02:12:00,58.8,4.1,29.44,WNW,292,7.5,8.6,10,-99.99,,,0.00,0,rob ver 1A,2013-03-24 09:12:00,
2013-03-24 02:13:00,62.1,7.2,29.38,NNW,332,4.1,4.5,11,-99.99,,,0.00,0,rob ver 1B,2013-03-24 09:13:00,
2013-03-24 02:14:00,62.2,7.2,29.38,NNW,332,3.8,4.0,11,-99.99,,,0.00,0,rob ver 1B,2013-03-24 09:14:00,
2013-03-24 02:15:00,62.2,7.3,29.38,NNW,334,3.7,3.8,11,-99.99,,,0.00,0,rob ver 1B,2013-03-24 09:15:00,
2013-03-24 02:16:00,62.1,7.3,29.38,NNW,339,3.5,3.8,11,-99.99,,,0.00,0,rob ver 1B,2013-03-24 09:16:00,
2013-03-24 02:17:00,58.9,4.2,29.44,WNW,296,8.2,10.0,10,-99.99,,,0.00,0,rob ver 1A,2013-03-24 09:17:00,
2013-03-24 02:18:00,61.8,7.3,29.38,NNW,343,3.6,3.8,11,-99.99,,,0.00,0,rob ver 1B,2013-03-24 09:18:00,
2013-03-24 02:19:00,61.8,7.3,29.38,NNW,340,3.1,3.6,11,-99.99,,,0.00,0,rob ver 1B,2013-03-24 09:19:00,
2013-03-24 02:20:00,61.9,7.3,29.38,NNW,337,2.6,2.9,11,-99.99,,,0.00,0,rob ver 1B,2013-03-24 09:20:00,
2013-03-24 02:21:00,61.9,7.3,29.38,NNW,341,2.8,3.0,11,-99.99,,,0.00,0,rob ver 1B,2013-03-24 09:21:00,
2013-03-24 02:22:00,58.6,4.1,29.44,WNW,296,8.8,10.7,10,-99.99,,,0.00,0,rob ver 1A,2013-03-24 09:22:00,
2013-03-24 02:23:00,61.7,7.3,29.38,North,2,3.4,3.5,11,-99.99,,,0.00,0,rob ver 1B,2013-03-24 09:23:00,
2013-03-24 02:24:00,61.5,7.1,29.38,North,6,3.2,3.4,11,-99.99,,,0.00,0,rob ver 1B,2013-03-24 09:24:00,
2013-03-24 02:25:00,61.4,7.0,29.38,North,8,3.3,3.6,11,-99.99,,,0.00,0,rob ver 1B,2013-03-24 09:25:00,
2013-03-24 02:26:00,61.3,7.1,29.38,North,7,3.8,4.0,11,-99.99,,,0.00,0,rob ver 1B,2013-03-24 09:26:00,
2013-03-24 02:27:00,61.4,7.2,29.38,North,10,4.0,4.1,11,-99.99,,,0.00,0,rob ver 1B,2013-03-24 09:27:00,
2013-03-24 02:28:00,58.4,4.1,29.44,WNW,297,7.4,8.7,11,-99.99,,,0.00,0,rob ver 1A,2013-03-24 09:28:00,
2013-03-24 02:29:00,61.8,7.3,29.38,NNE,24,3.5,3.9,11,-99.99,,,0.00,0,rob ver 1B,2013-03-24 09:29:00,
2013-03-24 02:30:00,61.5,7.3,29.38,NNE,31,3.7,4.1,11,-99.99,,,0.00,0,rob ver 1B,2013-03-24 09:30:00,
2013-03-24 02:31:00,61.4,7.3,29.38,NNE,24,3.7,4.0,11,-99.99,,,0.00,0,rob ver 1B,2013-03-24 09:31:00,
2013-03-24 02:32:00,61.6,7.3,29.38,NNE,28,3.9,4.5,11,-99.99,,,0.00,0,rob ver 1B,2013-03-24 09:32:00,
2013-03-24 02:33:00,58.2,4.1,29.44,WNW,294,6.4,7.2,11,-99.99,,,0.00,0,rob ver 1A,2013-03-24 09:33:00,
2013-03-24 02:34:00,60.6,6.5,29.38,NNE,30,4.2,4.6,11,-99.99,,,0.00,0,rob ver 1B,2013-03-24 09:34:00,
2013-03-24 02:35:00,60.3,6.5,29.38,NNE,27,3.9,4.2,11,-99.99,,,0.00,0,rob ver 1B,2013-03-24 09:35:00,
2013-03-24 02:36:00,60.1,6.3,29.38,NNE,22,4.2,4.6,11,-99.99,,,0.00,0,rob ver 1B,2013-03-24 09:36:00,
2013-03-24 02:37:00,59.4,6.3,29.38,NNE,15,3.9,4.1,11,-99.99,,,0.00,0,rob ver 1B,2013-03-24 09:37:00,
2013-03-24 02:38:00,57.8,4.0,29.44,WNW,288,5.6,6.6,11,-99.99,,,0.00,0,rob ver 1A,2013-03-24 09:38:00,
2013-03-24 02:39:00,58.5,6.2,29.38,NE,38,4.1,4.6,12,-99.99,,,0.00,0,rob ver 1B,2013-03-24 09:39:00,
2013-03-24 02:40:00,58.2,6.1,29.38,NE,39,4.4,5.1,12,-99.99,,,0.00,0,rob ver 1B,2013-03-24 09:40:00,
2013-03-24 02:41:00,57.9,6.0,29.38,NNE,32,4.8,5.2,12,-99.99,,,0.00,0,rob ver 1B,2013-03-24 09:41:00,
2013-03-24 02:42:00,57.6,6.1,29.38,NE,35,5.3,6.2,12,-99.99,,,0.00,0,rob ver 1B,2013-03-24 09:42:00,
2013-03-24 02:43:00,57.5,4.0,29.44,WNW,297,4.6,5.3,11,-99.99,,,0.00,0,rob ver 1A,2013-03-24 09:43:00,
2013-03-24 02:44:00,57.2,6.1,29.38,NNE,32,4.8,5.1,12,-99.99,,,0.00,0,rob ver 1B,2013-03-24 09:44:00,
2013-03-24 02:45:00,57.1,6.2,29.38,NE,35,4.8,5.0,12,-99.99,,,0.00,0,rob ver 1B,2013-03-24 09:45:00,
2013-03-24 02:46:00,57.0,6.1,29.38,NNE,33,4.6,5.1,12,-99.99,,,0.00,0,rob ver 1B,2013-03-24 09:46:00,
2013-03-24 02:47:00,56.9,6.1,29.38,NNE,27,4.6,4.9,12,-99.99,,,0.00,0,rob ver 1B,2013-03-24 09:47:00,
2013-03-24 02:48:00,57.5,3.9,29.44,WNW,303,5.1,5.9,11,-99.99,,,0.00,0,rob ver 1A,2013-03-24 09:48:00,
2013-03-24 02:49:00,57.0,6.2,29.38,NNE,28,4.2,4.4,12,-99.99,,,0.00,0,rob ver 1B,2013-03-24 09:49:00,
2013-03-24 02:50:00,57.1,6.2,29.38,NNE,16,3.9,4.3,12,-99.99,,,0.00,0,rob ver 1B,2013-03-24 09:50:00,
2013-03-24 02:51:00,57.5,6.3,29.38,NNE,15,3.9,4.2,12,-99.99,,,0.00,0,rob ver 1B,2013-03-24 09:51:00,
2013-03-24 02:52:00,57.8,6.3,29.38,NNE,12,3.6,3.9,12,-99.99,,,0.00,0,rob ver 1B,2013-03-24 09:52:00,
2013-03-24 02:53:00,57.4,3.8,29.44,WNW,291,5.3,6.4,11,-99.99,,,0.00,0,rob ver 1A,2013-03-24 09:53:00,
2013-03-24 02:54:00,58.4,6.4,29.38,North,4,3.2,3.7,12,-99.99,,,0.00,0,rob ver 1B,2013-03-24 09:54:00,
2013-03-24 02:55:00,58.5,6.3,29.38,North,359,3.5,4.0,12,-99.99,,,0.00,0,rob ver 1B,2013-03-24 09:55:00,
2013-03-24 02:56:00,58.5,6.2,29.38,North,359,3.8,4.3,12,-99.99,,,0.00,0,rob ver 1B,2013-03-24 09:56:00,
2013-03-24 02:57:00,58.5,6.3,29.38,North,0,4.0,4.5,12,-99.99,,,0.00,0,rob ver 1B,2013-03-24 09:57:00,
2013-03-24 02:58:00,56.9,3.7,29.44,WNW,291,6.8,8.2,11,-99.99,,,0.00,0,rob ver 1A,2013-03-24 09:58:00,
2013-03-24 02:59:00,58.4,6.3,29.38,North,0,4.4,4.7,12,-99.99,,,0.00,0,rob ver 1B,2013-03-24 09:59:00,
2013-03-24 03:00:00,58.2,6.3,29.38,North,5,4.4,4.9,12,-99.99,,,0.00,0,rob ver 1B,2013-03-24 10:00:00,
2013-03-24 03:01:00,58.1,6.2,29.38,North,8,4.8,5.0,12,-99.99,,,0.00,0,rob ver 1B,2013-03-24 10:01:00,
2013-03-24 03:02:00,58.0,6.0,29.38,North,8,4.4,4.9,12,-99.99,,,0.00,0,rob ver 1B,2013-03-24 10:02:00,
2013-03-24 03:03:00,56.5,3.7,29.44,WNW,294,5.8,6.8,11,-99.99,,,0.00,0,rob ver 1A,2013-03-24 10:03:00,
2013-03-24 03:04:00,57.6,5.9,29.38,North,8,3.8,4.1,12,-99.99,,,0.00,0,rob ver 1B,2013-03-24 10:04:00,
2013-03-24 03:05:00,57.4,5.9,29.38,North,10,4.2,4.4,12,-99.99,,,0.00,0,rob ver 1B,2013-03-24 10:05:00,
2013-03-24 03:06:00,57.3,6.0,29.38,NNE,13,4.2,4.3,12,-99.99,,,0.00,0,rob ver 1B,2013-03-24 10:06:00,
2013-03-24 03:07:00,57.2,5.9,29.38,North,11,4.1,4.3,12,-99.99,,,0.00,0,rob ver 1B,2013-03-24 10:07:00,
2013-03-24 03:08:00,56.2,3.6,29.44,WNW,294,5.5,6.2,11,-99.99,,,0.00,0,rob ver 1A,2013-03-24 10:08:00,
2013-03-24 03:09:00,57.2,6.0,29.38,North,8,3.9,4.0,12,-99.99,,,0.00,0,rob ver 1B,2013-03-24 10:09:00,
2013-03-24 03:10:00,57.3,6.0,29.38,North,2,3.8,3.9,12,-99.99,,,0.00,0,rob ver 1B,2013-03-24 10:10:00,
2013-03-24 03:11:00,57.5,6.1,29.38,North,0,3.7,4.0,12,-99.99,,,0.00,0,rob ver 1B,2013-03-24 10:11:00,
2013-03-24 03:12:00,58.0,6.2,29.38,North,356,3.8,4.0,12,-99.99,,,0.00,0,rob ver 1B,2013-03-24 10:12:00,
2013-03-24 03:13:00,56.2,3.6,29.44,WNW,299,5.1,5.7,11,-99.99,,,0.00,0,rob ver 1A,2013-03-24 10:13:00,
2013-03-24 03:14:00,58.4,6.3,29.38,NNW,344,3.1,3.3,12,-99.99,,,0.00,0,rob ver 1B,2013-03-24 10:14:00,
2013-03-24 03:15:00,58.4,6.3,29.38,NNW,338,2.9,3.2,12,-99.99,,,0.00,0,rob ver 1B,2013-03-24 10:15:00,
2013-03-24 03:16:00,58.2,6.4,29.38,NW,305,2.5,3.3,12,-99.99,,,0.00,0,rob ver 1B,2013-03-24 10:16:00,
2013-03-24 03:17:00,57.8,6.2,29.38,WNW,296,2.6,3.7,12,-99.99,,,0.00,0,rob ver 1B,2013-03-24 10:17:00,
2013-03-24 03:18:00,56.0,3.5,29.44,WNW,292,5.9,6.7,11,-99.99,,,0.00,0,rob ver 1A,2013-03-24 10:18:00,
2013-03-24 03:19:00,57.0,6.2,29.38,West,277,2.4,2.7,12,-99.99,,,0.00,0,rob ver 1B,2013-03-24 10:19:00,
2013-03-24 03:20:00,56.4,6.0,29.38,WSW,246,3.1,3.5,12,-99.99,,,0.00,0,rob ver 1B,2013-03-24 10:20:00,
2013-03-24 03:21:00,55.8,5.8,29.38,WSW,249,2.6,3.2,13,-99.99,,,0.00,0,rob ver 1B,2013-03-24 10:21:00,
2013-03-24 03:22:00,55.5,5.8,29.38,WSW,237,2.7,2.9,13,-99.99,,,0.00,0,rob ver 1B,2013-03-24 10:22:00,
2013-03-24 03:23:00,56.8,3.5,29.44,WNW,296,6.3,7.4,11,-99.99,,,0.00,0,rob ver 1A,2013-03-24 10:23:00,
2013-03-24 03:24:00,55.8,6.0,29.38,SW,230,2.7,3.0,13,-99.99,,,0.00,0,rob ver 1B,2013-03-24 10:24:00,
2013-03-24 03:25:00,55.9,6.0,29.38,SW,222,2.7,3.0,13,-99.99,,,0.00,0,rob ver 1B,2013-03-24 10:25:00,
2013-03-24 03:26:00,55.7,5.8,29.38,SSW,195,2.3,2.8,13,-99.99,,,0.00,0,rob ver 1B,2013-03-24 10:26:00,
2013-03-24 03:27:00,55.4,5.7,29.38,South,169,2.2,2.6,13,-99.99,,,0.00,0,rob ver 1B,2013-03-24 10:27:00,
2013-03-24 03:28:00,57.2,3.6,29.44,WNW,296,6.7,7.9,11,-99.99,,,0.00,0,rob ver 1A,2013-03-24 10:28:00,
2013-03-24 03:29:00,55.0,5.7,29.38,SE,141,2.8,3.1,13,-99.99,,,0.00,0,rob ver 1B,2013-03-24 10:29:00,
2013-03-24 03:30:00,54.9,5.6,29.38,SE,144,2.9,3.2,13,-99.99,,,0.00,0,rob ver 1B,2013-03-24 10:30:00,
2013-03-24 03:31:00,55.1,5.8,29.38,SSE,153,2.3,2.8,13,-99.99,,,0.00,0,rob ver 1B,2013-03-24 10:31:00,
2013-03-24 03:32:00,55.3,5.9,29.38,SSE,159,1.7,2.1,13,-99.99,,,0.00,0,rob ver 1B,2013-03-24 10:32:00,
2013-03-24 03:33:00,57.6,3.6,29.44,WNW,289,6.1,6.8,11,-99.99,,,0.00,0,rob ver 1A,2013-03-24 10:33:00,
2013-03-24 03:34:00,55.6,5.9,29.38,SSE,168,0.8,1.0,13,-99.99,,,0.00,0,rob ver 1B,2013-03-24 10:34:00,
2013-03-24 03:35:00,55.7,5.9,29.38,South,180,0.6,0.7,13,-99.99,,,0.00,0,rob ver 1B,2013-03-24 10:35:00,
2013-03-24 03:36:00,55.6,5.9,29.38,SSW,213,0.3,0.4,13,-99.99,,,0.00,0,rob ver 1B,2013-03-24 10:36:00,
2013-03-24 03:37:00,55.6,5.9,29.38,SW,225,0.3,0.3,13,-99.99,,,0.00,0,rob ver 1B,2013-03-24 10:37:00,
2013-03-24 03:38:00,55.6,5.9,29.38,West,270,0.6,0.7,13,-99.99,,,0.00,0,rob ver 1B,2013-03-24 10:38:00,
2013-03-24 03:39:00,57.3,3.6,29.44,WNW,288,6.3,7.0,11,-99.99,,,0.00,0,rob ver 1A,2013-03-24 10:39:00,
2013-03-24 03:40:00,55.6,5.9,29.38,WSW,241,0.7,0.8,13,-99.99,,,0.00,0,rob ver 1B,2013-03-24 10:40:00,
2013-03-24 03:41:00,55.6,5.9,29.38,SW,229,0.8,0.9,13,-99.99,,,0.00,0,rob ver 1B,2013-03-24 10:41:00,
2013-03-24 03:42:00,55.5,5.9,29.38,SW,215,0.9,1.1,13,-99.99,,,0.00,0,rob ver 1B,2013-03-24 10:42:00,
2013-03-24 03:43:00,55.5,5.9,29.38,SSW,194,0.9,1.0,13,-99.99,,,0.00,0,rob ver 1B,2013-03-24 10:43:00,
2013-03-24 03:44:00,56.8,3.5,29.44,WNW,282,6.6,8.0,11,-99.99,,,0.00,0,rob ver 1A,2013-03-24 10:44:00,
2013-03-24 03:45:00,55.3,5.9,29.38,SSE,159,1.5,1.7,13,-99.99,,,0.00,0,rob ver 1B,2013-03-24 10:45:00,
2013-03-24 03:46:00,55.3,5.8,29.38,SSE,153,1.8,2.1,13,-99.99,,,0.00,0,rob ver 1B,2013-03-24 10:46:00,
2013-03-24 03:47:00,55.4,5.8,29.38,SSE,147,2.1,2.3,13,-99.99,,,0.00,0,rob ver 1B,2013-03-24 10:47:00,
2013-03-24 03:48:00,55.3,5.8,29.38,SE,140,2.2,2.4,13,-99.99,,,0.00,0,rob ver 1B,2013-03-24 10:48:00,
2013-03-24 03:49:00,56.7,3.4,29.44,WNW,283,5.8,6.9,11,-99.99,,,0.00,0,rob ver 1A,2013-03-24 10:49:00,
2013-03-24 03:50:00,55.4,6.0,29.38,ESE,123,2.4,2.5,13,-99.99,,,0.00,0,rob ver 1B,2013-03-24 10:50:00,
2013-03-24 03:51:00,55.5,6.0,29.38,ESE,117,2.4,2.6,13,-99.99,,,0.00,0,rob ver 1B,2013-03-24 10:51:00,
2013-03-24 03:52:00,55.7,6.0,29.38,ESE,106,2.4,2.6,13,-99.99,,,0.00,0,rob ver 1B,2013-03-24 10:52:00,
2013-03-24 03:53:00,55.8,6.0,29.38,East,87,3.0,3.3,13,-99.99,,,0.00,0,rob ver 1B,2013-03-24 10:53:00,
2013-03-24 03:54:00,56.3,3.5,29.44,WNW,283,6.2,7.9,11,-99.99,,,0.00,0,rob ver 1A,2013-03-24 10:54:00,
2013-03-24 03:55:00,55.7,6.0,29.38,East,91,3.5,3.8,13,-99.99,,,0.00,0,rob ver 1B,2013-03-24 10:55:00,
2013-03-24 03:56:00,55.8,6.1,29.38,ESE,104,3.4,3.7,13,-99.99,,,0.00,0,rob ver 1B,2013-03-24 10:56:00,
2013-03-24 03:57:00,55.9,6.2,29.38,ESE,107,3.2,3.5,13,-99.99,,,0.00,0,rob ver 1B,2013-03-24 10:57:00,
2013-03-24 03:58:00,56.0,6.2,29.38,ESE,112,3.2,3.6,13,-99.99,,,0.00,0,rob ver 1B,2013-03-24 10:58:00,
2013-03-24 03:59:00,55.7,3.6,29.44,West,268,4.6,5.4,11,-99.99,,,0.00,0,rob ver 1A,2013-03-24 10:59:00,
2013-03-24 04:00:00,55.1,5.8,29.38,ESE,116,3.0,3.2,13,-99.99,,,0.00,0,rob ver 1B,2013-03-24 11:00:00,
2013-03-24 04:01:00,54.8,5.8,29.38,ESE,108,3.1,3.3,13,-99.99,,,0.00,0,rob ver 1B,2013-03-24 11:01:00,
2013-03-24 04:02:00,54.6,5.9,29.38,ESE,102,3.2,3.5,13,-99.99,,,0.00,0,rob ver 1B,2013-03-24 11:02:00,
2013-03-24 04:03:00,54.8,6.1,29.38,East,101,3.3,3.4,13,-99.99,,,0.00,0,rob ver 1B,2013-03-24 11:03:00,
2013-03-24 04:04:00,54.4,3.4,29.44,West,264,5.4,6.2,12,-99.99,,,0.00,0,rob ver 1A,2013-03-24 11:04:00,
2013-03-24 04:05:00,55.5,6.2,29.38,East,94,3.3,3.5,13,-99.99,,,0.00,0,rob ver 1B,2013-03-24 11:05:00,
2013-03-24 04:06:00,55.7,6.2,29.38,East,96,2.9,3.4,13,-99.99,,,0.00,0,rob ver 1B,2013-03-24 11:06:00,
2013-03-24 04:07:00,56.0,6.3,29.38,East,94,2.7,3.0,13,-99.99,,,0.00,0,rob ver 1B,2013-03-24 11:07:00,
2013-03-24 04:08:00,56.2,6.3,29.38,East,93,2.9,3.3,13,-99.99,,,0.00,0,rob ver 1B,2013-03-24 11:08:00,
2013-03-24 04:09:00,54.8,3.4,29.44,WNW,286,7.4,8.7,12,-99.99,,,0.00,0,rob ver 1A,2013-03-24 11:09:00,
2013-03-24 04:10:00,56.7,6.4,29.38,East,97,2.5,2.7,12,-99.99,,,0.00,0,rob ver 1B,2013-03-24 11:10:00,
2013-03-24 04:11:00,56.8,6.4,29.38,East,97,2.6,3.0,12,-99.99,,,0.00,0,rob ver 1B,2013-03-24 11:11:00,
2013-03-24 04:12:00,56.8,6.3,29.38,East,96,3.2,3.4,12,-99.99,,,0.00,0,rob ver 1B,2013-03-24 11:12:00,
2013-03-24 04:13:00,56.7,6.3,29.38,East,93,3.5,3.9,12,-99.99,,,0.00,0,rob ver 1B,2013-03-24 11:13:00,
2013-03-24 04:14:00,55.5,3.6,29.44,WNW,289,5.4,6.9,11,-99.99,,,0.00,0,rob ver 1A,2013-03-24 11:14:00,
2013-03-24 04:15:00,56.7,6.3,29.38,East,84,4.1,4.6,12,-99.99,,,0.00,0,rob ver 1B,2013-03-24 11:15:00,
2013-03-24 04:16:00,56.5,6.2,29.38,East,80,4.2,4.6,13,-99.99,,,0.00,0,rob ver 1B,2013-03-24 11:16:00,
2013-03-24 04:17:00,56.1,6.0,29.38,East,80,4.2,4.5,13,-99.99,,,0.00,0,rob ver 1B,2013-03-24 11:17:00,
2013-03-24 04:18:00,55.9,6.0,29.38,ENE,77,4.4,4.6,13,-99.99,,,0.00,0,rob ver 1B,2013-03-24 11:18:00,
2013-03-24 04:19:00,55.8,3.5,29.44,WNW,284,8.2,9.2,11,-99.99,,,0.00,0,rob ver 1A,2013-03-24 11:19:00,
2013-03-24 04:20:00,55.9,6.1,29.38,East,85,4.4,4.9,13,-99.99,,,0.00,0,rob ver 1B,2013-03-24 11:20:00,
2013-03-24 04:21:00,55.7,6.1,29.38,East,83,4.5,5.1,13,-99.99,,,0.00,0,rob ver 1B,2013-03-24 11:21:00,
2013-03-24 04:22:00,55.7,6.1,29.38,ENE,73,4.0,4.9,13,-99.99,,,0.00,0,rob ver 1B,2013-03-24 11:22:00,
2013-03-24 04:23:00,55.4,5.9,29.38,ENE,59,3.5,4.3,13,-99.99,,,0.00,0,rob ver 1B,2013-03-24 11:23:00,
2013-03-24 04:24:00,56.2,3.7,29.44,WNW,286,6.7,7.6,11,-99.99,,,0.00,0,rob ver 1A,2013-03-24 11:24:00,
2013-03-24 04:25:00,55.0,6.0,29.38,ENE,65,4.5,5.6,13,-99.99,,,0.00,0,rob ver 1B,2013-03-24 11:25:00,
2013-03-24 04:26:00,55.1,6.1,29.38,ENE,63,4.8,6.0,13,-99.99,,,0.00,0,rob ver 1B,2013-03-24 11:26:00,
2013-03-24 04:27:00,55.2,6.0,29.38,NE,49,4.3,5.1,13,-99.99,,,0.00,0,rob ver 1B,2013-03-24 11:27:00,
2013-03-24 04:28:00,55.1,5.9,29.38,NE,53,4.4,5.0,13,-99.99,,,0.00,0,rob ver 1B,2013-03-24 11:28:00,
2013-03-24 04:29:00,55.1,6.0,29.38,ENE,58,4.1,4.9,13,-99.99,,,0.00,0,rob ver 1B,2013-03-24 11:29:00,
2013-03-24 04:30:00,56.3,3.9,29.44,WNW,295,5.8,6.5,11,-99.99,,,0.00,0,rob ver 1A,2013-03-24 11:30:00,
2013-03-24 04:31:00,55.5,6.1,29.38,ENE,71,4.2,4.8,13,-99.99,,,0.00,0,rob ver 1B,2013-03-24 11:31:00,
2013-03-24 04:32:00,55.9,6.2,29.38,NE,56,3.7,4.4,13,-99.99,,,0.00,0,rob ver 1B,2013-03-24 11:32:00,
2013-03-24 04:33:00,56.0,6.2,29.38,ENE,61,3.7,4.1,13,-99.99,,,0.00,0,rob ver 1B,2013-03-24 11:33:00,
2013-03-24 04:34:00,56.2,6.2,29.38,NE,54,3.3,3.8,13,-99.99,,,0.00,0,rob ver 1B,2013-03-24 11:34:00,
2013-03-24 04:35:00,56.4,3.9,29.44,WNW,292,6.1,7.0,11,-99.99,,,0.00,0,rob ver 1A,2013-03-24 11:35:00,
2013-03-24 04:36:00,56.5,6.1,29.38,NE,43,2.8,3.5,12,-99.99,,,0.00,0,rob ver 1B,2013-03-24 11:36:00,
2013-03-24 04:37:00,56.6,6.2,29.38,NE,44,3.1,3.9,12,-99.99,,,0.00,0,rob ver 1B,2013-03-24 11:37:00,
2013-03-24 04:38:00,56.8,6.3,29.38,NE,46,3.6,4.3,12,-99.99,,,0.00,0,rob ver 1B,2013-03-24 11:38:00,
2013-03-24 04:39:00,56.7,6.2,29.38,NE,41,4.0,4.6,12,-99.99,,,0.00,0,rob ver 1B,2013-03-24 11:39:00,
2013-03-24 04:40:00,56.7,4.2,29.44,WNW,294,7.4,8.4,11,-99.99,,,0.00,0,rob ver 1A,2013-03-24 11:40:00,
2013-03-24 04:41:00,56.3,6.3,29.38,NE,45,3.8,4.3,13,-99.99,,,0.00,0,rob ver 1B,2013-03-24 11:41:00,
2013-03-24 04:42:00,56.1,6.1,29.38,NNE,25,3.8,4.3,13,-99.99,,,0.00,0,rob ver 1B,2013-03-24 11:42:00,
2013-03-24 04:43:00,55.8,6.0,29.38,NNE,25,3.5,3.8,13,-99.99,,,0.00,0,rob ver 1B,2013-03-24 11:43:00,
2013-03-24 04:44:00,55.5,6.0,29.38,NE,35,3.1,3.8,13,-99.99,,,0.00,0,rob ver 1B,2013-03-24 11:44:00,
2013-03-24 04:45:00,56.9,4.2,29.44,WNW,287,6.0,7.2,11,-99.99,,,0.00,0,rob ver 1A,2013-03-24 11:45:00,
2013-03-24 04:46:00,55.3,6.0,29.38,NE,39,4.1,4.5,13,-99.99,,,0.00,0,rob ver 1B,2013-03-24 11:46:00,
2013-03-24 04:47:00,55.4,6.0,29.38,NE,46,4.6,5.0,13,-99.99,,,0.00,0,rob ver 1B,2013-03-24 11:47:00,
2013-03-24 04:48:00,55.8,6.1,29.38,NE,54,4.2,4.6,13,-99.99,,,0.00,0,rob ver 1B,2013-03-24 11:48:00,
2013-03-24 04:49:00,56.2,6.1,29.38,NE,51,4.3,4.9,13,-99.99,,,0.00,0,rob ver 1B,2013-03-24 11:49:00,
2013-03-24 04:50:00,57.1,4.2,29.44,WNW,301,7.0,7.9,11,-99.99,,,0.00,0,rob ver 1A,2013-03-24 11:50:00,
2013-03-24 04:51:00,56.4,6.1,29.38,NE,43,4.2,4.5,12,-99.99,,,0.00,0,rob ver 1B,2013-03-24 11:51:00,
2013-03-24 04:52:00,56.3,6.1,29.38,NE,46,3.8,4.4,12,-99.99,,,0.00,0,rob ver 1B,2013-03-24 11:52:00,
2013-03-24 04:53:00,56.5,6.1,29.38,NE,47,3.6,4.1,12,-99.99,,,0.00,0,rob ver 1B,2013-03-24 11:53:00,
2013-03-24 04:54:00,56.6,6.2,29.38,NE,52,3.8,4.5,12,-99.99,,,0.00,0,rob ver 1B,2013-03-24 11:54:00,
2013-03-24 04:55:00,57.2,4.0,29.44,WNW,284,6.0,7.2,11,-99.99,,,0.00,0,rob ver 1A,2013-03-24 11:55:00,
2013-03-24 04:56:00,56.7,6.2,29.38,NE,35,3.2,3.6,12,-99.99,,,0.00,0,rob ver 1B,2013-03-24 11:56:00,
2013-03-24 04:57:00,56.6,6.1,29.38,NE,37,3.3,3.6,12,-99.99,,,0.00,0,rob ver 1B,2013-03-24 11:57:00,
2013-03-24 04:58:00,56.7,6.1,29.38,NE,38,3.1,3.4,12,-99.99,,,0.00,0,rob ver 1B,2013-03-24 11:58:00,
2013-03-24 04:59:00,56.8,6.1,29.38,NNE,33,2.9,3.5,12,-99.99,,,0.00,0,rob ver 1B,2013-03-24 11:59:00,
2013-03-24 05:00:00,57.2,3.8,29.44,WNW,298,4.8,6.4,11,-99.99,,,0.00,0,rob ver 1A,2013-03-24 12:00:00,
2013-03-24 05:01:00,56.9,6.2,29.38,NNE,31,2.8,3.4,12,-99.99,,,0.00,0,rob ver 1B,2013-03-24 12:01:00,
2013-03-24 05:02:00,57.2,6.2,29.38,NNE,26,2.6,3.0,12,-99.99,,,0.00,0,rob ver 1B,2013-03-24 12:02:00,
2013-03-24 05:03:00,57.3,6.2,29.38,NNE,30,2.7,3.3,12,-99.99,,,0.00,0,rob ver 1B,2013-03-24 12:03:00,
2013-03-24 05:04:00,57.3,6.2,29.38,NE,36,2.7,3.3,12,-99.99,,,0.00,0,rob ver 1B,2013-03-24 12:04:00,
2013-03-24 05:05:00,56.8,3.7,29.44,NW,304,6.8,7.8,11,-99.99,,,0.00,0,rob ver 1A,2013-03-24 12:05:00,
2013-03-24 05:06:00,56.8,6.0,29.38,NE,41,2.7,3.7,12,-99.99,,,0.00,0,rob ver 1B,2013-03-24 12:06:00,
2013-03-24 05:07:00,56.4,6.0,29.38,NE,34,3.5,4.2,13,-99.99,,,0.00,0,rob ver 1B,2013-03-24 12:07:00,
2013-03-24 05:08:00,56.1,6.0,29.38,NNE,32,4.1,4.4,13,-99.99,,,0.00,0,rob ver 1B,2013-03-24 12:08:00,
2013-03-24 05:09:00,55.9,6.0,29.38,NNE,27,4.2,4.8,13,-99.99,,,0.00,0,rob ver 1B,2013-03-24 12:09:00,
2013-03-24 05:10:00,56.4,3.5,29.44,WNW,303,6.5,7.3,11,-99.99,,,0.00,0,rob ver 1A,2013-03-24 12:10:00,
2013-03-24 05:11:00,55.5,6.0,29.38,NNE,24,3.9,5.0,13,-99.99,,,0.00,0,rob ver 1B,2013-03-24 12:11:00,
2013-03-24 05:12:00,55.4,6.0,29.38,NNE,23,5.0,5.4,13,-99.99,,,0.00,0,rob ver 1B,2013-03-24 12:12:00,
2013-03-24 05:13:00,55.5,6.0,29.38,NNE,14,5.0,5.6,13,-99.99,,,0.00,0,rob ver 1B,2013-03-24 12:13:00,
2013-03-24 05:14:00,55.8,6.1,29.38,NNE,23,5.6,5.9,13,-99.99,,,0.00,0,rob ver 1B,2013-03-24 12:14:00,
2013-03-24 05:15:00,56.4,3.6,29.44,WNW,301,6.3,7.0,11,-99.99,,,0.00,0,rob ver 1A,2013-03-24 12:15:00,
2013-03-24 05:16:00,56.2,6.2,29.38,North,0,4.6,5.5,13,-99.99,,,0.00,0,rob ver 1B,2013-03-24 12:16:00,
2013-03-24 05:17:00,56.1,6.2,29.38,NNE,20,5.0,5.6,13,-99.99,,,0.00,0,rob ver 1B,2013-03-24 12:17:00,
2013-03-24 05:18:00,56.4,6.2,29.38,NNE,24,4.3,4.8,13,-99.99,,,0.00,0,rob ver 1B,2013-03-24 12:18:00,
2013-03-24 05:19:00,56.4,6.2,29.38,NNE,16,4.3,4.9,13,-99.99,,,0.00,0,rob ver 1B,2013-03-24 12:19:00,
2013-03-24 05:20:00,56.7,3.6,29.44,WNW,297,4.5,5.5,11,-99.99,,,0.00,0,rob ver 1A,2013-03-24 12:20:00,
2013-03-24 05:21:00,55.9,6.1,29.38,NNE,19,3.5,4.2,13,-99.99,,,0.00,0,rob ver 1B,2013-03-24 12:21:00,
2013-03-24 05:22:00,55.7,6.0,29.38,NNE,33,2.9,3.9,13,-99.99,,,0.00,0,rob ver 1B,2013-03-24 12:22:00,
2013-03-24 05:23:00,55.3,5.9,29.38,NE,35,2.9,3.6,13,-99.99,,,0.00,0,rob ver 1B,2013-03-24 12:23:00,
2013-03-24 05:24:00,55.0,5.9,29.38,NE,41,2.4,3.0,13,-99.99,,,0.00,0,rob ver 1B,2013-03-24 12:24:00,
2013-03-24 05:25:00,55.2,3.4,29.44,West,279,2.8,3.5,11,-99.99,,,0.00,0,rob ver 1A,2013-03-24 12:25:00,
2013-03-24 05:26:00,54.9,6.0,29.38,NNE,22,3.2,3.6,13,-99.99,,,0.00,0,rob ver 1B,2013-03-24 12:26:00,
2013-03-24 05:27:00,54.9,6.0,29.38,NNE,24,2.7,3.0,13,-99.99,,,0.00,0,rob ver 1B,2013-03-24 12:27:00,
2013-03-24 05:28:00,54.9,6.0,29.38,NNE,15,3.0,3.3,13,-99.99,,,0.00,0,rob ver 1B,2013-03-24 12:28:00,
2013-03-24 05:29:00,54.9,6.0,29.38,North,11,2.8,3.3,13,-99.99,,,0.00,0,rob ver 1B,2013-03-24 12:29:00,
2013-03-24 05:30:00,54.9,5.9,29.38,North,11,2.8,3.4,13,-99.99,,,0.00,0,rob ver 1B,2013-03-24 12:30:00,
2013-03-24 05:31:00,54.6,3.4,29.44,WSW,254,2.3,2.6,12,-99.99,,,0.00,0,rob ver 1A,2013-03-24 12:31:00,
2013-03-24 05:32:00,54.6,5.7,29.38,NNE,19,3.1,3.6,13,-99.99,,,0.00,0,rob ver 1B,2013-03-24 12:32:00,
2013-03-24 05:33:00,54.3,5.6,29.38,NNE,18,3.0,3.7,13,-99.99,,,0.00,0,rob ver 1B,2013-03-24 12:33:00,
2013-03-24 05:34:00,54.1,5.7,29.38,NNE,25,3.0,3.5,13,-99.99,,,0.00,0,rob ver 1B,2013-03-24 12:34:00,
2013-03-24 05:35:00,54.0,5.6,29.38,NNE,24,3.4,3.8,13,-99.99,,,0.00,0,rob ver 1B,2013-03-24 12:35:00,
2013-03-24 05:36:00,52.6,3.7,29.44,WSW,257,3.5,3.8,13,-99.99,,,0.00,0,rob ver 1A,2013-03-24 12:36:00,
2013-03-24 05:37:00,53.8,5.8,29.38,NNE,28,3.2,3.8,14,-99.99,,,0.00,0,rob ver 1B,2013-03-24 12:37:00,
2013-03-24 05:38:00,53.9,5.8,29.38,NNE,26,3.4,3.8,13,-99.99,,,0.00,0,rob ver 1B,2013-03-24 12:38:00,
2013-03-24 05:39:00,53.9,5.8,29.38,NNE,27,3.0,3.7,14,-99.99,,,0.00,0,rob ver 1B,2013-03-24 12:39:00,
2013-03-24 05:40:00,53.9,5.8,29.38,NNE,33,3.1,3.6,14,-99.99,,,0.00,0,rob ver 1B,2013-03-24 12:40:00,
2013-03-24 05:41:00,53.6,3.7,29.44,West,272,2.8,3.6,12,-99.99,,,0.00,0,rob ver 1A,2013-03-24 12:41:00,
2013-03-24 05:42:00,53.9,6.1,29.38,NE,36,3.4,4.0,14,-99.99,,,0.00,0,rob ver 1B,2013-03-24 12:42:00,
2013-03-24 05:43:00,53.9,6.1,29.38,NE,38,2.9,3.6,14,-99.99,,,0.00,0,rob ver 1B,2013-03-24 12:43:00,
2013-03-24 05:44:00,53.9,6.1,29.38,NE,40,2.4,2.9,14,-99.99,,,0.00,0,rob ver 1B,2013-03-24 12:44:00,
2013-03-24 05:45:00,53.9,6.3,29.38,NE,44,2.4,3.0,14,-99.99,,,0.00,0,rob ver 1B,2013-03-24 12:45:00,
2013-03-24 05:46:00,52.9,3.9,29.44,WSW,237,1.3,1.9,13,-99.99,,,0.00,0,rob ver 1A,2013-03-24 12:46:00,
2013-03-24 05:47:00,54.0,6.3,29.38,NNE,33,3.5,4.1,14,-99.99,,,0.00,0,rob ver 1B,2013-03-24 12:47:00,
2013-03-24 05:48:00,54.2,6.3,29.38,NNE,20,3.3,3.8,14,-99.99,,,0.00,0,rob ver 1B,2013-03-24 12:48:00,
2013-03-24 05:49:00,54.3,6.3,29.38,NNE,22,3.5,4.2,14,-99.99,,,0.00,0,rob ver 1B,2013-03-24 12:49:00,
2013-03-24 05:50:00,54.3,6.3,29.38,NE,35,3.6,4.1,14,-99.99,,,0.00,0,rob ver 1B,2013-03-24 12:50:00,
2013-03-24 05:51:00,52.5,4.2,29.44,SSW,211,1.4,1.9,13,-99.99,,,0.00,0,rob ver 1A,2013-03-24 12:51:00,
2013-03-24 05:52:00,54.1,6.4,29.38,NNE,13,2.7,3.3,14,-99.99,,,0.00,0,rob ver 1B,2013-03-24 12:52:00,
2013-03-24 05:53:00,54.0,6.2,29.38,North,3,2.6,3.2,14,-99.99,,,0.00,0,rob ver 1B,2013-03-24 12:53:00,
2013-03-24 05:54:00,54.0,6.4,29.38,North,1,3.2,3.3,14,-99.99,,,0.00,0,rob ver 1B,2013-03-24 12:54:00,
2013-03-24 05:55:00,54.1,6.3,29.38,North,3,3.3,3.5,14,-99.99,,,0.00,0,rob ver 1B,2013-03-24 12:55:00,
2013-03-24 05:56:00,52.4,4.1,29.44,West,270,2.5,3.0,13,-99.99,,,0.00,0,rob ver 1A,2013-03-24 12:56:00,
2013-03-24 05:57:00,54.5,6.1,29.38,North,5,4.2,4.4,13,-99.99,,,0.00,0,rob ver 1B,2013-03-24 12:57:00,
2013-03-24 05:58:00,54.7,6.2,29.38,North,4,4.2,4.5,13,-99.99,,,0.00,0,rob ver 1B,2013-03-24 12:58:00,
2013-03-24 05:59:00,54.8,6.2,29.38,North,2,4.2,4.5,13,-99.99,,,0.00,0,rob ver 1B,2013-03-24 12:59:00,
2013-03-24 06:00:00,54.8,6.2,29.38,North,0,4.1,4.4,13,-99.99,,,0.00,0,rob ver 1B,2013-03-24 13:00:00,
2013-03-24 06:01:00,52.5,3.9,29.44,WNW,282,2.2,2.9,13,-99.99,,,0.00,0,rob ver 1A,2013-03-24 13:01:00,
2013-03-24 06:02:00,54.6,6.1,29.38,North,359,3.5,3.9,13,-99.99,,,0.00,0,rob ver 1B,2013-03-24 13:02:00,
2013-03-24 06:03:00,54.4,6.0,29.38,North,1,3.4,3.6,13,-99.99,,,0.00,0,rob ver 1B,2013-03-24 13:03:00,
2013-03-24 06:04:00,54.3,6.0,29.38,North,3,3.4,3.8,13,-99.99,,,0.00,0,rob ver 1B,2013-03-24 13:04:00,
2013-03-24 06:05:00,54.2,5.8,29.38,North,7,3.4,3.5,13,-99.99,,,0.00,0,rob ver 1B,2013-03-24 13:05:00,
2013-03-24 06:06:00,52.8,3.7,29.44,WNW,285,3.8,4.5,13,-99.99,,,0.00,0,rob ver 1A,2013-03-24 13:06:00,
2013-03-24 06:07:00,54.0,5.8,29.38,North,11,2.9,3.1,13,-99.99,,,0.00,0,rob ver 1B,2013-03-24 13:07:00,
2013-03-24 06:08:00,53.9,5.7,29.38,NNE,22,2.5,2.7,13,-99.99,,,0.00,0,rob ver 1B,2013-03-24 13:08:00,
2013-03-24 06:09:00,53.9,5.9,29.38,NE,36,2.8,3.4,14,-99.99,,,0.00,0,rob ver 1B,2013-03-24 13:09:00,
2013-03-24 06:10:00,54.0,6.0,29.38,NE,54,2.5,3.3,14,-99.99,,,0.00,0,rob ver 1B,2013-03-24 13:10:00,
2013-03-24 06:11:00,53.5,4.0,29.44,WNW,299,4.1,4.5,13,-99.99,,,0.00,0,rob ver 1A,2013-03-24 13:11:00,
2013-03-24 06:12:00,54.2,6.2,29.38,NE,56,3.9,4.5,14,-99.99,,,0.00,0,rob ver 1B,2013-03-24 13:12:00,
2013-03-24 06:13:00,54.3,6.1,29.38,NE,47,3.4,4.0,13,-99.99,,,0.00,0,rob ver 1B,2013-03-24 13:13:00,
2013-03-24 06:14:00,54.7,6.1,29.38,NE,44,4.0,4.6,13,-99.99,,,0.00,0,rob ver 1B,2013-03-24 13:14:00,
2013-03-24 06:15:00,54.8,6.1,29.38,NE,40,3.8,4.2,13,-99.99,,,0.00,0,rob ver 1B,2013-03-24 13:15:00,
2013-03-24 06:16:00,53.9,4.5,29.47,WNW,300,5.6,6.1,13,-99.99,,,0.00,.164,rob ver 1A,2013-03-24 13:16:00,
2013-03-24 06:17:00,54.9,6.0,29.38,NNE,32,4.0,4.5,13,-99.99,,,0.00,.329,rob ver 1B,2013-03-24 13:17:00,
2013-03-24 06:18:00,54.7,6.0,29.38,NNE,22,4.0,4.4,13,-99.99,,,0.00,.329,rob ver 1B,2013-03-24 13:18:00,
2013-03-24 06:19:00,54.5,5.9,29.38,NNE,13,4.3,4.6,13,-99.99,,,0.00,.329,rob ver 1B,2013-03-24 13:19:00,
2013-03-24 06:20:00,54.2,5.8,29.38,North,4,3.6,4.3,13,-99.99,,,0.00,.329,rob ver 1B,2013-03-24 13:20:00,
2013-03-24 06:21:00,53.5,4.5,29.44,WNW,295,5.1,6.1,13,-99.99,,,0.00,.329,rob ver 1A,2013-03-24 13:21:00,
2013-03-24 06:22:00,54.6,5.9,29.38,North,2,3.5,3.6,13,-99.99,,,0.00,.657,rob ver 1B,2013-03-24 13:22:00,
2013-03-24 06:23:00,54.9,6.0,29.38,North,7,2.8,3.2,13,-99.99,,,0.00,.986,rob ver 1B,2013-03-24 13:23:00,
2013-03-24 06:24:00,55.0,5.9,29.38,NNE,14,2.4,2.5,13,-99.99,,,0.00,.986,rob ver 1B,2013-03-24 13:24:00,
2013-03-24 06:25:00,54.9,5.9,29.38,NNE,16,2.4,2.7,13,-99.99,,,0.00,1.15,rob ver 1B,2013-03-24 13:25:00,
2013-03-24 06:26:00,54.9,5.9,29.41,NNE,22,2.6,2.8,13,-99.99,,,0.00,1.315,rob ver 1B,2013-03-24 13:26:00,
2013-03-24 06:27:00,53.8,5.2,29.44,WNW,288,7.1,8.3,13,-99.99,,,0.00,1.15,rob ver 1A,2013-03-24 13:27:00,
2013-03-24 06:28:00,55.3,6.0,29.38,NNE,18,2.0,2.3,13,-99.99,,,0.00,1.972,rob ver 1B,2013-03-24 13:28:00,
2013-03-24 06:29:00,55.3,6.0,29.38,North,5,2.1,2.4,13,-99.99,,,0.00,2.301,rob ver 1B,2013-03-24 13:29:00,
2013-03-24 06:30:00,55.3,6.0,29.41,NNE,14,2.4,2.8,13,-99.99,,,0.00,2.794,rob ver 1B,2013-03-24 13:30:00,
2013-03-24 06:31:00,55.3,6.0,29.41,NNE,19,2.8,2.9,13,-99.99,,,0.00,2.958,rob ver 1B,2013-03-24 13:31:00,
2013-03-24 06:32:00,53.6,5.3,29.44,WNW,284,5.6,6.4,13,-99.99,,,0.00,2.958,rob ver 1A,2013-03-24 13:32:00,
2013-03-24 06:33:00,55.5,6.0,29.41,NNE,25,2.8,3.0,13,-99.99,,,0.00,3.944,rob ver 1B,2013-03-24 13:33:00,
2013-03-24 06:34:00,55.6,6.1,29.41,NNE,23,2.4,2.7,13,-99.99,,,0.00,4.601,rob ver 1B,2013-03-24 13:34:00,
2013-03-24 06:35:00,55.5,6.1,29.41,West,260,1.0,1.9,13,-99.99,,,0.00,5.259,rob ver 1B,2013-03-24 13:35:00,
2013-03-24 06:36:00,55.1,6.0,29.41,North,355,1.7,2.6,13,-99.99,,,0.00,5.916,rob ver 1B,2013-03-24 13:36:00,
2013-03-24 06:37:00,53.1,5.3,29.47,WNW,290,4.1,4.7,14,-99.99,,,0.00,5.587,rob ver 1A,2013-03-24 13:37:00,
2013-03-24 06:38:00,54.7,6.0,29.41,North,9,3.0,3.8,13,-99.99,,,0.00,7.56,rob ver 1B,2013-03-24 13:38:00,
2013-03-24 06:39:00,54.7,6.0,29.41,North,7,3.0,3.2,13,-99.99,,,0.00,9.2,rob ver 1B,2013-03-24 13:39:00,
2013-03-24 06:40:00,54.7,6.0,29.41,North,8,3.1,3.3,13,-99.99,,,0.00,11.83,rob ver 1B,2013-03-24 13:40:00,
2013-03-24 06:41:00,54.8,6.0,29.41,North,11,3.0,3.2,13,-99.99,,,0.00,13.8,rob ver 1B,2013-03-24 13:41:00,
2013-03-24 06:42:00,52.8,5.8,29.47,NW,313,4.1,4.5,14,-99.99,,,0.00,10.52,rob ver 1A,2013-03-24 13:42:00,
2013-03-24 06:43:00,54.9,5.9,29.41,North,7,2.4,2.6,13,-99.99,,,0.00,17.75,rob ver 1B,2013-03-24 13:43:00,
2013-03-24 06:44:00,54.9,5.9,29.41,North,1,2.2,2.5,13,-99.99,,,0.00,19.72,rob ver 1B,2013-03-24 13:44:00,
2013-03-24 06:45:00,54.9,6.0,29.41,North,7,2.2,2.6,13,-99.99,,,0.00,22.02,rob ver 1B,2013-03-24 13:45:00,
2013-03-24 06:46:00,54.9,5.9,29.41,NNE,17,2.3,2.6,13,-99.99,,,0.00,23.99,rob ver 1B,2013-03-24 13:46:00,
2013-03-24 06:47:00,52.2,5.9,29.47,NNW,335,3.6,4.2,15,-99.99,,,0.00,17.75,rob ver 1A,2013-03-24 13:47:00,
2013-03-24 06:48:00,55.0,6.0,29.41,NNE,21,2.6,3.0,13,-99.99,,,0.00,28.26,rob ver 1B,2013-03-24 13:48:00,
2013-03-24 06:49:00,55.1,6.1,29.41,NNE,18,2.6,3.1,13,-99.99,,,0.00,30.57,rob ver 1B,2013-03-24 13:49:00,
2013-03-24 06:50:00,55.4,6.1,29.41,North,8,2.8,3.2,13,-99.99,,,0.00,32.87,rob ver 1B,2013-03-24 13:50:00,
2013-03-24 06:51:00,55.7,6.2,29.41,North,4,2.7,3.1,13,-99.99,,,0.00,34.84,rob ver 1B,2013-03-24 13:51:00,
2013-03-24 06:52:00,52.2,5.8,29.47,North,350,2.7,3.0,14,-99.99,,,0.00,27.61,rob ver 1A,2013-03-24 13:52:00,
2013-03-24 06:53:00,56.2,6.3,29.41,NNE,21,3.7,4.4,13,-99.99,,,0.00,39.93,rob ver 1B,2013-03-24 13:53:00,
2013-03-24 06:54:00,56.2,6.4,29.41,NE,35,3.3,4.4,13,-99.99,,,0.00,42.23,rob ver 1B,2013-03-24 13:54:00,
2013-03-24 06:55:00,55.9,6.4,29.41,NE,37,4.1,4.4,13,-99.99,,,0.00,44.7,rob ver 1B,2013-03-24 13:55:00,
2013-03-24 06:56:00,55.7,6.3,29.41,NNE,33,3.9,4.6,13,-99.99,,,0.00,47.33,rob ver 1B,2013-03-24 13:56:00,
2013-03-24 06:57:00,53.0,5.2,29.47,WNW,295,2.0,2.1,14,-99.99,,,0.00,39.44,rob ver 1A,2013-03-24 13:57:00,
2013-03-24 06:58:00,55.5,6.4,29.41,NE,35,3.4,4.0,13,-99.99,,,0.00,52.59,rob ver 1B,2013-03-24 13:58:00,
2013-03-24 06:59:00,55.5,6.5,29.41,NE,34,3.3,3.6,13,-99.99,,,0.00,55.21,rob ver 1B,2013-03-24 13:59:00,
2013-03-24 07:00:00,55.4,6.5,29.41,NE,34,3.1,3.8,13,-99.99,,,0.00,57.84,rob ver 1B,2013-03-24 14:00:00,
2013-03-24 07:01:00,55.4,6.6,29.41,NE,38,2.6,3.2,13,-99.99,,,0.00,60.47,rob ver 1B,2013-03-24 14:01:00,
2013-03-24 07:02:00,53.9,5.0,29.47,NNW,346,1.8,1.9,13,-99.99,,,0.00,51.93,rob ver 1A,2013-03-24 14:02:00,
2013-03-24 07:03:00,55.4,6.6,29.41,NNE,30,2.5,2.8,13,-99.99,,,0.00,65.9,rob ver 1B,2013-03-24 14:03:00,
2013-03-24 07:04:00,55.4,6.6,29.41,NNE,22,2.7,3.0,13,-99.99,,,0.00,68.53,rob ver 1B,2013-03-24 14:04:00,
2013-03-24 07:05:00,55.5,6.7,29.41,North,11,3.0,3.2,13,-99.99,,,0.00,71,rob ver 1B,2013-03-24 14:05:00,
2013-03-24 07:06:00,55.6,6.7,29.41,North,358,2.7,3.1,13,-99.99,,,0.00,73.9,rob ver 1B,2013-03-24 14:06:00,
2013-03-24 07:07:00,55.8,6.7,29.41,NNW,347,3.3,3.4,13,-99.99,,,0.00,76.6,rob ver 1B,2013-03-24 14:07:00,
2013-03-24 07:08:00,54.0,5.1,29.47,NNE,31,1.1,1.4,13,-99.99,,,0.00,65.08,rob ver 1A,2013-03-24 14:08:00,
2013-03-24 07:09:00,56.4,6.9,29.41,NNW,345,3.4,3.7,13,-99.99,,,0.00,82.2,rob ver 1B,2013-03-24 14:09:00,
2013-03-24 07:10:00,56.6,7.3,29.41,NNW,341,3.0,3.6,13,-99.99,,,0.00,85.1,rob ver 1B,2013-03-24 14:10:00,
2013-03-24 07:11:00,56.7,7.3,29.41,NNW,341,3.3,3.7,13,-99.99,,,0.00,88.1,rob ver 1B,2013-03-24 14:11:00,
2013-03-24 07:12:00,56.7,7.2,29.41,NNW,333,3.2,3.4,13,-99.99,,,0.00,91,rob ver 1B,2013-03-24 14:12:00,
2013-03-24 07:13:00,54.4,4.4,29.47,NW,325,1.7,1.9,12,-99.99,,,0.00,82.5,rob ver 1A,2013-03-24 14:13:00,
2013-03-24 07:14:00,56.9,7.8,29.41,NNW,329,1.8,2.1,13,-99.99,,,0.00,97,rob ver 1B,2013-03-24 14:14:00,
2013-03-24 07:15:00,57.1,7.7,29.41,NNW,343,1.7,2.1,13,-99.99,,,0.00,99.9,rob ver 1B,2013-03-24 14:15:00,
2013-03-24 07:16:00,57.3,7.8,29.41,North,1,1.9,2.2,13,-99.99,,,0.00,103,rob ver 1B,2013-03-24 14:16:00,
2013-03-24 07:17:00,57.5,7.8,29.41,North,5,2.2,2.4,13,-99.99,,,0.00,106.2,rob ver 1B,2013-03-24 14:17:00,
2013-03-24 07:18:00,54.2,4.4,29.47,NNW,329,2.4,2.8,12,-99.99,,,0.00,97,rob ver 1A,2013-03-24 14:18:00,
2013-03-24 07:19:00,57.6,7.8,29.41,NNE,22,2.6,2.8,13,-99.99,,,0.00,112.4,rob ver 1B,2013-03-24 14:19:00,
2013-03-24 07:20:00,57.7,7.7,29.41,NNE,24,2.4,3.3,13,-99.99,,,0.00,115.7,rob ver 1B,2013-03-24 14:20:00,
2013-03-24 07:21:00,57.7,7.6,29.41,NNE,15,3.2,3.6,13,-99.99,,,0.00,118.8,rob ver 1B,2013-03-24 14:21:00,
2013-03-24 07:22:00,57.7,7.7,29.41,NNE,18,2.5,3.2,13,-99.99,,,0.00,121.6,rob ver 1B,2013-03-24 14:22:00,
2013-03-24 07:23:00,55.0,4.2,29.47,NNW,329,1.1,1.4,12,-99.99,,,0.00,113.2,rob ver 1A,2013-03-24 14:23:00,
2013-03-24 07:24:00,58.1,8.1,29.41,NNE,30,1.5,1.9,13,-99.99,,,0.00,128.2,rob ver 1B,2013-03-24 14:24:00,
2013-03-24 07:25:00,58.4,8.2,29.41,North,6,1.4,1.9,13,-99.99,,,0.00,131.5,rob ver 1B,2013-03-24 14:25:00,
2013-03-24 07:26:00,58.7,8.3,29.41,North,358,2.1,2.7,13,-99.99,,,0.00,134.7,rob ver 1B,2013-03-24 14:26:00,
2013-03-24 07:27:00,58.9,8.2,29.41,NNW,348,2.6,2.8,13,-99.99,,,0.00,138,rob ver 1B,2013-03-24 14:27:00,
2013-03-24 07:28:00,55.8,4.8,29.47,North,349,0.9,1.2,12,-99.99,,,0.00,130.3,rob ver 1A,2013-03-24 14:28:00,
2013-03-24 07:29:00,59.2,8.8,29.41,NNW,339,2.4,2.8,13,-99.99,,,0.00,144.8,rob ver 1B,2013-03-24 14:29:00,
2013-03-24 07:30:00,59.4,9.1,29.41,NNW,331,2.3,2.6,13,-99.99,,,0.00,147.9,rob ver 1B,2013-03-24 14:30:00,
2013-03-24 07:31:00,59.6,8.7,29.41,NW,320,2.6,2.7,12,-99.99,,,0.00,151.5,rob ver 1B,2013-03-24 14:31:00,
2013-03-24 07:32:00,59.6,8.6,29.41,NW,318,2.5,2.7,13,-99.99,,,0.00,155.1,rob ver 1B,2013-03-24 14:32:00,
2013-03-24 07:33:00,56.1,4.9,29.47,WNW,303,2.1,2.9,12,-99.99,,,0.00,147.2,rob ver 1A,2013-03-24 14:33:00,
2013-03-24 07:34:00,59.8,9.3,29.41,WNW,302,2.6,3.0,13,-99.99,,,0.00,161.7,rob ver 1B,2013-03-24 14:34:00,
2013-03-24 07:35:00,59.8,9.6,29.41,NW,304,3.1,3.6,13,-99.99,,,0.00,165,rob ver 1B,2013-03-24 14:35:00,
2013-03-24 07:36:00,59.6,9.5,29.41,NW,308,3.5,3.7,13,-99.99,,,0.00,168.3,rob ver 1B,2013-03-24 14:36:00,
2013-03-24 07:37:00,59.6,9.5,29.41,NW,308,3.3,3.6,13,-99.99,,,0.00,171.6,rob ver 1B,2013-03-24 14:37:00,
2013-03-24 07:38:00,56.4,6.0,29.47,WNW,302,2.4,3.1,12,-99.99,,,0.00,164.3,rob ver 1A,2013-03-24 14:38:00,
2013-03-24 07:39:00,59.8,9.4,29.41,NW,308,2.7,3.0,13,-99.99,,,0.00,178.8,rob ver 1B,2013-03-24 14:39:00,
2013-03-24 07:40:00,60.1,9.7,29.41,NW,309,2.3,2.8,13,-99.99,,,0.00,182.4,rob ver 1B,2013-03-24 14:40:00,
2013-03-24 07:41:00,60.3,10.2,29.41,NW,315,1.9,2.2,13,-99.99,,,0.00,186,rob ver 1B,2013-03-24 14:41:00,
2013-03-24 07:42:00,60.5,10.1,29.41,NNW,329,2.1,2.7,13,-99.99,,,0.00,189.3,rob ver 1B,2013-03-24 14:42:00,
2013-03-24 07:43:00,60.7,10.3,29.41,North,349,2.1,2.7,13,-99.99,,,0.00,192.9,rob ver 1B,2013-03-24 14:43:00,
2013-03-24 07:44:00,56.8,6.1,29.47,WNW,293,1.7,2.0,12,-99.99,,,0.00,182.1,rob ver 1A,2013-03-24 14:44:00,
2013-03-24 07:45:00,61.1,9.8,29.44,NNE,21,3.2,4.1,12,-99.99,,,0.00,200.1,rob ver 1B,2013-03-24 14:45:00,
2013-03-24 07:46:00,61.1,9.5,29.44,NE,35,4.2,4.7,12,-99.99,,,0.00,203.7,rob ver 1B,2013-03-24 14:46:00,
2013-03-24 07:47:00,61.1,9.6,29.44,NE,47,4.0,4.8,12,-99.99,,,0.00,207,rob ver 1B,2013-03-24 14:47:00,
2013-03-24 07:48:00,61.2,9.6,29.44,ENE,60,3.7,4.8,12,-99.99,,,0.00,210.9,rob ver 1B,2013-03-24 14:48:00,
2013-03-24 07:49:00,57.5,5.3,29.47,WSW,253,2.3,2.5,12,-99.99,,,0.00,199.7,rob ver 1A,2013-03-24 14:49:00,
2013-03-24 07:50:00,61.6,9.8,29.44,NE,42,2.3,3.2,12,-99.99,,,0.00,217.7,rob ver 1B,2013-03-24 14:50:00,
2013-03-24 07:51:00,62.2,9.9,29.44,NNE,20,1.5,2.1,12,-99.99,,,0.00,221.6,rob ver 1B,2013-03-24 14:51:00,
2013-03-24 07:52:00,62.8,10.3,29.44,NW,324,1.1,1.8,12,-99.99,,,0.00,225.1,rob ver 1B,2013-03-24 14:52:00,
2013-03-24 07:53:00,63.3,10.3,29.44,NW,315,1.2,1.8,12,-99.99,,,0.00,228.7,rob ver 1B,2013-03-24 14:53:00,
2013-03-24 07:54:00,57.6,4.6,29.47,West,266,3.4,3.8,11,-99.99,,,0.00,218.2,rob ver 1A,2013-03-24 14:54:00,
2013-03-24 07:55:00,64.1,10.1,29.44,WNW,284,1.3,1.8,12,-99.99,,,0.00,235.9,rob ver 1B,2013-03-24 14:55:00,
2013-03-24 07:56:00,64.1,10.5,29.44,WSW,238,1.9,2.4,11,-99.99,,,0.00,239.8,rob ver 1B,2013-03-24 14:56:00,
2013-03-24 07:57:00,63.9,10.2,29.44,WSW,237,1.8,2.2,12,-99.99,,,0.00,243.3,rob ver 1B,2013-03-24 14:57:00,
2013-03-24 07:58:00,63.7,10.1,29.44,SW,224,1.8,2.1,11,-99.99,,,0.00,247.1,rob ver 1B,2013-03-24 14:58:00,
2013-03-24 07:59:00,58.0,4.5,29.47,West,261,3.7,4.6,11,-99.99,,,0.00,236.6,rob ver 1A,2013-03-24 14:59:00,
2013-03-24 08:00:00,64.1,10.1,29.44,South,170,0.9,1.3,11,-99.99,,,0.00,254.3,rob ver 1B,2013-03-24 15:00:00,
2013-03-24 08:01:00,64.3,9.8,29.44,SSE,165,1.0,1.3,11,-99.99,,,0.00,258.2,rob ver 1B,2013-03-24 15:01:00,
2013-03-24 08:02:00,64.5,9.5,29.44,SSW,192,1.4,2.7,11,-99.99,,,0.00,261.5,rob ver 1B,2013-03-24 15:02:00,
2013-03-24 08:03:00,64.6,10.3,29.44,SSW,209,3.0,4.1,11,-99.99,,,0.00,265.5,rob ver 1B,2013-03-24 15:03:00,
2013-03-24 08:04:00,58.1,4.7,29.47,West,264,5.9,7.4,11,-99.99,,,0.00,254.3,rob ver 1A,2013-03-24 15:04:00,
2013-03-24 08:05:00,62.7,9.9,29.44,SW,223,5.0,5.6,12,-99.99,,,0.00,272.7,rob ver 1B,2013-03-24 15:05:00,
2013-03-24 08:06:00,61.9,10.0,29.44,SW,231,4.8,5.3,12,-99.99,,,0.00,276.6,rob ver 1B,2013-03-24 15:06:00,
2013-03-24 08:07:00,61.5,10.1,29.44,WSW,238,4.5,5.1,13,-99.99,,,0.00,279.9,rob ver 1B,2013-03-24 15:07:00,
2013-03-24 08:08:00,61.3,10.0,29.44,SW,235,4.6,5.4,12,-99.99,,,0.00,283.9,rob ver 1B,2013-03-24 15:08:00,
2013-03-24 08:09:00,58.3,4.7,29.47,West,277,6.5,7.2,11,-99.99,,,0.00,271.6,rob ver 1A,2013-03-24 15:09:00,
2013-03-24 08:10:00,61.3,9.7,29.44,SW,234,4.0,4.5,12,-99.99,,,0.00,291.1,rob ver 1B,2013-03-24 15:10:00,
2013-03-24 08:11:00,61.4,9.4,29.44,SW,231,3.2,4.1,12,-99.99,,,0.00,294.4,rob ver 1B,2013-03-24 15:11:00,
2013-03-24 08:12:00,61.7,9.5,29.44,WSW,250,2.4,2.9,12,-99.99,,,0.00,298.3,rob ver 1B,2013-03-24 15:12:00,
2013-03-24 08:13:00,62.0,9.4,29.44,WSW,241,2.5,3.4,12,-99.99,,,0.00,302.2,rob ver 1B,2013-03-24 15:13:00,
2013-03-24 08:14:00,58.2,5.3,29.47,West,275,5.3,5.9,11,-99.99,,,0.00,293.7,rob ver 1A,2013-03-24 15:14:00,
2013-03-24 08:15:00,62.1,9.4,29.44,WSW,242,3.3,4.0,12,-99.99,,,0.00,309.5,rob ver 1B,2013-03-24 15:15:00,
2013-03-24 08:16:00,62.1,9.5,29.44,WSW,240,3.4,3.8,12,-99.99,,,0.00,312.7,rob ver 1B,2013-03-24 15:16:00,
2013-03-24 08:17:00,62.0,9.7,29.44,WSW,240,2.7,3.9,12,-99.99,,,0.00,316.7,rob ver 1B,2013-03-24 15:17:00,
2013-03-24 08:18:00,62.2,9.6,29.44,WSW,242,1.8,2.6,12,-99.99,,,0.00,320.6,rob ver 1B,2013-03-24 15:18:00,
2013-03-24 08:19:00,58.6,5.5,29.47,WNW,286,5.7,6.6,11,-99.99,,,0.00,312.8,rob ver 1A,2013-03-24 15:19:00,
2013-03-24 08:20:00,62.5,9.5,29.44,WSW,242,2.9,3.4,12,-99.99,,,0.00,327.8,rob ver 1B,2013-03-24 15:20:00,
2013-03-24 08:21:00,62.4,9.2,29.44,WSW,244,3.6,4.7,12,-99.99,,,0.00,331.7,rob ver 1B,2013-03-24 15:21:00,
2013-03-24 08:22:00,62.2,9.1,29.44,WSW,242,3.1,4.2,12,-99.99,,,0.00,335,rob ver 1B,2013-03-24 15:22:00,
2013-03-24 08:23:00,62.2,9.3,29.44,WSW,252,2.1,2.5,12,-99.99,,,0.00,339,rob ver 1B,2013-03-24 15:23:00,
2013-03-24 08:24:00,58.7,5.2,29.47,WNW,282,5.3,6.3,11,-99.99,,,0.00,333,rob ver 1A,2013-03-24 15:24:00,
2013-03-24 08:25:00,62.5,9.1,29.44,WSW,241,2.1,2.8,12,-99.99,,,0.00,346.2,rob ver 1B,2013-03-24 15:25:00,
2013-03-24 08:26:00,62.7,9.4,29.44,WSW,244,2.3,2.6,11,-99.99,,,0.00,350.1,rob ver 1B,2013-03-24 15:26:00,
2013-03-24 08:27:00,62.8,9.3,29.44,WSW,245,2.1,2.4,11,-99.99,,,0.00,354,rob ver 1B,2013-03-24 15:27:00,
2013-03-24 08:28:00,63.0,9.5,29.44,WSW,258,2.0,2.7,12,-99.99,,,0.00,357.5,rob ver 1B,2013-03-24 15:28:00,
2013-03-24 08:29:00,63.2,9.9,29.44,West,266,2.2,3.0,12,-99.99,,,0.00,361.3,rob ver 1B,2013-03-24 15:29:00,
2013-03-24 08:30:00,59.3,5.0,29.47,West,276,4.7,6.1,11,-99.99,,,0.00,350.4,rob ver 1A,2013-03-24 15:30:00,
2013-03-24 08:31:00,63.4,10.0,29.44,West,262,2.1,2.8,12,-99.99,,,0.00,368.7,rob ver 1B,2013-03-24 15:31:00,
2013-03-24 08:32:00,63.5,10.0,29.44,West,272,2.8,3.4,11,-99.99,,,0.00,372.4,rob ver 1B,2013-03-24 15:32:00,
2013-03-24 08:33:00,63.5,9.8,29.44,West,270,2.5,3.4,11,-99.99,,,0.00,376.2,rob ver 1B,2013-03-24 15:33:00,
2013-03-24 08:34:00,63.6,9.9,29.44,West,269,2.3,2.9,11,-99.99,,,0.00,379.5,rob ver 1B,2013-03-24 15:34:00,
2013-03-24 08:35:00,60.0,5.5,29.47,WNW,293,5.0,5.6,11,-99.99,,,0.00,372.5,rob ver 1A,2013-03-24 15:35:00,
2013-03-24 08:36:00,63.9,9.6,29.44,West,262,1.7,2.1,11,-99.99,,,0.00,386.9,rob ver 1B,2013-03-24 15:36:00,
2013-03-24 08:37:00,64.0,9.8,29.44,West,262,1.6,2.2,11,-99.99,,,0.00,390.3,rob ver 1B,2013-03-24 15:37:00,
2013-03-24 08:38:00,64.1,9.9,29.44,West,274,1.7,2.4,11,-99.99,,,0.00,394.1,rob ver 1B,2013-03-24 15:38:00,
2013-03-24 08:39:00,64.4,10.2,29.44,West,269,1.0,1.6,11,-99.99,,,0.00,397.5,rob ver 1B,2013-03-24 15:39:00,
2013-03-24 08:40:00,60.7,5.8,29.50,West,277,4.8,5.9,10,-99.99,,,0.00,390.9,rob ver 1A,2013-03-24 15:40:00,
2013-03-24 08:41:00,65.0,10.5,29.44,WSW,251,1.5,2.3,11,-99.99,,,0.00,404.6,rob ver 1B,2013-03-24 15:41:00,
2013-03-24 08:42:00,65.0,10.5,29.44,WSW,242,1.8,2.4,11,-99.99,,,0.00,408.5,rob ver 1B,2013-03-24 15:42:00,
2013-03-24 08:43:00,64.9,10.7,29.44,WSW,251,1.2,1.7,11,-99.99,,,0.00,411.8,rob ver 1B,2013-03-24 15:43:00,
2013-03-24 08:44:00,65.2,10.6,29.44,West,270,1.3,2.1,11,-99.99,,,0.00,415.7,rob ver 1B,2013-03-24 15:44:00,
2013-03-24 08:45:00,61.1,6.1,29.50,WNW,284,4.2,6.0,11,-99.99,,,0.00,408.6,rob ver 1A,2013-03-24 15:45:00,
2013-03-24 08:46:00,65.8,10.7,29.44,NW,315,2.1,2.6,11,-99.99,,,0.00,423,rob ver 1B,2013-03-24 15:46:00,
2013-03-24 08:47:00,65.9,10.5,29.44,NW,311,1.6,2.5,11,-99.99,,,0.00,426.2,rob ver 1B,2013-03-24 15:47:00,
2013-03-24 08:48:00,66.1,10.6,29.44,NNW,332,0.9,1.4,11,-99.99,,,0.00,430.2,rob ver 1B,2013-03-24 15:48:00,
2013-03-24 08:49:00,66.4,10.7,29.44,NW,309,0.7,1.4,11,-99.99,,,0.00,432.1,rob ver 1B,2013-03-24 15:49:00,
2013-03-24 08:50:00,61.6,6.2,29.50,WNW,294,6.1,8.6,10,-99.99,,,0.00,427.1,rob ver 1A,2013-03-24 15:50:00,
2013-03-24 08:51:00,66.9,11.0,29.44,West,263,1.3,2.1,11,-99.99,,,0.00,440.7,rob ver 1B,2013-03-24 15:51:00,
2013-03-24 08:52:00,66.9,11.1,29.44,West,273,0.7,1.4,11,-99.99,,,0.00,444.6,rob ver 1B,2013-03-24 15:52:00,
2013-03-24 08:53:00,67.1,11.3,29.44,West,277,1.2,2.0,11,-99.99,,,0.00,447.7,rob ver 1B,2013-03-24 15:53:00,
2013-03-24 08:54:00,67.2,11.2,29.44,West,274,1.8,2.4,11,-99.99,,,0.00,451.6,rob ver 1B,2013-03-24 15:54:00,
2013-03-24 08:55:00,66.8,11.1,29.44,West,264,1.9,2.9,11,-99.99,,,0.00,455.1,rob ver 1B,2013-03-24 15:55:00,
2013-03-24 08:56:00,61.4,5.6,29.47,WNW,286,7.3,8.4,10,-99.99,,,0.00,445.2,rob ver 1A,2013-03-24 15:56:00,
2013-03-24 08:57:00,66.7,11.2,29.44,WNW,288,1.1,1.7,11,-99.99,,,0.00,462.3,rob ver 1B,2013-03-24 15:57:00,
2013-03-24 08:58:00,67.0,11.3,29.44,WNW,296,1.0,1.6,11,-99.99,,,0.00,465.2,rob ver 1B,2013-03-24 15:58:00,
2013-03-24 08:59:00,67.3,11.4,29.44,NW,324,0.6,1.4,11,-99.99,,,0.00,468.7,rob ver 1B,2013-03-24 15:59:00,
2013-03-24 09:00:00,67.9,11.7,29.44,West,281,0.4,0.8,10,-99.99,,,0.00,472.1,rob ver 1B,2013-03-24 16:00:00,
2013-03-24 09:01:00,62.1,6.3,29.50,WNW,289,6.4,7.7,10,-99.99,,,0.00,463,rob ver 1A,2013-03-24 16:01:00,
2013-03-24 09:02:00,68.8,11.6,29.44,NE,44,0.7,1.5,10,-99.99,,,0.00,479,rob ver 1B,2013-03-24 16:02:00,
2013-03-24 09:03:00,69.1,11.6,29.44,SE,141,1.5,2.2,10,-99.99,,,0.00,483.1,rob ver 1B,2013-03-24 16:03:00,
2013-03-24 09:04:00,68.6,11.1,29.44,ESE,117,1.1,1.8,10,-99.99,,,0.00,486.4,rob ver 1B,2013-03-24 16:04:00,
2013-03-24 09:05:00,68.4,11.2,29.44,SE,138,1.1,2.3,10,-99.99,,,0.00,489.8,rob ver 1B,2013-03-24 16:05:00,
2013-03-24 09:06:00,62.8,6.4,29.50,WNW,290,6.4,7.9,10,-99.99,,,0.00,479.5,rob ver 1A,2013-03-24 16:06:00,
2013-03-24 09:07:00,68.1,11.0,29.47,ESE,114,1.6,2.7,10,-99.99,,,0.00,497,rob ver 1B,2013-03-24 16:07:00,
2013-03-24 09:08:00,68.0,11.1,29.47,SE,125,1.5,2.0,10,-99.99,,,0.00,500.3,rob ver 1B,2013-03-24 16:08:00,
2013-03-24 09:09:00,67.9,10.9,29.47,ESE,122,1.2,2.6,10,-99.99,,,0.00,503.6,rob ver 1B,2013-03-24 16:09:00,
2013-03-24 09:10:00,68.0,11.0,29.47,SE,126,2.2,3.9,10,-99.99,,,0.00,506.9,rob ver 1B,2013-03-24 16:10:00,
2013-03-24 09:11:00,63.8,6.1,29.50,WNW,295,5.3,6.5,10,-99.99,,,0.00,497.5,rob ver 1A,2013-03-24 16:11:00,
2013-03-24 09:12:00,68.0,11.3,29.47,SE,144,2.7,4.0,11,-99.99,,,0.00,513.9,rob ver 1B,2013-03-24 16:12:00,
2013-03-24 09:13:00,67.8,10.8,29.47,East,99,3.5,4.1,10,-99.99,,,0.00,517.3,rob ver 1B,2013-03-24 16:13:00,
2013-03-24 09:14:00,67.8,10.7,29.47,East,84,1.7,2.4,10,-99.99,,,0.00,520,rob ver 1B,2013-03-24 16:14:00,
2013-03-24 09:15:00,68.1,11.0,29.47,East,81,1.8,3.0,10,-99.99,,,0.00,524.1,rob ver 1B,2013-03-24 16:15:00,
2013-03-24 09:16:00,64.3,5.8,29.50,WNW,285,7.7,9.4,9,-99.99,,,0.00,514.9,rob ver 1A,2013-03-24 16:16:00,
2013-03-24 09:17:00,68.0,10.7,29.47,SE,134,3.7,4.5,10,-99.99,,,0.00,530.5,rob ver 1B,2013-03-24 16:17:00,
2013-03-24 09:18:00,67.6,10.4,29.47,SE,132,3.3,4.3,10,-99.99,,,0.00,534.1,rob ver 1B,2013-03-24 16:18:00,
2013-03-24 09:19:00,67.4,10.6,29.47,SE,138,2.1,3.1,10,-99.99,,,0.00,537.6,rob ver 1B,2013-03-24 16:19:00,
2013-03-24 09:20:00,67.6,10.6,29.44,SSE,153,1.1,1.6,10,-99.99,,,0.00,540.9,rob ver 1B,2013-03-24 16:20:00,
2013-03-24 09:21:00,64.5,6.0,29.50,WNW,290,6.9,8.8,9,-99.99,,,0.00,533.9,rob ver 1A,2013-03-24 16:21:00,
2013-03-24 09:22:00,68.4,10.8,29.44,SE,140,2.9,4.3,10,-99.99,,,0.00,546.3,rob ver 1B,2013-03-24 16:22:00,
2013-03-24 09:23:00,68.3,10.5,29.47,East,81,2.3,3.8,10,-99.99,,,0.00,550.6,rob ver 1B,2013-03-24 16:23:00,
2013-03-24 09:24:00,68.4,10.5,29.47,ESE,118,2.5,4.3,10,-99.99,,,0.00,554.2,rob ver 1B,2013-03-24 16:24:00,
2013-03-24 09:25:00,68.3,10.7,29.47,SSE,148,2.3,3.0,10,-99.99,,,0.00,557.6,rob ver 1B,2013-03-24 16:25:00,
2013-03-24 09:26:00,64.9,6.8,29.50,WNW,282,7.3,8.5,9,-99.99,,,0.00,550.3,rob ver 1A,2013-03-24 16:26:00,
2013-03-24 09:27:00,68.3,10.4,29.47,SE,140,3.3,4.4,10,-99.99,,,0.00,563.9,rob ver 1B,2013-03-24 16:27:00,
2013-03-24 09:28:00,68.2,10.4,29.47,SSE,147,4.4,5.7,10,-99.99,,,0.00,566.5,rob ver 1B,2013-03-24 16:28:00,
2013-03-24 09:29:00,68.0,10.4,29.47,SE,139,3.2,3.9,10,-99.99,,,0.00,569.6,rob ver 1B,2013-03-24 16:29:00,
2013-03-24 09:30:00,68.3,10.6,29.47,ESE,102,3.9,4.8,10,-99.99,,,0.00,572.7,rob ver 1B,2013-03-24 16:30:00,
2013-03-24 09:31:00,65.0,6.7,29.50,West,270,8.0,10.0,9,-99.99,,,0.00,566.7,rob ver 1A,2013-03-24 16:31:00,
2013-03-24 09:32:00,68.5,10.6,29.47,SE,135,2.8,5.3,10,-99.99,,,0.00,579.4,rob ver 1B,2013-03-24 16:32:00,
2013-03-24 09:33:00,68.6,10.5,29.47,SE,142,3.7,5.2,10,-99.99,,,0.00,582.2,rob ver 1B,2013-03-24 16:33:00,
2013-03-24 09:34:00,68.6,10.3,29.47,SSE,158,3.1,5.0,10,-99.99,,,0.00,584.6,rob ver 1B,2013-03-24 16:34:00,
2013-03-24 09:35:00,68.6,10.4,29.47,SE,142,3.0,4.1,10,-99.99,,,0.00,587.3,rob ver 1B,2013-03-24 16:35:00,
2013-03-24 09:36:00,65.5,6.2,29.50,WNW,287,8.4,11.1,9,-99.99,,,0.00,582.5,rob ver 1A,2013-03-24 16:36:00,
2013-03-24 09:37:00,69.0,10.5,29.47,SSE,152,1.9,3.2,10,-99.99,,,0.00,594.6,rob ver 1B,2013-03-24 16:37:00,
2013-03-24 09:38:00,69.3,10.8,29.47,SSE,150,1.9,3.5,10,-99.99,,,0.00,596.4,rob ver 1B,2013-03-24 16:38:00,
2013-03-24 09:39:00,69.6,10.9,29.47,ESE,111,3.2,4.1,10,-99.99,,,0.00,599.9,rob ver 1B,2013-03-24 16:39:00,
2013-03-24 09:40:00,69.5,10.6,29.47,ESE,118,3.6,5.5,10,-99.99,,,0.00,603,rob ver 1B,2013-03-24 16:40:00,
2013-03-24 09:41:00,65.9,6.4,29.50,WNW,293,9.8,11.7,9,-99.99,,,0.00,598.3,rob ver 1A,2013-03-24 16:41:00,
2013-03-24 09:42:00,69.4,10.9,29.47,SE,126,3.1,5.2,10,-99.99,,,0.00,609.2,rob ver 1B,2013-03-24 16:42:00,
2013-03-24 09:43:00,69.7,11.0,29.47,ESE,123,4.2,5.9,10,-99.99,,,0.00,612.5,rob ver 1B,2013-03-24 16:43:00,
2013-03-24 09:44:00,69.6,10.9,29.47,ESE,123,2.5,3.4,10,-99.99,,,0.00,616.3,rob ver 1B,2013-03-24 16:44:00,
2013-03-24 09:45:00,69.9,10.9,29.44,SE,135,1.7,3.0,10,-99.99,,,0.00,618.9,rob ver 1B,2013-03-24 16:45:00,
2013-03-24 09:46:00,66.3,6.6,29.50,West,280,9.1,11.3,9,-99.99,,,0.00,614.4,rob ver 1A,2013-03-24 16:46:00,
2013-03-24 09:47:00,70.4,11.1,29.47,SE,138,2.3,3.7,9,-99.99,,,0.00,624.5,rob ver 1B,2013-03-24 16:47:00,
2013-03-24 09:48:00,70.6,11.2,29.47,SSE,168,0.7,1.2,9,-99.99,,,0.00,628.4,rob ver 1B,2013-03-24 16:48:00,
2013-03-24 09:49:00,71.3,11.4,29.47,SSE,153,1.4,2.3,9,-99.99,,,0.00,631.5,rob ver 1B,2013-03-24 16:49:00,
2013-03-24 09:50:00,71.8,11.7,29.47,SE,136,1.3,3.7,9,-99.99,,,0.00,633.8,rob ver 1B,2013-03-24 16:50:00,
2013-03-24 09:51:00,66.8,7.3,29.50,NW,305,8.4,10.2,9,-99.99,,,0.00,628.3,rob ver 1A,2013-03-24 16:51:00,
2013-03-24 09:52:00,71.7,11.1,29.47,East,88,3.2,5.1,9,-99.99,,,0.00,640.5,rob ver 1B,2013-03-24 16:52:00,
2013-03-24 09:53:00,71.5,11.2,29.47,East,88,3.7,5.1,9,-99.99,,,0.00,643.8,rob ver 1B,2013-03-24 16:53:00,
2013-03-24 09:54:00,71.5,11.5,29.47,East,97,2.4,4.7,9,-99.99,,,0.00,646.2,rob ver 1B,2013-03-24 16:54:00,
2013-03-24 09:55:00,72.0,12.2,29.47,SSE,153,0.9,1.8,9,-99.99,,,0.00,648.8,rob ver 1B,2013-03-24 16:55:00,
2013-03-24 09:56:00,72.4,11.5,29.47,SE,125,3.0,4.2,9,-99.99,,,0.00,651.6,rob ver 1B,2013-03-24 16:56:00,
2013-03-24 09:57:00,67.7,7.3,29.50,WNW,293,8.2,10.3,9,-99.99,,,0.00,642.9,rob ver 1A,2013-03-24 16:57:00,
2013-03-24 09:58:00,72.1,11.3,29.47,ESE,110,2.5,3.7,9,-99.99,,,0.00,657.2,rob ver 1B,2013-03-24 16:58:00,
2013-03-24 09:59:00,72.2,11.5,29.47,SE,127,2.5,4.8,9,-99.99,,,0.00,660.1,rob ver 1B,2013-03-24 16:59:00,
2013-03-24 10:00:00,72.2,11.2,29.47,SE,134,4.3,6.7,9,-99.99,,,0.00,662.7,rob ver 1B,2013-03-24 17:00:00,
2013-03-24 10:01:00,71.9,11.0,29.47,SE,133,3.6,5.7,9,-99.99,,,0.00,665,rob ver 1B,2013-03-24 17:01:00,
2013-03-24 10:02:00,67.6,6.4,29.50,WNW,283,7.5,9.5,9,-99.99,,,0.00,656.3,rob ver 1A,2013-03-24 17:02:00,
2013-03-24 10:03:00,71.6,11.0,29.47,SSE,151,3.2,4.5,9,-99.99,,,0.00,669.3,rob ver 1B,2013-03-24 17:03:00,
2013-03-24 10:04:00,71.6,11.4,29.47,SE,142,5.2,7.5,9,-99.99,,,0.00,674.2,rob ver 1B,2013-03-24 17:04:00,
2013-03-24 10:05:00,71.6,11.3,29.47,SE,136,5.5,6.9,9,-99.99,,,0.00,676.8,rob ver 1B,2013-03-24 17:05:00,
2013-03-24 10:06:00,71.5,11.4,29.47,SE,129,5.9,8.0,9,-99.99,,,0.00,680.1,rob ver 1B,2013-03-24 17:06:00,
2013-03-24 10:07:00,68.8,6.5,29.50,WNW,301,8.0,10.2,8,-99.99,,,0.00,671.4,rob ver 1A,2013-03-24 17:07:00,
2013-03-24 10:08:00,71.9,11.7,29.47,ESE,111,4.7,6.2,9,-99.99,,,0.00,685.2,rob ver 1B,2013-03-24 17:08:00,
2013-03-24 10:09:00,72.0,11.9,29.47,SE,129,4.3,6.9,9,-99.99,,,0.00,687.6,rob ver 1B,2013-03-24 17:09:00,
2013-03-24 10:10:00,72.2,12.0,29.47,SE,133,5.3,6.8,9,-99.99,,,0.00,690.8,rob ver 1B,2013-03-24 17:10:00,
2013-03-24 10:11:00,72.2,12.4,29.47,ESE,119,4.7,8.5,9,-99.99,,,0.00,692.9,rob ver 1B,2013-03-24 17:11:00,
2013-03-24 10:12:00,68.5,6.8,29.50,WNW,298,5.9,8.3,8,-99.99,,,0.00,685,rob ver 1A,2013-03-24 17:12:00,
2013-03-24 10:13:00,71.9,12.0,29.47,SE,126,5.0,6.7,9,-99.99,,,0.00,698.1,rob ver 1B,2013-03-24 17:13:00,
2013-03-24 10:14:00,71.9,11.8,29.47,SE,124,4.0,7.6,9,-99.99,,,0.00,701,rob ver 1B,2013-03-24 17:14:00,
2013-03-24 10:15:00,71.9,12.2,29.47,SE,143,6.4,8.4,9,-99.99,,,0.00,703,rob ver 1B,2013-03-24 17:15:00,
2013-03-24 10:16:00,71.9,12.3,29.47,SSE,155,5.2,6.8,9,-99.99,,,0.00,707,rob ver 1B,2013-03-24 17:16:00,
2013-03-24 10:17:00,69.3,7.3,29.50,WNW,287,7.0,9.8,8,-99.99,,,0.00,701,rob ver 1A,2013-03-24 17:17:00,
2013-03-24 10:18:00,71.9,12.2,29.47,SE,142,5.0,7.3,10,-99.99,,,0.00,711,rob ver 1B,2013-03-24 17:18:00,
2013-03-24 10:19:00,71.9,12.7,29.47,SE,143,3.8,5.3,10,-99.99,,,0.00,713,rob ver 1B,2013-03-24 17:19:00,
2013-03-24 10:20:00,72.2,12.7,29.47,ESE,122,4.5,6.6,10,-99.99,,,0.00,716,rob ver 1B,2013-03-24 17:20:00,
2013-03-24 10:21:00,72.4,12.8,29.47,SE,134,5.2,8.0,9,-99.99,,,0.00,718,rob ver 1B,2013-03-24 17:21:00,
2013-03-24 10:22:00,69.2,6.5,29.50,WNW,283,6.9,8.6,8,-99.99,,,0.00,712,rob ver 1A,2013-03-24 17:22:00,
2013-03-24 10:23:00,72.4,12.5,29.47,SSE,151,4.8,6.9,10,-99.99,,,0.00,724,rob ver 1B,2013-03-24 17:23:00,
2013-03-24 10:24:00,72.5,12.7,29.47,SSE,160,3.3,5.9,10,-99.99,,,0.00,726,rob ver 1B,2013-03-24 17:24:00,
2013-03-24 10:25:00,73.0,13.0,29.47,SE,144,5.6,7.5,9,-99.99,,,0.00,729,rob ver 1B,2013-03-24 17:25:00,
2013-03-24 10:26:00,73.0,12.6,29.47,SE,137,5.4,7.3,9,-99.99,,,0.00,732,rob ver 1B,2013-03-24 17:26:00,
2013-03-24 10:27:00,69.6,7.1,29.50,West,280,6.0,8.3,8,-99.99,,,0.00,725,rob ver 1A,2013-03-24 17:27:00,
2013-03-24 10:28:00,73.4,12.5,29.47,SSE,157,5.6,7.5,9,-99.99,,,0.00,736,rob ver 1B,2013-03-24 17:28:00,
2013-03-24 10:29:00,73.3,12.2,29.47,South,169,4.9,6.4,9,-99.99,,,0.00,738,rob ver 1B,2013-03-24 17:29:00,
2013-03-24 10:30:00,73.3,12.4,29.47,SSE,153,4.2,6.4,9,-99.99,,,0.00,741,rob ver 1B,2013-03-24 17:30:00,
2013-03-24 10:31:00,73.1,12.3,29.47,SSE,149,5.0,6.3,9,-99.99,,,0.00,744,rob ver 1B,2013-03-24 17:31:00,
2013-03-24 10:32:00,70.0,7.2,29.50,WNW,293,6.2,8.7,8,-99.99,,,0.00,738,rob ver 1A,2013-03-24 17:32:00,
2013-03-24 10:33:00,73.0,12.4,29.47,SSE,165,5.2,7.6,9,-99.99,,,0.00,748,rob ver 1B,2013-03-24 17:33:00,
2013-03-24 10:34:00,73.2,12.6,29.47,SE,138,7.2,9.6,9,-99.99,,,0.00,750,rob ver 1B,2013-03-24 17:34:00,
2013-03-24 10:35:00,73.6,12.8,29.47,SE,132,5.7,8.3,9,-99.99,,,0.00,753,rob ver 1B,2013-03-24 17:35:00,
2013-03-24 10:36:00,73.9,12.8,29.47,ESE,121,4.3,6.1,9,-99.99,,,0.00,755,rob ver 1B,2013-03-24 17:36:00,
2013-03-24 10:37:00,71.0,7.3,29.50,West,272,4.8,8.0,8,-99.99,,,0.00,750,rob ver 1A,2013-03-24 17:37:00,
2013-03-24 10:38:00,74.1,13.3,29.47,SSE,148,2.9,5.3,9,-99.99,,,0.00,760,rob ver 1B,2013-03-24 17:38:00,
2013-03-24 10:39:00,74.4,12.6,29.47,East,100,3.8,6.0,9,-99.99,,,0.00,762,rob ver 1B,2013-03-24 17:39:00,
2013-03-24 10:40:00,74.5,12.8,29.47,SE,125,5.4,8.3,9,-99.99,,,0.00,763,rob ver 1B,2013-03-24 17:40:00,
2013-03-24 10:41:00,74.2,12.4,29.47,SE,125,4.0,6.1,9,-99.99,,,0.00,767,rob ver 1B,2013-03-24 17:41:00,
2013-03-24 10:42:00,74.1,12.8,29.47,SE,142,2.0,2.9,9,-99.99,,,0.00,768,rob ver 1B,2013-03-24 17:42:00,
2013-03-24 10:43:00,71.4,7.2,29.50,West,261,5.7,7.5,8,-99.99,,,0.00,761,rob ver 1A,2013-03-24 17:43:00,
2013-03-24 10:44:00,75.0,13.2,29.47,SE,124,3.3,6.0,9,-99.99,,,0.00,772,rob ver 1B,2013-03-24 17:44:00,
2013-03-24 10:45:00,75.2,12.8,29.47,ESE,123,3.7,5.4,9,-99.99,,,0.00,775,rob ver 1B,2013-03-24 17:45:00,
2013-03-24 10:46:00,75.2,13.2,29.47,SE,140,4.7,8.3,9,-99.99,,,0.00,777,rob ver 1B,2013-03-24 17:46:00,
2013-03-24 10:47:00,75.0,12.7,29.47,SSE,162,4.1,6.6,9,-99.99,,,0.00,779,rob ver 1B,2013-03-24 17:47:00,
2013-03-24 10:48:00,71.5,7.1,29.50,WSW,255,6.8,9.3,7,-99.99,,,0.00,773,rob ver 1A,2013-03-24 17:48:00,
2013-03-24 10:49:00,75.2,13.0,29.47,SSE,166,3.3,5.0,8,-99.99,,,0.00,784,rob ver 1B,2013-03-24 17:49:00,
2013-03-24 10:50:00,75.5,12.6,29.47,East,92,4.6,5.7,8,-99.99,,,0.00,785,rob ver 1B,2013-03-24 17:50:00,
2013-03-24 10:51:00,75.5,12.4,29.47,East,94,2.5,5.3,8,-99.99,,,0.00,787,rob ver 1B,2013-03-24 17:51:00,
2013-03-24 10:52:00,75.9,12.9,29.47,SSE,156,3.5,5.7,8,-99.99,,,0.00,789,rob ver 1B,2013-03-24 17:52:00,
2013-03-24 10:53:00,72.5,6.6,29.50,WNW,288,10.5,14.6,7,-99.99,,,0.00,783,rob ver 1A,2013-03-24 17:53:00,
2013-03-24 10:54:00,76.2,12.9,29.47,ESE,122,4.0,7.5,9,-99.99,,,0.00,794,rob ver 1B,2013-03-24 17:54:00,
2013-03-24 10:55:00,76.4,12.8,29.47,SE,145,6.1,7.4,8,-99.99,,,0.00,795,rob ver 1B,2013-03-24 17:55:00,
2013-03-24 10:56:00,75.9,12.6,29.47,SE,131,5.2,7.1,8,-99.99,,,0.00,797,rob ver 1B,2013-03-24 17:56:00,
2013-03-24 10:57:00,75.8,12.7,29.47,ESE,113,3.5,5.1,8,-99.99,,,0.00,799,rob ver 1B,2013-03-24 17:57:00,
2013-03-24 10:58:00,72.8,6.4,29.47,WNW,301,7.7,10.6,7,-99.99,,,0.00,793,rob ver 1A,2013-03-24 17:58:00,
2013-03-24 10:59:00,75.8,12.7,29.47,SSE,154,3.1,4.3,8,-99.99,,,0.00,804,rob ver 1B,2013-03-24 17:59:00,
2013-03-24 11:00:00,76.1,12.9,29.47,ESE,104,2.1,3.1,8,-99.99,,,0.00,806,rob ver 1B,2013-03-24 18:00:00,
2013-03-24 11:01:00,76.7,13.0,29.47,SSE,162,2.3,4.1,8,-99.99,,,0.00,807,rob ver 1B,2013-03-24 18:01:00,
2013-03-24 11:02:00,77.0,13.2,29.47,SE,146,5.0,6.7,8,-99.99,,,0.00,810,rob ver 1B,2013-03-24 18:02:00,
2013-03-24 11:03:00,73.0,6.2,29.47,West,280,10.1,13.1,7,-99.99,,,0.00,803,rob ver 1A,2013-03-24 18:03:00,
2013-03-24 11:04:00,77.2,13.0,29.47,SE,134,5.6,7.3,8,-99.99,,,0.00,813,rob ver 1B,2013-03-24 18:04:00,
2013-03-24 11:05:00,76.7,12.7,29.47,SE,129,3.5,5.2,8,-99.99,,,0.00,815,rob ver 1B,2013-03-24 18:05:00,
2013-03-24 11:06:00,76.7,13.1,29.47,SE,133,3.7,5.1,8,-99.99,,,0.00,816,rob ver 1B,2013-03-24 18:06:00,
2013-03-24 11:07:00,76.9,13.1,29.47,SSE,166,4.2,6.9,8,-99.99,,,0.00,819,rob ver 1B,2013-03-24 18:07:00,
2013-03-24 11:08:00,73.1,6.1,29.47,WNW,295,6.7,9.5,7,-99.99,,,0.00,812,rob ver 1A,2013-03-24 18:08:00,
2013-03-24 11:09:00,77.8,13.5,29.47,SSE,157,6.9,8.5,8,-99.99,,,0.00,822,rob ver 1B,2013-03-24 18:09:00,
2013-03-24 11:10:00,77.5,12.8,29.47,South,172,6.7,9.1,8,-99.99,,,0.00,824,rob ver 1B,2013-03-24 18:10:00,
2013-03-24 11:11:00,77.1,12.8,29.44,SSE,161,5.0,7.6,8,-99.99,,,0.00,826,rob ver 1B,2013-03-24 18:11:00,
2013-03-24 11:12:00,77.0,12.8,29.47,SE,146,3.2,5.5,8,-99.99,,,0.00,827,rob ver 1B,2013-03-24 18:12:00,
2013-03-24 11:13:00,73.8,5.7,29.47,WNW,297,9.7,12.7,7,-99.99,,,0.00,823,rob ver 1A,2013-03-24 18:13:00,
2013-03-24 11:14:00,77.6,13.4,29.47,ESE,116,1.7,2.9,8,-99.99,,,0.00,831,rob ver 1B,2013-03-24 18:14:00,
2013-03-24 11:15:00,77.9,13.6,29.47,SE,143,4.3,6.2,8,-99.99,,,0.00,833,rob ver 1B,2013-03-24 18:15:00,
2013-03-24 11:16:00,78.3,13.6,29.44,SE,141,5.6,8.0,8,-99.99,,,0.00,834,rob ver 1B,2013-03-24 18:16:00,
2013-03-24 11:17:00,78.0,13.2,29.44,SE,131,4.5,6.7,8,-99.99,,,0.00,837,rob ver 1B,2013-03-24 18:17:00,
2013-03-24 11:18:00,73.4,5.8,29.47,West,275,7.4,10.0,7,-99.99,,,0.00,830,rob ver 1A,2013-03-24 18:18:00,
2013-03-24 11:19:00,77.8,13.3,29.44,SE,146,4.7,6.8,8,-99.99,,,0.00,840,rob ver 1B,2013-03-24 18:19:00,
2013-03-24 11:20:00,77.6,13.2,29.44,SSE,149,3.2,5.1,8,-99.99,,,0.00,841,rob ver 1B,2013-03-24 18:20:00,
2013-03-24 11:21:00,77.7,13.6,29.44,SE,142,4.4,8.0,8,-99.99,,,0.00,843,rob ver 1B,2013-03-24 18:21:00,
2013-03-24 11:22:00,78.0,13.3,29.44,ESE,104,5.1,8.1,8,-99.99,,,0.00,844,rob ver 1B,2013-03-24 18:22:00,
2013-03-24 11:23:00,74.3,6.0,29.47,West,259,4.6,10.0,7,-99.99,,,0.00,837,rob ver 1A,2013-03-24 18:23:00,
2013-03-24 11:24:00,78.8,14.1,29.44,SSE,150,6.7,9.6,8,-99.99,,,0.00,847,rob ver 1B,2013-03-24 18:24:00,
2013-03-24 11:25:00,78.4,13.7,29.44,SSE,155,5.0,7.0,8,-99.99,,,0.00,849,rob ver 1B,2013-03-24 18:25:00,
2013-03-24 11:26:00,78.4,14.2,29.44,SSE,147,5.4,7.2,8,-99.99,,,0.00,851,rob ver 1B,2013-03-24 18:26:00,
2013-03-24 11:27:00,78.7,12.9,29.44,ESE,104,6.4,8.6,8,-99.99,,,0.00,851,rob ver 1B,2013-03-24 18:27:00,
2013-03-24 11:28:00,78.8,12.8,29.44,East,97,3.9,5.2,8,-99.99,,,0.00,853,rob ver 1B,2013-03-24 18:28:00,
2013-03-24 11:29:00,75.3,7.0,29.47,West,274,6.9,11.6,7,-99.99,,,0.00,846,rob ver 1A,2013-03-24 18:29:00,
2013-03-24 11:30:00,79.3,13.6,29.44,ESE,105,5.5,7.3,8,-99.99,,,0.00,856,rob ver 1B,2013-03-24 18:30:00,
2013-03-24 11:31:00,79.5,14.0,29.44,SE,126,7.3,9.5,8,-99.99,,,0.00,858,rob ver 1B,2013-03-24 18:31:00,
2013-03-24 11:32:00,79.3,13.4,29.44,SE,129,7.3,9.0,8,-99.99,,,0.00,859,rob ver 1B,2013-03-24 18:32:00,
2013-03-24 11:33:00,79.2,13.7,29.44,SE,125,6.9,9.8,8,-99.99,,,0.00,860,rob ver 1B,2013-03-24 18:33:00,
2013-03-24 11:34:00,74.5,7.0,29.47,WSW,255,7.3,10.8,7,-99.99,,,0.00,854,rob ver 1A,2013-03-24 18:34:00,
2013-03-24 11:35:00,78.8,13.6,29.44,South,175,2.1,4.3,8,-99.99,,,0.00,862,rob ver 1B,2013-03-24 18:35:00,
2013-03-24 11:36:00,79.3,13.8,29.44,SSE,158,3.2,4.2,8,-99.99,,,0.00,864,rob ver 1B,2013-03-24 18:36:00,
2013-03-24 11:37:00,79.3,13.6,29.44,South,176,2.9,3.8,8,-99.99,,,0.00,866,rob ver 1B,2013-03-24 18:37:00,
2013-03-24 11:38:00,79.7,13.9,29.44,South,191,3.3,7.2,8,-99.99,,,0.00,865,rob ver 1B,2013-03-24 18:38:00,
2013-03-24 11:39:00,74.9,5.4,29.47,West,261,6.1,8.7,6,-99.99,,,0.00,860,rob ver 1A,2013-03-24 18:39:00,
2013-03-24 11:40:00,79.8,13.9,29.44,SE,133,8.3,9.9,8,-99.99,,,0.00,868,rob ver 1B,2013-03-24 18:40:00,
2013-03-24 11:41:00,79.9,13.9,29.44,ESE,115,6.7,8.9,8,-99.99,,,0.00,871,rob ver 1B,2013-03-24 18:41:00,
2013-03-24 11:42:00,80.0,13.5,29.44,East,96,7.3,8.9,7,-99.99,,,0.00,873,rob ver 1B,2013-03-24 18:42:00,
2013-03-24 11:43:00,80.2,13.1,29.44,East,86,6.4,8.4,7,-99.99,,,0.00,873,rob ver 1B,2013-03-24 18:43:00,
2013-03-24 11:44:00,75.2,5.7,29.47,West,279,5.3,6.9,6,-99.99,,,0.00,866,rob ver 1A,2013-03-24 18:44:00,
2013-03-24 11:45:00,80.2,13.6,29.44,East,90,4.9,8.7,8,-99.99,,,0.00,875,rob ver 1B,2013-03-24 18:45:00,
2013-03-24 11:46:00,80.0,13.7,29.44,ESE,121,4.6,12.3,8,-99.99,,,0.00,875,rob ver 1B,2013-03-24 18:46:00,
2013-03-24 11:47:00,80.5,13.7,29.44,ENE,75,8.0,12.4,7,-99.99,,,0.00,876,rob ver 1B,2013-03-24 18:47:00,
2013-03-24 11:48:00,80.6,13.4,29.44,East,83,6.6,8.9,7,-99.99,,,0.00,879,rob ver 1B,2013-03-24 18:48:00,
2013-03-24 11:49:00,75.1,4.8,29.47,SSW,213,2.4,4.1,6,-99.99,,,0.00,871,rob ver 1A,2013-03-24 18:49:00,
2013-03-24 11:50:00,80.8,14.3,29.44,SSE,161,4.5,7.1,8,-99.99,,,0.00,877,rob ver 1B,2013-03-24 18:50:00,
2013-03-24 11:51:00,80.8,14.9,29.44,ESE,105,4.6,6.0,8,-99.99,,,0.00,880,rob ver 1B,2013-03-24 18:51:00,
2013-03-24 11:52:00,81.6,14.1,29.44,NE,55,6.4,8.8,7,-99.99,,,0.00,883,rob ver 1B,2013-03-24 18:52:00,
2013-03-24 11:53:00,81.4,13.7,29.44,NNE,31,7.4,10.5,7,-99.99,,,0.00,883,rob ver 1B,2013-03-24 18:53:00,
2013-03-24 11:54:00,75.9,5.5,29.47,West,272,2.9,6.6,6,-99.99,,,0.00,879,rob ver 1A,2013-03-24 18:54:00,
2013-03-24 11:55:00,80.7,14.0,29.44,North,0,4.3,6.8,8,-99.99,,,0.00,885,rob ver 1B,2013-03-24 18:55:00,
2013-03-24 11:56:00,81.1,14.0,29.44,North,351,2.6,3.9,7,-99.99,,,0.00,886,rob ver 1B,2013-03-24 18:56:00,
2013-03-24 11:57:00,81.4,14.3,29.44,ENE,71,2.5,7.5,7,-99.99,,,0.00,887,rob ver 1B,2013-03-24 18:57:00,
2013-03-24 11:58:00,81.3,14.2,29.44,East,94,6.3,9.1,8,-99.99,,,0.00,888,rob ver 1B,2013-03-24 18:58:00,
2013-03-24 11:59:00,80.9,13.9,29.44,East,85,6.7,9.3,8,-99.99,,,0.00,890,rob ver 1B,2013-03-24 18:59:00,
2013-03-24 12:00:00,75.9,5.0,29.47,SSW,212,5.9,9.0,6,-99.99,,,0.00,883,rob ver 1A,2013-03-24 19:00:00,
2013-03-24 12:01:00,80.6,14.0,29.44,East,96,3.3,5.8,8,-99.99,,,0.00,892,rob ver 1B,2013-03-24 19:01:00,
2013-03-24 12:02:00,81.1,14.2,29.44,SSE,160,0.6,2.5,8,-99.99,,,0.00,895,rob ver 1B,2013-03-24 19:02:00,
2013-03-24 12:03:00,81.9,14.6,29.44,South,179,2.7,4.1,7,-99.99,,,0.00,894,rob ver 1B,2013-03-24 19:03:00,
2013-03-24 12:04:00,82.2,14.5,29.44,SSE,151,6.6,10.9,7,-99.99,,,0.00,894,rob ver 1B,2013-03-24 19:04:00,
2013-03-24 12:05:00,75.2,5.0,29.47,SE,143,5.1,7.0,6,-99.99,,,0.00,885,rob ver 1A,2013-03-24 19:05:00,
2013-03-24 12:06:00,81.4,13.2,29.44,SE,127,9.4,12.4,7,-99.99,,,0.00,896,rob ver 1B,2013-03-24 19:06:00,
2013-03-24 12:07:00,81.0,13.2,29.44,ESE,113,8.7,11.5,7,-99.99,,,0.00,897,rob ver 1B,2013-03-24 19:07:00,
2013-03-24 12:08:00,81.0,13.1,29.44,ESE,122,8.7,11.1,7,-99.99,,,0.00,898,rob ver 1B,2013-03-24 19:08:00,
2013-03-24 12:09:00,80.6,13.0,29.44,ESE,120,7.0,10.9,7,-99.99,,,0.00,899,rob ver 1B,2013-03-24 19:09:00,
2013-03-24 12:10:00,76.2,4.8,29.47,SW,230,5.8,11.0,6,-99.99,,,0.00,890,rob ver 1A,2013-03-24 19:10:00,
2013-03-24 12:11:00,80.4,13.0,29.44,SSE,160,2.6,4.6,7,-99.99,,,0.00,898,rob ver 1B,2013-03-24 19:11:00,
2013-03-24 12:12:00,80.9,13.4,29.44,SE,129,3.6,8.1,7,-99.99,,,0.00,900,rob ver 1B,2013-03-24 19:12:00,
2013-03-24 12:13:00,81.4,13.4,29.44,SE,126,5.4,8.3,7,-99.99,,,0.00,901,rob ver 1B,2013-03-24 19:13:00,
2013-03-24 12:14:00,81.2,13.2,29.44,SE,145,4.4,6.8,7,-99.99,,,0.00,901,rob ver 1B,2013-03-24 19:14:00,
2013-03-24 12:15:00,77.2,5.3,29.47,WNW,300,5.1,7.6,6,-99.99,,,0.00,894,rob ver 1A,2013-03-24 19:15:00,
2013-03-24 12:16:00,82.0,13.9,29.44,East,92,5.0,9.9,7,-99.99,,,0.00,903,rob ver 1B,2013-03-24 19:16:00,
2013-03-24 12:17:00,82.1,13.3,29.44,ENE,63,8.7,11.0,7,-99.99,,,0.00,904,rob ver 1B,2013-03-24 19:17:00,
2013-03-24 12:18:00,81.7,13.2,29.44,East,93,6.0,9.7,7,-99.99,,,0.00,904,rob ver 1B,2013-03-24 19:18:00,
2013-03-24 12:19:00,81.8,13.5,29.44,East,99,6.5,8.5,7,-99.99,,,0.00,906,rob ver 1B,2013-03-24 19:19:00,
2013-03-24 12:20:00,77.3,5.6,29.47,West,271,4.9,9.5,6,-99.99,,,0.00,894,rob ver 1A,2013-03-24 19:20:00,
2013-03-24 12:21:00,82.2,13.3,29.44,ENE,70,6.3,8.5,7,-99.99,,,0.00,907,rob ver 1B,2013-03-24 19:21:00,
2013-03-24 12:22:00,81.9,13.3,29.44,ENE,76,6.7,10.0,7,-99.99,,,0.00,907,rob ver 1B,2013-03-24 19:22:00,
2013-03-24 12:23:00,81.6,13.1,29.44,East,83,8.4,11.2,7,-99.99,,,0.00,907,rob ver 1B,2013-03-24 19:23:00,
2013-03-24 12:24:00,81.4,13.3,29.44,ENE,70,4.7,7.0,7,-99.99,,,0.00,908,rob ver 1B,2013-03-24 19:24:00,
2013-03-24 12:25:00,77.2,5.7,29.47,SW,229,6.7,9.4,6,-99.99,,,0.00,900,rob ver 1A,2013-03-24 19:25:00,
2013-03-24 12:26:00,81.5,12.9,29.44,East,95,3.8,5.7,7,-99.99,,,0.00,909,rob ver 1B,2013-03-24 19:26:00,
2013-03-24 12:27:00,81.4,13.0,29.44,East,86,5.7,9.0,7,-99.99,,,0.00,907,rob ver 1B,2013-03-24 19:27:00,
2013-03-24 12:28:00,81.4,13.1,29.44,ENE,62,6.2,7.6,7,-99.99,,,0.00,908,rob ver 1B,2013-03-24 19:28:00,
2013-03-24 12:29:00,81.7,13.2,29.44,NE,49,4.3,7.4,7,-99.99,,,0.00,908,rob ver 1B,2013-03-24 19:29:00,
2013-03-24 12:30:00,77.0,5.4,29.47,SW,228,6.1,10.4,6,-99.99,,,0.00,899,rob ver 1A,2013-03-24 19:30:00,
2013-03-24 12:31:00,82.3,13.2,29.44,NNE,13,1.4,2.5,7,-99.99,,,0.00,909,rob ver 1B,2013-03-24 19:31:00,
2013-03-24 12:32:00,82.7,13.6,29.44,NNW,339,2.1,3.3,7,-99.99,,,0.00,910,rob ver 1B,2013-03-24 19:32:00,
2013-03-24 12:33:00,83.1,13.9,29.44,NE,53,3.6,8.0,7,-99.99,,,0.00,911,rob ver 1B,2013-03-24 19:33:00,
2013-03-24 12:34:00,82.7,13.4,29.44,SE,146,4.9,11.8,7,-99.99,,,0.00,910,rob ver 1B,2013-03-24 19:34:00,
2013-03-24 12:35:00,77.5,5.2,29.47,WNW,289,3.6,5.8,6,-99.99,,,0.00,900,rob ver 1A,2013-03-24 19:35:00,
2013-03-24 12:36:00,82.1,13.3,29.44,ESE,121,9.0,11.2,7,-99.99,,,0.00,912,rob ver 1B,2013-03-24 19:36:00,
2013-03-24 12:37:00,81.8,13.0,29.44,ESE,113,6.0,8.2,7,-99.99,,,0.00,911,rob ver 1B,2013-03-24 19:37:00,
2013-03-24 12:38:00,81.6,13.4,29.44,SSE,151,3.8,6.4,7,-99.99,,,0.00,911,rob ver 1B,2013-03-24 19:38:00,
2013-03-24 12:39:00,81.7,13.1,29.44,South,174,4.7,7.5,7,-99.99,,,0.00,911,rob ver 1B,2013-03-24 19:39:00,
2013-03-24 12:40:00,77.2,5.0,29.47,WNW,287,5.8,7.4,5,-99.99,,,0.00,901,rob ver 1A,2013-03-24 19:40:00,
2013-03-24 12:41:00,81.9,15.4,29.44,SSE,156,6.6,9.1,8,-99.99,,,0.00,912,rob ver 1B,2013-03-24 19:41:00,
2013-03-24 12:42:00,81.9,15.4,29.44,SSE,165,5.5,10.6,7,-99.99,,,0.00,913,rob ver 1B,2013-03-24 19:42:00,
2013-03-24 12:43:00,82.6,13.7,29.44,ESE,123,8.0,10.8,7,-99.99,,,0.00,914,rob ver 1B,2013-03-24 19:43:00,
2013-03-24 12:44:00,82.5,13.7,29.44,ESE,123,9.1,11.7,7,-99.99,,,0.00,913,rob ver 1B,2013-03-24 19:44:00,
2013-03-24 12:45:00,81.7,13.6,29.44,SE,135,7.5,10.4,7,-99.99,,,0.00,913,rob ver 1B,2013-03-24 19:45:00,
2013-03-24 12:46:00,78.2,5.4,29.44,SSE,160,3.4,5.9,5,-99.99,,,0.00,901,rob ver 1A,2013-03-24 19:46:00,
2013-03-24 12:47:00,81.5,13.5,29.44,SSE,153,6.4,8.4,7,-99.99,,,0.00,913,rob ver 1B,2013-03-24 19:47:00,
2013-03-24 12:48:00,81.5,13.1,29.41,South,187,5.9,8.4,7,-99.99,,,0.00,913,rob ver 1B,2013-03-24 19:48:00,
2013-03-24 12:49:00,81.9,13.5,29.41,SE,132,4.7,6.7,7,-99.99,,,0.00,912,rob ver 1B,2013-03-24 19:49:00,
2013-03-24 12:50:00,82.3,13.4,29.41,ESE,110,4.2,5.9,7,-99.99,,,0.00,913,rob ver 1B,2013-03-24 19:50:00,
2013-03-24 12:51:00,77.9,5.0,29.44,West,280,5.6,10.2,5,-99.99,,,0.00,901,rob ver 1A,2013-03-24 19:51:00,
2013-03-24 12:52:00,82.4,13.8,29.41,SE,136,5.4,8.1,7,-99.99,,,0.00,909,rob ver 1B,2013-03-24 19:52:00,
2013-03-24 12:53:00,82.3,14.8,29.41,South,179,9.6,11.6,7,-99.99,,,0.00,909,rob ver 1B,2013-03-24 19:53:00,
2013-03-24 12:54:00,82.1,14.8,29.41,South,185,6.6,9.0,7,-99.99,,,0.00,909,rob ver 1B,2013-03-24 19:54:00,
2013-03-24 12:55:00,82.2,15.0,29.41,SSW,205,3.2,4.5,7,-99.99,,,0.00,906,rob ver 1B,2013-03-24 19:55:00,
2013-03-24 12:56:00,78.0,5.1,29.44,WNW,296,8.8,11.9,5,-99.99,,,0.00,905,rob ver 1A,2013-03-24 19:56:00,
2013-03-24 12:57:00,82.5,14.6,29.41,South,185,3.2,4.0,7,-99.99,,,0.00,909,rob ver 1B,2013-03-24 19:57:00,
2013-03-24 12:58:00,82.7,14.4,29.41,SSW,198,3.6,6.6,7,-99.99,,,0.00,909,rob ver 1B,2013-03-24 19:58:00,
2013-03-24 12:59:00,82.7,14.6,29.41,SSE,162,5.1,6.6,7,-99.99,,,0.00,911,rob ver 1B,2013-03-24 19:59:00,
2013-03-24 13:00:00,82.6,13.7,29.41,East,99,7.3,12.7,7,-99.99,,,0.00,913,rob ver 1B,2013-03-24 20:00:00,
2013-03-24 13:01:00,78.2,5.5,29.44,SSW,206,5.1,7.5,5,-99.99,,,0.00,901,rob ver 1A,2013-03-24 20:01:00,
2013-03-24 13:02:00,83.4,13.7,29.41,ENE,76,6.4,8.7,7,-99.99,,,0.00,910,rob ver 1B,2013-03-24 20:02:00,
2013-03-24 13:03:00,83.2,13.5,29.41,ESE,123,4.6,6.4,7,-99.99,,,0.00,910,rob ver 1B,2013-03-24 20:03:00,
2013-03-24 13:04:00,83.4,13.9,29.41,SE,132,2.5,5.7,7,-99.99,,,0.00,908,rob ver 1B,2013-03-24 20:04:00,
2013-03-24 13:05:00,84.0,13.6,29.41,SE,146,2.1,5.1,7,-99.99,,,0.00,910,rob ver 1B,2013-03-24 20:05:00,
2013-03-24 13:06:00,78.0,5.3,29.44,WNW,286,8.6,12.0,5,-99.99,,,0.00,901,rob ver 1A,2013-03-24 20:06:00,
2013-03-24 13:07:00,83.4,13.2,29.41,SSE,165,4.0,5.4,7,-99.99,,,0.00,907,rob ver 1B,2013-03-24 20:07:00,
2013-03-24 13:08:00,83.0,13.2,29.41,SSE,157,3.9,5.4,7,-99.99,,,0.00,906,rob ver 1B,2013-03-24 20:08:00,
2013-03-24 13:09:00,82.7,13.1,29.41,South,175,4.0,5.4,7,-99.99,,,0.00,906,rob ver 1B,2013-03-24 20:09:00,
2013-03-24 13:10:00,82.7,13.5,29.41,South,180,4.4,5.5,7,-99.99,,,0.00,906,rob ver 1B,2013-03-24 20:10:00,
2013-03-24 13:11:00,79.3,6.1,29.44,WSW,258,9.8,13.8,5,-99.99,,,0.00,898,rob ver 1A,2013-03-24 20:11:00,
2013-03-24 13:12:00,83.2,15.0,29.41,SE,131,4.7,10.8,8,-99.99,,,0.00,903,rob ver 1B,2013-03-24 20:12:00,
2013-03-24 13:13:00,83.2,16.5,29.41,ESE,118,7.7,10.6,8,-99.99,,,0.00,901,rob ver 1B,2013-03-24 20:13:00,
2013-03-24 13:14:00,82.9,16.5,29.41,ESE,117,7.1,10.4,8,-99.99,,,0.00,900,rob ver 1B,2013-03-24 20:14:00,
2013-03-24 13:15:00,82.7,16.7,29.41,ESE,122,7.8,9.3,8,-99.99,,,0.00,902,rob ver 1B,2013-03-24 20:15:00,
2013-03-24 13:17:00,77.9,5.4,29.44,West,270,8.1,11.8,6,-99.99,,,0.00,892,rob ver 1A,2013-03-24 20:17:00,
2013-03-24 13:18:00,82.5,13.7,29.41,ESE,111,6.9,10.0,7,-99.99,,,0.00,901,rob ver 1B,2013-03-24 20:18:00,
2013-03-24 13:19:00,82.7,13.7,29.41,ESE,110,4.6,8.3,7,-99.99,,,0.00,900,rob ver 1B,2013-03-24 20:19:00,
2013-03-24 13:20:00,82.9,14.1,29.41,ESE,107,2.5,5.3,7,-99.99,,,0.00,899,rob ver 1B,2013-03-24 20:20:00,
2013-03-24 13:21:00,83.3,15.9,29.41,South,181,4.6,9.6,8,-99.99,,,0.00,900,rob ver 1B,2013-03-24 20:21:00,
2013-03-24 13:22:00,79.2,5.8,29.44,West,263,9.3,11.7,5,-99.99,,,0.00,892,rob ver 1A,2013-03-24 20:22:00,
2013-03-24 13:23:00,83.9,14.6,29.41,South,176,9.4,11.5,7,-99.99,,,0.00,901,rob ver 1B,2013-03-24 20:23:00,
2013-03-24 13:24:00,84.1,14.0,29.41,South,182,7.1,10.2,7,-99.99,,,0.00,899,rob ver 1B,2013-03-24 20:24:00,
2013-03-24 13:25:00,84.1,14.5,29.41,South,182,8.1,13.2,7,-99.99,,,0.00,899,rob ver 1B,2013-03-24 20:25:00,
2013-03-24 13:26:00,84.2,14.0,29.41,South,188,9.7,13.3,7,-99.99,,,0.00,898,rob ver 1B,2013-03-24 20:26:00,
2013-03-24 13:27:00,79.4,5.6,29.44,NW,309,5.5,7.5,5,-99.99,,,0.00,887,rob ver 1A,2013-03-24 20:27:00,
2013-03-24 13:28:00,83.6,13.5,29.41,SE,137,8.6,12.1,7,-99.99,,,0.00,896,rob ver 1B,2013-03-24 20:28:00,
2013-03-24 13:29:00,83.0,13.5,29.41,SE,137,8.2,13.3,7,-99.99,,,0.00,896,rob ver 1B,2013-03-24 20:29:00,
2013-03-24 13:30:00,83.0,13.7,29.41,SE,137,8.1,15.1,7,-99.99,,,0.00,895,rob ver 1B,2013-03-24 20:30:00,
2013-03-24 13:31:00,83.0,13.6,29.41,SE,132,9.5,13.1,7,-99.99,,,0.00,893,rob ver 1B,2013-03-24 20:31:00,
2013-03-24 13:32:00,80.1,6.1,29.41,North,5,8.3,11.3,5,-99.99,,,0.00,883,rob ver 1A,2013-03-24 20:32:00,
2013-03-24 13:33:00,83.2,13.5,29.41,ESE,105,9.0,14.9,7,-99.99,,,0.00,894,rob ver 1B,2013-03-24 20:33:00,
2013-03-24 13:34:00,83.1,13.4,29.41,East,86,5.4,8.2,7,-99.99,,,0.00,892,rob ver 1B,2013-03-24 20:34:00,
2013-03-24 13:35:00,83.3,13.6,29.41,NNE,14,3.8,8.1,7,-99.99,,,0.00,891,rob ver 1B,2013-03-24 20:35:00,
2013-03-24 13:36:00,83.8,14.1,29.41,ESE,121,4.5,7.2,7,-99.99,,,0.00,890,rob ver 1B,2013-03-24 20:36:00,
2013-03-24 13:37:00,79.6,5.4,29.41,NW,323,4.7,7.4,5,-99.99,,,0.00,882,rob ver 1A,2013-03-24 20:37:00,
2013-03-24 13:38:00,83.8,17.4,29.41,SE,126,7.1,9.3,8,-99.99,,,0.00,887,rob ver 1B,2013-03-24 20:38:00,
2013-03-24 13:39:00,83.8,17.5,29.41,SE,131,6.9,9.3,8,-99.99,,,0.00,887,rob ver 1B,2013-03-24 20:39:00,
2013-03-24 13:40:00,83.7,17.6,29.41,SSE,166,11.0,14.2,8,-99.99,,,0.00,881,rob ver 1B,2013-03-24 20:40:00,
2013-03-24 13:41:00,83.1,17.4,29.41,SSE,150,8.4,11.0,8,-99.99,,,0.00,886,rob ver 1B,2013-03-24 20:41:00,
2013-03-24 13:42:00,79.4,5.3,29.41,WSW,241,7.7,10.9,5,-99.99,,,0.00,877,rob ver 1A,2013-03-24 20:42:00,
2013-03-24 13:43:00,83.0,17.3,29.41,South,176,7.9,10.4,8,-99.99,,,0.00,865,rob ver 1B,2013-03-24 20:43:00,
2013-03-24 13:44:00,83.0,15.2,29.41,SE,141,7.8,11.1,7,-99.99,,,0.00,876,rob ver 1B,2013-03-24 20:44:00,
2013-03-24 13:45:00,83.0,14.4,29.41,ESE,116,8.1,11.9,7,-99.99,,,0.00,866,rob ver 1B,2013-03-24 20:45:00,
2013-03-24 13:46:00,83.1,13.7,29.41,ESE,115,7.2,8.6,7,-99.99,,,0.00,868,rob ver 1B,2013-03-24 20:46:00,
2013-03-24 13:47:00,79.3,5.7,29.41,West,270,9.4,14.3,5,-99.99,,,0.00,869,rob ver 1A,2013-03-24 20:47:00,
2013-03-24 13:48:00,83.4,14.3,29.41,ESE,107,8.3,12.8,8,-99.99,,,0.00,855,rob ver 1B,2013-03-24 20:48:00,
2013-03-24 13:49:00,83.6,17.2,29.41,SE,124,10.0,16.6,8,-99.99,,,0.00,861,rob ver 1B,2013-03-24 20:49:00,
2013-03-24 13:50:00,83.4,14.5,29.41,ESE,110,8.5,12.4,7,-99.99,,,0.00,869,rob ver 1B,2013-03-24 20:50:00,
2013-03-24 13:51:00,83.6,13.5,29.41,ESE,113,5.8,8.4,7,-99.99,,,0.00,877,rob ver 1B,2013-03-24 20:51:00,
2013-03-24 13:52:00,80.2,6.3,29.41,WNW,289,10.6,13.2,5,-99.99,,,0.00,866,rob ver 1A,2013-03-24 20:52:00,
2013-03-24 13:53:00,83.9,13.9,29.41,North,9,2.0,4.0,7,-99.99,,,0.00,872,rob ver 1B,2013-03-24 20:53:00,
2013-03-24 13:54:00,84.3,14.7,29.41,East,88,5.1,7.4,7,-99.99,,,0.00,869,rob ver 1B,2013-03-24 20:54:00,
2013-03-24 13:55:00,84.1,15.2,29.38,East,101,5.2,6.7,7,-99.99,,,0.00,867,rob ver 1B,2013-03-24 20:55:00,
2013-03-24 13:56:00,83.9,15.7,29.41,ESE,103,5.9,8.9,8,-99.99,,,0.00,869,rob ver 1B,2013-03-24 20:56:00,
2013-03-24 13:57:00,79.4,6.3,29.41,West,279,3.4,5.0,5,-99.99,,,0.00,857,rob ver 1A,2013-03-24 20:57:00,
2013-03-24 13:58:00,84.4,17.0,29.41,SE,125,8.2,9.8,8,-99.99,,,0.00,864,rob ver 1B,2013-03-24 20:58:00,
2013-03-24 13:59:00,84.1,16.6,29.41,SSE,148,4.9,7.4,8,-99.99,,,0.00,861,rob ver 1B,2013-03-24 20:59:00,
2013-03-24 14:00:00,84.2,16.8,29.38,SE,125,4.3,6.6,7,-99.99,,,0.00,856,rob ver 1B,2013-03-24 21:00:00,
2013-03-24 14:01:00,84.4,16.8,29.41,SE,134,3.8,5.5,8,-99.99,,,0.00,858,rob ver 1B,2013-03-24 21:01:00,
2013-03-24 14:02:00,79.7,6.5,29.41,WSW,258,5.9,10.4,5,-99.99,,,0.00,852,rob ver 1A,2013-03-24 21:02:00,
2013-03-24 14:03:00,83.8,16.6,29.38,SSE,154,8.2,12.6,8,-99.99,,,0.00,854,rob ver 1B,2013-03-24 21:03:00,
2013-03-24 14:04:00,83.4,16.9,29.38,SSE,150,8.7,11.0,8,-99.99,,,0.00,856,rob ver 1B,2013-03-24 21:04:00,
2013-03-24 14:05:00,83.6,17.5,29.38,SSE,161,8.8,11.1,8,-99.99,,,0.00,853,rob ver 1B,2013-03-24 21:05:00,
2013-03-24 14:06:00,84.0,16.9,29.38,SSE,149,9.4,12.6,7,-99.99,,,0.00,854,rob ver 1B,2013-03-24 21:06:00,
2013-03-24 14:07:00,79.6,6.4,29.41,WSW,258,10.2,12.7,5,-99.99,,,0.00,843,rob ver 1A,2013-03-24 21:07:00,
2013-03-24 14:08:00,84.1,13.6,29.38,SE,127,9.3,11.0,6,-99.99,,,0.00,852,rob ver 1B,2013-03-24 21:08:00,
2013-03-24 14:09:00,84.3,16.7,29.38,SE,142,8.2,10.0,8,-99.99,,,0.00,848,rob ver 1B,2013-03-24 21:09:00,
2013-03-24 14:10:00,84.0,16.8,29.38,SE,130,6.7,8.3,7,-99.99,,,0.00,850,rob ver 1B,2013-03-24 21:10:00,
2013-03-24 14:11:00,83.9,14.4,29.38,SE,131,7.4,9.5,7,-99.99,,,0.00,848,rob ver 1B,2013-03-24 21:11:00,
2013-03-24 14:12:00,80.4,6.5,29.41,NW,308,7.5,9.5,5,-99.99,,,0.00,836,rob ver 1A,2013-03-24 21:12:00,
2013-03-24 14:13:00,83.7,13.5,29.38,SE,127,6.4,9.8,7,-99.99,,,0.00,845,rob ver 1B,2013-03-24 21:13:00,
2013-03-24 14:14:00,83.7,13.3,29.38,SE,132,4.6,8.3,7,-99.99,,,0.00,843,rob ver 1B,2013-03-24 21:14:00,
2013-03-24 14:15:00,83.7,13.5,29.38,SE,144,7.1,10.6,7,-99.99,,,0.00,842,rob ver 1B,2013-03-24 21:15:00,
2013-03-24 14:16:00,84.3,13.8,29.38,ESE,121,8.7,11.2,7,-99.99,,,0.00,840,rob ver 1B,2013-03-24 21:16:00,
2013-03-24 14:17:00,84.8,13.7,29.38,East,99,4.2,7.1,6,-99.99,,,0.00,839,rob ver 1B,2013-03-24 21:17:00,
2013-03-24 14:18:00,79.9,6.6,29.41,WNW,290,10.5,12.5,5,-99.99,,,0.00,828,rob ver 1A,2013-03-24 21:18:00,
2013-03-24 14:19:00,84.8,13.8,29.38,ESE,119,9.2,11.9,7,-99.99,,,0.00,832,rob ver 1B,2013-03-24 21:19:00,
2013-03-24 14:20:00,84.9,13.6,29.38,ENE,78,7.4,13.2,6,-99.99,,,0.00,830,rob ver 1B,2013-03-24 21:20:00,
2013-03-24 14:21:00,84.8,14.2,29.38,ESE,103,8.3,15.4,7,-99.99,,,0.00,830,rob ver 1B,2013-03-24 21:21:00,
2013-03-24 14:22:00,84.9,14.4,29.38,ESE,102,10.1,11.9,6,-99.99,,,0.00,830,rob ver 1B,2013-03-24 21:22:00,
2013-03-24 14:23:00,80.5,7.0,29.41,East,82,1.7,3.6,5,-99.99,,,0.00,820,rob ver 1A,2013-03-24 21:23:00,
2013-03-24 14:24:00,84.7,15.2,29.38,ESE,112,8.5,12.0,7,-99.99,,,0.00,827,rob ver 1B,2013-03-24 21:24:00,
2013-03-24 14:25:00,84.4,15.2,29.38,ENE,70,4.8,7.1,7,-99.99,,,0.00,823,rob ver 1B,2013-03-24 21:25:00,
2013-03-24 14:26:00,84.3,15.1,29.38,East,94,5.2,8.8,7,-99.99,,,0.00,818,rob ver 1B,2013-03-24 21:26:00,
2013-03-24 14:27:00,84.8,14.2,29.38,East,84,9.6,14.8,6,-99.99,,,0.00,817,rob ver 1B,2013-03-24 21:27:00,
2013-03-24 14:28:00,80.5,6.9,29.38,WNW,284,11.9,15.2,5,-99.99,,,0.00,811,rob ver 1A,2013-03-24 21:28:00,
2013-03-24 14:29:00,84.5,13.9,29.38,East,83,7.2,9.4,7,-99.99,,,0.00,817,rob ver 1B,2013-03-24 21:29:00,
2013-03-24 14:30:00,84.5,13.9,29.38,East,86,4.9,7.1,6,-99.99,,,0.00,816,rob ver 1B,2013-03-24 21:30:00,
2013-03-24 14:31:00,84.6,13.8,29.38,East,89,5.9,9.4,7,-99.99,,,0.00,813,rob ver 1B,2013-03-24 21:31:00,
2013-03-24 14:32:00,84.8,13.7,29.38,ESE,108,3.7,6.3,6,-99.99,,,0.00,813,rob ver 1B,2013-03-24 21:32:00,
2013-03-24 14:33:00,80.0,7.1,29.38,West,280,6.6,10.1,5,-99.99,,,0.00,801,rob ver 1A,2013-03-24 21:33:00,
2013-03-24 14:34:00,84.8,14.0,29.38,SSE,149,3.7,6.6,7,-99.99,,,0.00,811,rob ver 1B,2013-03-24 21:34:00,
2013-03-24 14:35:00,84.4,13.7,29.38,SE,141,4.9,6.8,7,-99.99,,,0.00,808,rob ver 1B,2013-03-24 21:35:00,
2013-03-24 14:36:00,84.1,14.1,29.38,South,181,2.6,5.4,7,-99.99,,,0.00,806,rob ver 1B,2013-03-24 21:36:00,
2013-03-24 14:37:00,84.4,13.7,29.38,SSE,153,4.6,8.6,6,-99.99,,,0.00,801,rob ver 1B,2013-03-24 21:37:00,
2013-03-24 14:38:00,80.2,7.2,29.38,WSW,254,6.7,10.4,6,-99.99,,,0.00,790,rob ver 1A,2013-03-24 21:38:00,
2013-03-24 14:39:00,84.1,13.3,29.38,SE,141,2.9,4.8,7,-99.99,,,0.00,798,rob ver 1B,2013-03-24 21:39:00,
2013-03-24 14:40:00,84.1,13.5,29.38,SSE,149,1.8,3.3,7,-99.99,,,0.00,796,rob ver 1B,2013-03-24 21:40:00,
2013-03-24 14:41:00,84.4,13.4,29.38,SSW,202,1.5,2.5,6,-99.99,,,0.00,793,rob ver 1B,2013-03-24 21:41:00,
2013-03-24 14:42:00,85.0,13.7,29.38,WSW,238,1.3,2.4,6,-99.99,,,0.00,792,rob ver 1B,2013-03-24 21:42:00,
2013-03-24 14:43:00,80.5,7.6,29.38,WSW,250,9.1,13.0,5,-99.99,,,0.00,779,rob ver 1A,2013-03-24 21:43:00,
2013-03-24 14:44:00,85.4,13.9,29.38,ESE,112,4.3,5.5,6,-99.99,,,0.00,788,rob ver 1B,2013-03-24 21:44:00,
2013-03-24 14:45:00,84.9,14.3,29.38,SE,135,6.6,13.8,7,-99.99,,,0.00,785,rob ver 1B,2013-03-24 21:45:00,
2013-03-24 14:46:00,85.1,14.8,29.38,SSE,165,7.4,10.5,7,-99.99,,,0.00,787,rob ver 1B,2013-03-24 21:46:00,
2013-03-24 14:47:00,84.7,15.3,29.38,SSE,162,7.2,10.0,7,-99.99,,,0.00,785,rob ver 1B,2013-03-24 21:47:00,
2013-03-24 14:48:00,80.5,7.6,29.38,SW,225,8.9,10.4,6,-99.99,,,0.00,770,rob ver 1A,2013-03-24 21:48:00,
2013-03-24 14:49:00,85.2,18.4,29.38,SSE,157,10.1,12.5,8,-99.99,,,0.00,784,rob ver 1B,2013-03-24 21:49:00,
2013-03-24 14:50:00,84.5,18.0,29.38,SSE,162,6.3,9.6,8,-99.99,,,0.00,779,rob ver 1B,2013-03-24 21:50:00,
2013-03-24 14:51:00,84.7,16.7,29.38,SE,130,7.0,11.6,7,-99.99,,,0.00,780,rob ver 1B,2013-03-24 21:51:00,
2013-03-24 14:52:00,85.0,14.0,29.38,SE,124,10.5,14.3,6,-99.99,,,0.00,777,rob ver 1B,2013-03-24 21:52:00,
2013-03-24 14:53:00,80.8,8.0,29.38,WSW,248,8.1,11.3,6,-99.99,,,0.00,756,rob ver 1A,2013-03-24 21:53:00,
2013-03-24 14:54:00,84.4,13.4,29.38,SSE,168,4.8,9.4,6,-99.99,,,0.00,775,rob ver 1B,2013-03-24 21:54:00,
2013-03-24 14:55:00,84.6,13.5,29.38,SSE,157,8.9,11.3,6,-99.99,,,0.00,766,rob ver 1B,2013-03-24 21:55:00,
2013-03-24 14:56:00,84.6,13.5,29.38,SSE,158,6.8,9.9,6,-99.99,,,0.00,768,rob ver 1B,2013-03-24 21:56:00,
2013-03-24 14:57:00,84.6,13.6,29.38,SSE,154,4.8,6.8,6,-99.99,,,0.00,755,rob ver 1B,2013-03-24 21:57:00,
2013-03-24 14:58:00,80.0,7.8,29.38,West,264,8.0,10.2,6,-99.99,,,0.00,746,rob ver 1A,2013-03-24 21:58:00,
2013-03-24 14:59:00,84.7,13.7,29.38,SSE,152,4.1,5.6,6,-99.99,,,0.00,743,rob ver 1B,2013-03-24 21:59:00,
2013-03-24 15:00:00,84.8,13.5,29.38,ESE,113,7.4,11.2,6,-99.99,,,0.00,747,rob ver 1B,2013-03-24 22:00:00,
2013-03-24 15:01:00,85.0,13.8,29.38,SE,141,8.7,11.6,7,-99.99,,,0.00,753,rob ver 1B,2013-03-24 22:01:00,
2013-03-24 15:02:00,85.5,14.1,29.38,SE,141,8.7,16.8,6,-99.99,,,0.00,748,rob ver 1B,2013-03-24 22:02:00,
2013-03-24 15:03:00,85.6,13.7,29.38,East,99,7.3,10.8,6,-99.99,,,0.00,755,rob ver 1B,2013-03-24 22:03:00,
2013-03-24 15:04:00,79.6,7.8,29.38,West,271,5.7,9.5,6,-99.99,,,0.00,734,rob ver 1A,2013-03-24 22:04:00,
2013-03-24 15:05:00,85.6,13.6,29.38,SSE,154,7.9,12.2,6,-99.99,,,0.00,749,rob ver 1B,2013-03-24 22:05:00,
2013-03-24 15:06:00,85.0,13.4,29.35,South,177,8.5,12.6,6,-99.99,,,0.00,744,rob ver 1B,2013-03-24 22:06:00,
2013-03-24 15:07:00,84.9,13.4,29.35,South,173,7.4,13.2,6,-99.99,,,0.00,742,rob ver 1B,2013-03-24 22:07:00,
2013-03-24 15:08:00,84.8,13.5,29.35,SSE,155,9.6,14.4,7,-99.99,,,0.00,729,rob ver 1B,2013-03-24 22:08:00,
2013-03-24 15:09:00,80.5,8.5,29.38,West,275,11.3,13.8,6,-99.99,,,0.00,722,rob ver 1A,2013-03-24 22:09:00,
2013-03-24 15:10:00,84.7,13.3,29.38,South,169,3.9,6.2,6,-99.99,,,0.00,709,rob ver 1B,2013-03-24 22:10:00,
2013-03-24 15:11:00,84.7,13.4,29.38,SSE,153,4.1,6.1,6,-99.99,,,0.00,710,rob ver 1B,2013-03-24 22:11:00,
2013-03-24 15:12:00,84.6,13.3,29.38,SE,127,3.2,5.0,6,-99.99,,,0.00,703,rob ver 1B,2013-03-24 22:12:00,
2013-03-24 15:13:00,84.8,13.7,29.35,ESE,121,4.3,8.0,6,-99.99,,,0.00,714,rob ver 1B,2013-03-24 22:13:00,
2013-03-24 15:14:00,80.4,8.3,29.38,West,280,11.0,16.2,6,-99.99,,,0.00,712,rob ver 1A,2013-03-24 22:14:00,
2013-03-24 15:15:00,85.7,14.0,29.35,ESE,103,11.4,13.9,6,-99.99,,,0.00,722,rob ver 1B,2013-03-24 22:15:00,
2013-03-24 15:16:00,85.7,13.6,29.35,East,101,10.4,14.2,6,-99.99,,,0.00,718,rob ver 1B,2013-03-24 22:16:00,
2013-03-24 15:17:00,85.2,13.5,29.35,ESE,113,10.1,13.4,6,-99.99,,,0.00,710,rob ver 1B,2013-03-24 22:17:00,
2013-03-24 15:18:00,84.8,13.3,29.35,SE,134,8.5,13.4,6,-99.99,,,0.00,708,rob ver 1B,2013-03-24 22:18:00,
2013-03-24 15:19:00,80.3,8.5,29.38,WSW,246,8.1,9.7,6,-99.99,,,0.00,698.1,rob ver 1A,2013-03-24 22:19:00,
2013-03-24 15:20:00,84.8,13.6,29.35,SE,126,9.0,11.3,6,-99.99,,,0.00,672.7,rob ver 1B,2013-03-24 22:20:00,
2013-03-24 15:21:00,84.7,13.4,29.35,SE,127,7.7,10.4,6,-99.99,,,0.00,679,rob ver 1B,2013-03-24 22:21:00,
2013-03-24 15:22:00,84.9,13.7,29.35,SE,134,8.6,11.2,6,-99.99,,,0.00,679.9,rob ver 1B,2013-03-24 22:22:00,
2013-03-24 15:23:00,84.9,13.5,29.35,SE,143,8.6,10.9,6,-99.99,,,0.00,666.3,rob ver 1B,2013-03-24 22:23:00,
2013-03-24 15:24:00,80.5,9.0,29.38,WNW,293,4.1,5.1,6,-99.99,,,0.00,682.2,rob ver 1A,2013-03-24 22:24:00,
2013-03-24 15:25:00,85.0,13.5,29.35,ESE,119,8.7,11.0,6,-99.99,,,0.00,688.8,rob ver 1B,2013-03-24 22:25:00,
2013-03-24 15:26:00,84.9,13.3,29.35,East,96,6.7,9.7,6,-99.99,,,0.00,695.8,rob ver 1B,2013-03-24 22:26:00,
2013-03-24 15:27:00,85.0,13.3,29.35,East,82,6.5,9.8,6,-99.99,,,0.00,682.1,rob ver 1B,2013-03-24 22:27:00,
2013-03-24 15:28:00,85.0,13.6,29.35,SE,136,2.0,4.1,6,-99.99,,,0.00,681.7,rob ver 1B,2013-03-24 22:28:00,
2013-03-24 15:29:00,80.4,9.8,29.38,WNW,296,8.5,10.8,6,-99.99,,,0.00,671.9,rob ver 1A,2013-03-24 22:29:00,
2013-03-24 15:30:00,86.0,14.0,29.35,West,275,2.4,6.1,6,-99.99,,,0.00,690.6,rob ver 1B,2013-03-24 22:30:00,
2013-03-24 15:31:00,85.9,14.1,29.35,ESE,118,3.9,5.7,6,-99.99,,,0.00,687,rob ver 1B,2013-03-24 22:31:00,
2013-03-24 15:32:00,85.9,14.6,29.35,East,100,6.2,12.3,7,-99.99,,,0.00,684.7,rob ver 1B,2013-03-24 22:32:00,
2013-03-24 15:33:00,85.2,15.1,29.35,East,84,5.4,10.7,7,-99.99,,,0.00,682.4,rob ver 1B,2013-03-24 22:33:00,
2013-03-24 15:34:00,80.3,8.9,29.38,SW,225,4.0,7.4,6,-99.99,,,0.00,658.5,rob ver 1A,2013-03-24 22:34:00,
2013-03-24 15:35:00,85.4,17.6,29.35,SSE,158,9.0,12.6,8,-99.99,,,0.00,672.6,rob ver 1B,2013-03-24 22:35:00,
2013-03-24 15:36:00,85.0,16.8,29.35,SE,140,7.9,11.9,7,-99.99,,,0.00,673.2,rob ver 1B,2013-03-24 22:36:00,
2013-03-24 15:37:00,84.9,17.0,29.35,SSE,160,7.3,11.7,7,-99.99,,,0.00,668.6,rob ver 1B,2013-03-24 22:37:00,
2013-03-24 15:38:00,84.7,17.0,29.35,South,189,5.7,8.3,8,-99.99,,,0.00,662.7,rob ver 1B,2013-03-24 22:38:00,
2013-03-24 15:39:00,80.8,8.8,29.38,WNW,285,10.0,12.0,6,-99.99,,,0.00,641.6,rob ver 1A,2013-03-24 22:39:00,
2013-03-24 15:40:00,84.9,17.4,29.35,SSE,159,5.7,8.2,8,-99.99,,,0.00,657.3,rob ver 1B,2013-03-24 22:40:00,
2013-03-24 15:41:00,84.7,17.2,29.35,SSE,154,2.9,6.1,8,-99.99,,,0.00,654,rob ver 1B,2013-03-24 22:41:00,
2013-03-24 15:42:00,85.2,18.1,29.35,SSW,201,5.7,8.7,8,-99.99,,,0.00,649,rob ver 1B,2013-03-24 22:42:00,
2013-03-24 15:43:00,85.3,18.0,29.35,SSE,166,2.0,4.1,8,-99.99,,,0.00,647.3,rob ver 1B,2013-03-24 22:43:00,
2013-03-24 15:44:00,81.0,8.8,29.35,North,7,8.4,11.1,6,-99.99,,,0.00,629.5,rob ver 1A,2013-03-24 22:44:00,
2013-03-24 15:45:00,85.6,18.2,29.35,WSW,240,7.3,11.2,8,-99.99,,,0.00,645.2,rob ver 1B,2013-03-24 22:45:00,
2013-03-24 15:46:00,85.0,18.2,29.35,West,265,5.8,7.7,8,-99.99,,,0.00,642.4,rob ver 1B,2013-03-24 22:46:00,
2013-03-24 15:47:00,84.8,18.2,29.35,West,277,3.3,7.4,8,-99.99,,,0.00,635.2,rob ver 1B,2013-03-24 22:47:00,
2013-03-24 15:48:00,85.0,18.4,29.35,SSW,203,5.1,8.0,8,-99.99,,,0.00,630.6,rob ver 1B,2013-03-24 22:48:00,
2013-03-24 15:49:00,85.3,18.3,29.35,South,190,7.4,9.3,8,-99.99,,,0.00,634.1,rob ver 1B,2013-03-24 22:49:00,
2013-03-24 15:50:00,81.1,8.9,29.35,NW,309,13.8,17.8,6,-99.99,,,0.00,613.6,rob ver 1A,2013-03-24 22:50:00,
2013-03-24 15:51:00,85.3,18.2,29.35,SSE,167,3.4,5.5,8,-99.99,,,0.00,628.7,rob ver 1B,2013-03-24 22:51:00,
2013-03-24 15:52:00,85.7,18.3,29.35,SSE,151,2.6,4.5,8,-99.99,,,0.00,620.6,rob ver 1B,2013-03-24 22:52:00,
2013-03-24 15:53:00,85.9,18.3,29.35,SSE,160,4.2,8.8,8,-99.99,,,0.00,621.3,rob ver 1B,2013-03-24 22:53:00,
2013-03-24 15:54:00,85.7,17.9,29.35,SSE,158,6.1,9.4,8,-99.99,,,0.00,608.5,rob ver 1B,2013-03-24 22:54:00,
2013-03-24 15:55:00,81.1,9.2,29.38,NW,321,4.9,8.1,6,-99.99,,,0.00,598.7,rob ver 1A,2013-03-24 22:55:00,
2013-03-24 15:56:00,85.4,17.8,29.35,South,170,6.4,11.5,8,-99.99,,,0.00,607.7,rob ver 1B,2013-03-24 22:56:00,
2013-03-24 15:57:00,84.9,17.5,29.35,SSE,154,7.1,11.6,8,-99.99,,,0.00,605.2,rob ver 1B,2013-03-24 22:57:00,
2013-03-24 15:58:00,84.7,17.5,29.35,South,172,5.6,9.2,8,-99.99,,,0.00,603.8,rob ver 1B,2013-03-24 22:58:00,
2013-03-24 15:59:00,84.8,17.5,29.35,South,173,7.1,9.4,8,-99.99,,,0.00,598.7,rob ver 1B,2013-03-24 22:59:00,
2013-03-24 16:00:00,80.7,9.0,29.38,NW,326,4.0,7.7,6,-99.99,,,0.00,582,rob ver 1A,2013-03-24 23:00:00,
2013-03-24 16:01:00,85.1,17.7,29.35,SSW,211,2.2,3.0,8,-99.99,,,0.00,589.5,rob ver 1B,2013-03-24 23:01:00,
2013-03-24 16:02:00,85.6,17.8,29.35,WNW,287,2.7,4.1,8,-99.99,,,0.00,585.6,rob ver 1B,2013-03-24 23:02:00,
2013-03-24 16:03:00,85.8,18.1,29.35,South,184,2.2,4.5,8,-99.99,,,0.00,579.2,rob ver 1B,2013-03-24 23:03:00,
2013-03-24 16:04:00,85.8,17.6,29.35,SSE,149,6.7,10.9,7,-99.99,,,0.00,578.2,rob ver 1B,2013-03-24 23:04:00,
2013-03-24 16:05:00,81.2,8.8,29.35,NW,310,8.0,13.9,6,-99.99,,,0.00,566.2,rob ver 1A,2013-03-24 23:05:00,
2013-03-24 16:06:00,85.4,17.7,29.35,SE,133,9.0,11.7,8,-99.99,,,0.00,566.6,rob ver 1B,2013-03-24 23:06:00,
2013-03-24 16:07:00,85.2,17.7,29.35,SE,138,9.3,12.2,8,-99.99,,,0.00,557.1,rob ver 1B,2013-03-24 23:07:00,
2013-03-24 16:08:00,85.1,17.5,29.35,SSE,147,8.4,11.6,8,-99.99,,,0.00,564.9,rob ver 1B,2013-03-24 23:08:00,
2013-03-24 16:09:00,85.1,17.5,29.35,South,175,8.3,11.4,8,-99.99,,,0.00,564,rob ver 1B,2013-03-24 23:09:00,
2013-03-24 16:10:00,81.4,8.8,29.35,WSW,244,5.2,7.5,6,-99.99,,,0.00,548.2,rob ver 1A,2013-03-24 23:10:00,
2013-03-24 16:11:00,84.7,17.2,29.35,SSE,147,4.8,10.2,8,-99.99,,,0.00,547.9,rob ver 1B,2013-03-24 23:11:00,
2013-03-24 16:12:00,85.0,17.5,29.35,South,189,7.8,9.8,8,-99.99,,,0.00,541.7,rob ver 1B,2013-03-24 23:12:00,
2013-03-24 16:13:00,85.4,17.4,29.35,South,175,8.8,10.4,8,-99.99,,,0.00,542,rob ver 1B,2013-03-24 23:13:00,
2013-03-24 16:14:00,85.5,17.3,29.35,SE,136,10.0,12.5,7,-99.99,,,0.00,536.9,rob ver 1B,2013-03-24 23:14:00,
2013-03-24 16:15:00,81.2,8.9,29.35,NW,307,3.6,5.9,6,-99.99,,,0.00,531.2,rob ver 1A,2013-03-24 23:15:00,
2013-03-24 16:16:00,84.8,17.1,29.35,SSE,163,11.1,15.2,8,-99.99,,,0.00,530.2,rob ver 1B,2013-03-24 23:16:00,
2013-03-24 16:17:00,84.7,17.1,29.35,South,171,7.3,10.1,8,-99.99,,,0.00,530,rob ver 1B,2013-03-24 23:17:00,
2013-03-24 16:18:00,84.8,17.2,29.35,SSE,163,4.7,7.4,8,-99.99,,,0.00,510.7,rob ver 1B,2013-03-24 23:18:00,
2013-03-24 16:19:00,84.9,17.1,29.35,SSE,165,2.7,8.7,8,-99.99,,,0.00,519.9,rob ver 1B,2013-03-24 23:19:00,
2013-03-24 16:20:00,81.4,9.1,29.35,WNW,290,12.5,15.0,6,-99.99,,,0.00,513.3,rob ver 1A,2013-03-24 23:20:00,
2013-03-24 16:21:00,85.3,17.5,29.35,SSE,150,7.6,10.2,7,-99.99,,,0.00,509.4,rob ver 1B,2013-03-24 23:21:00,
2013-03-24 16:22:00,85.5,17.3,29.35,SSE,161,7.5,10.4,7,-99.99,,,0.00,506,rob ver 1B,2013-03-24 23:22:00,
2013-03-24 16:23:00,85.1,17.1,29.35,SSE,148,5.9,7.6,7,-99.99,,,0.00,492.2,rob ver 1B,2013-03-24 23:23:00,
2013-03-24 16:24:00,84.8,17.1,29.35,SSE,153,5.3,8.3,8,-99.99,,,0.00,490.9,rob ver 1B,2013-03-24 23:24:00,
2013-03-24 16:25:00,80.7,9.2,29.35,WNW,301,7.3,10.3,6,-99.99,,,0.00,497.6,rob ver 1A,2013-03-24 23:25:00,
2013-03-24 16:26:00,84.7,17.0,29.35,SE,137,6.0,8.0,8,-99.99,,,0.00,472.2,rob ver 1B,2013-03-24 23:26:00,
2013-03-24 16:27:00,84.5,16.9,29.35,South,169,3.2,4.9,8,-99.99,,,0.00,464.2,rob ver 1B,2013-03-24 23:27:00,
2013-03-24 16:28:00,84.8,17.0,29.35,SSW,210,1.8,3.0,7,-99.99,,,0.00,455.4,rob ver 1B,2013-03-24 23:28:00,
2013-03-24 16:29:00,85.2,17.1,29.35,SSW,195,1.8,3.2,7,-99.99,,,0.00,454.4,rob ver 1B,2013-03-24 23:29:00,
2013-03-24 16:30:00,81.1,9.4,29.35,NNW,327,7.2,9.0,6,-99.99,,,0.00,479.7,rob ver 1A,2013-03-24 23:30:00,
2013-03-24 16:31:00,85.6,17.1,29.35,SSE,164,7.4,9.2,7,-99.99,,,0.00,492.4,rob ver 1B,2013-03-24 23:31:00,
2013-03-24 16:32:00,85.5,17.0,29.35,SSE,159,6.6,8.4,7,-99.99,,,0.00,488.4,rob ver 1B,2013-03-24 23:32:00,
2013-03-24 16:33:00,85.4,17.1,29.35,South,183,4.8,8.7,7,-99.99,,,0.00,488.9,rob ver 1B,2013-03-24 23:33:00,
2013-03-24 16:34:00,85.7,17.0,29.35,South,174,8.2,9.6,7,-99.99,,,0.00,448.8,rob ver 1B,2013-03-24 23:34:00,
2013-03-24 16:35:00,85.5,16.9,29.35,SSE,161,5.9,6.7,7,-99.99,,,0.00,434.1,rob ver 1B,2013-03-24 23:35:00,
2013-03-24 16:36:00,80.8,9.8,29.35,NW,313,6.0,9.9,6,-99.99,,,0.00,465.3,rob ver 1A,2013-03-24 23:36:00,
2013-03-24 16:37:00,84.9,16.6,29.35,SSE,168,5.3,8.6,7,-99.99,,,0.00,421.5,rob ver 1B,2013-03-24 23:37:00,
2013-03-24 16:38:00,85.1,16.8,29.35,SSE,165,8.4,11.2,7,-99.99,,,0.00,417.7,rob ver 1B,2013-03-24 23:38:00,
2013-03-24 16:39:00,84.9,16.5,29.35,SSE,159,7.0,11.4,7,-99.99,,,0.00,387.1,rob ver 1B,2013-03-24 23:39:00,
2013-03-24 16:40:00,84.9,16.5,29.35,South,186,8.4,10.9,7,-99.99,,,0.00,382.3,rob ver 1B,2013-03-24 23:40:00,
2013-03-24 16:41:00,81.4,9.8,29.35,NW,322,4.5,6.4,6,-99.99,,,0.00,445.5,rob ver 1A,2013-03-24 23:41:00,
2013-03-24 16:42:00,85.0,16.3,29.35,South,177,7.0,9.9,7,-99.99,,,0.00,396.1,rob ver 1B,2013-03-24 23:42:00,
2013-03-24 16:43:00,85.1,16.4,29.35,South,178,6.8,9.4,7,-99.99,,,0.00,335.8,rob ver 1B,2013-03-24 23:43:00,
2013-03-24 16:44:00,85.0,16.3,29.35,South,177,6.5,11.3,7,-99.99,,,0.00,277,rob ver 1B,2013-03-24 23:44:00,
2013-03-24 16:45:00,85.1,16.3,29.35,SSW,213,7.9,11.5,7,-99.99,,,0.00,277.1,rob ver 1B,2013-03-24 23:45:00,
2013-03-24 16:46:00,80.9,9.2,29.35,WNW,283,9.5,11.2,6,-99.99,,,0.00,427,rob ver 1A,2013-03-24 23:46:00,
2013-03-24 16:47:00,84.7,15.8,29.35,South,179,7.8,10.5,7,-99.99,,,0.00,258.3,rob ver 1B,2013-03-24 23:47:00,
2013-03-24 16:48:00,84.5,15.8,29.35,South,182,5.6,7.1,7,-99.99,,,0.00,288,rob ver 1B,2013-03-24 23:48:00,
2013-03-24 16:49:00,84.5,15.9,29.35,South,178,5.5,7.2,7,-99.99,,,0.00,272.9,rob ver 1B,2013-03-24 23:49:00,
2013-03-24 16:50:00,84.7,16.1,29.35,South,181,5.4,7.0,7,-99.99,,,0.00,271.6,rob ver 1B,2013-03-24 23:50:00,
2013-03-24 16:51:00,80.9,9.5,29.35,WNW,293,8.8,13.7,6,-99.99,,,0.00,409.9,rob ver 1A,2013-03-24 23:51:00,
2013-03-24 16:52:00,85.0,15.7,29.35,SSE,159,8.0,9.6,7,-99.99,,,0.00,229.3,rob ver 1B,2013-03-24 23:52:00,
2013-03-24 16:53:00,84.6,15.5,29.35,SSE,156,7.6,9.0,7,-99.99,,,0.00,208.7,rob ver 1B,2013-03-24 23:53:00,
2013-03-24 16:54:00,84.3,15.5,29.35,South,173,4.8,6.7,7,-99.99,,,0.00,178,rob ver 1B,2013-03-24 23:54:00,
2013-03-24 16:55:00,84.3,15.5,29.35,South,185,3.1,4.8,7,-99.99,,,0.00,189,rob ver 1B,2013-03-24 23:55:00,
2013-03-24 16:56:00,80.7,9.5,29.35,WNW,293,8.7,13.6,6,-99.99,,,0.00,386.7,rob ver 1A,2013-03-24 23:56:00,
2013-03-24 16:57:00,84.3,15.3,29.35,SSW,211,6.4,8.0,7,-99.99,,,0.00,201.8,rob ver 1B,2013-03-24 23:57:00,
2013-03-24 16:58:00,84.2,15.4,29.35,SSW,205,4.7,6.6,7,-99.99,,,0.00,185.7,rob ver 1B,2013-03-24 23:58:00,
2013-03-24 16:59:00,84.3,15.4,29.35,SW,217,5.5,7.4,7,-99.99,,,0.00,164.1,rob ver 1B,2013-03-24 23:59:00,
2013-03-24 17:00:00,84.3,15.3,29.35,South,191,6.8,8.6,7,-99.99,,,0.00,168.1,rob ver 1B,2013-03-25 00:00:00,
2013-03-24 17:01:00,81.0,9.4,29.35,West,266,9.3,11.7,6,-99.99,,,0.00,368.6,rob ver 1A,2013-03-25 00:01:00,
2013-03-24 17:02:00,84.3,15.0,29.35,South,176,7.7,11.0,7,-99.99,,,0.00,157.9,rob ver 1B,2013-03-25 00:02:00,
2013-03-24 17:03:00,84.2,14.8,29.32,South,174,7.6,9.3,7,-99.99,,,0.00,156.9,rob ver 1B,2013-03-25 00:03:00,
2013-03-24 17:04:00,84.1,14.8,29.32,South,173,5.4,7.1,7,-99.99,,,0.00,138.9,rob ver 1B,2013-03-25 00:04:00,
2013-03-24 17:05:00,84.1,14.8,29.35,South,170,4.5,5.6,7,-99.99,,,0.00,132,rob ver 1B,2013-03-25 00:05:00,
2013-03-24 17:06:00,80.7,9.8,29.35,West,280,10.1,13.0,6,-99.99,,,0.00,350.6,rob ver 1A,2013-03-25 00:06:00,
2013-03-24 17:07:00,84.4,14.6,29.35,SSW,192,6.7,9.3,7,-99.99,,,0.00,144.5,rob ver 1B,2013-03-25 00:07:00,
2013-03-24 17:08:00,84.4,14.5,29.35,South,190,8.2,11.8,7,-99.99,,,0.00,154.3,rob ver 1B,2013-03-25 00:08:00,
2013-03-24 17:09:00,84.3,14.4,29.35,SSW,199,7.6,9.2,7,-99.99,,,0.00,159.9,rob ver 1B,2013-03-25 00:09:00,
2013-03-24 17:10:00,84.2,14.4,29.32,SSW,197,7.4,8.7,7,-99.99,,,0.00,173.8,rob ver 1B,2013-03-25 00:10:00,
2013-03-24 17:11:00,84.3,14.5,29.32,SSW,213,7.1,9.1,7,-99.99,,,0.00,185.4,rob ver 1B,2013-03-25 00:11:00,
2013-03-24 17:12:00,81.1,10.0,29.35,West,279,10.5,14.6,6,-99.99,,,0.00,331.8,rob ver 1A,2013-03-25 00:12:00,
2013-03-24 17:13:00,84.3,14.5,29.32,SSW,203,7.1,9.3,7,-99.99,,,0.00,192.3,rob ver 1B,2013-03-25 00:13:00,
2013-03-24 17:14:00,84.3,14.5,29.32,SSW,207,7.5,9.0,7,-99.99,,,0.00,194.9,rob ver 1B,2013-03-25 00:14:00,
2013-03-24 17:15:00,84.4,14.6,29.35,SSW,194,7.1,8.7,7,-99.99,,,0.00,191,rob ver 1B,2013-03-25 00:15:00,
2013-03-24 17:16:00,84.5,14.5,29.35,SSW,196,6.2,7.5,7,-99.99,,,0.00,197.6,rob ver 1B,2013-03-25 00:16:00,
2013-03-24 17:17:00,80.7,9.9,29.35,West,269,12.7,15.8,6,-99.99,,,0.00,313.8,rob ver 1A,2013-03-25 00:17:00,
2013-03-24 17:18:00,84.4,14.4,29.32,South,173,8.4,10.2,7,-99.99,,,0.00,244.7,rob ver 1B,2013-03-25 00:18:00,
2013-03-24 17:19:00,84.2,14.4,29.32,SSW,192,7.1,8.9,7,-99.99,,,0.00,269.6,rob ver 1B,2013-03-25 00:19:00,
2013-03-24 17:20:00,84.3,14.5,29.32,South,186,3.9,6.0,7,-99.99,,,0.00,280.9,rob ver 1B,2013-03-25 00:20:00,
2013-03-24 17:21:00,84.6,14.6,29.32,SSW,208,3.7,4.7,7,-99.99,,,0.00,274.2,rob ver 1B,2013-03-25 00:21:00,
2013-03-24 17:22:00,81.1,10.1,29.35,WNW,289,8.3,11.4,6,-99.99,,,0.00,295.6,rob ver 1A,2013-03-25 00:22:00,
2013-03-24 17:23:00,85.0,14.8,29.32,South,175,6.2,9.8,7,-99.99,,,0.00,310.6,rob ver 1B,2013-03-25 00:23:00,
2013-03-24 17:24:00,85.0,14.6,29.35,SSE,164,5.8,8.3,7,-99.99,,,0.00,331.9,rob ver 1B,2013-03-25 00:24:00,
2013-03-24 17:25:00,85.0,14.6,29.32,South,174,7.3,10.4,7,-99.99,,,0.00,345.7,rob ver 1B,2013-03-25 00:25:00,
2013-03-24 17:26:00,85.2,14.6,29.32,SSE,157,8.0,10.7,7,-99.99,,,0.00,359.1,rob ver 1B,2013-03-25 00:26:00,
2013-03-24 17:27:00,81.0,10.2,29.35,NW,306,11.6,14.5,6,-99.99,,,0.00,276.2,rob ver 1A,2013-03-25 00:27:00,
2013-03-24 17:28:00,84.7,14.2,29.32,SSE,162,6.9,8.4,7,-99.99,,,0.00,359.8,rob ver 1B,2013-03-25 00:28:00,
2013-03-24 17:29:00,84.8,14.2,29.32,South,169,6.3,7.9,7,-99.99,,,0.00,358.8,rob ver 1B,2013-03-25 00:29:00,
2013-03-24 17:30:00,84.8,14.3,29.32,South,173,6.3,8.1,7,-99.99,,,0.00,356.7,rob ver 1B,2013-03-25 00:30:00,
2013-03-24 17:31:00,85.1,14.5,29.32,South,173,6.8,8.3,7,-99.99,,,0.00,350.9,rob ver 1B,2013-03-25 00:31:00,
2013-03-24 17:32:00,80.3,10.3,29.35,NW,304,9.5,12.2,6,-99.99,,,0.00,257.6,rob ver 1A,2013-03-25 00:32:00,
2013-03-24 17:33:00,85.2,14.2,29.32,SSE,149,8.7,11.2,6,-99.99,,,0.00,341.1,rob ver 1B,2013-03-25 00:33:00,
2013-03-24 17:34:00,85.1,14.2,29.32,SSE,159,7.0,8.3,7,-99.99,,,0.00,333.2,rob ver 1B,2013-03-25 00:34:00,
2013-03-24 17:35:00,85.1,14.3,29.32,SE,145,6.8,8.6,6,-99.99,,,0.00,320.1,rob ver 1B,2013-03-25 00:35:00,
2013-03-24 17:36:00,85.1,14.1,29.32,South,172,7.8,9.3,6,-99.99,,,0.00,318.5,rob ver 1B,2013-03-25 00:36:00,
2013-03-24 17:37:00,80.2,10.6,29.35,WNW,299,5.5,6.5,6,-99.99,,,0.00,234.6,rob ver 1A,2013-03-25 00:37:00,
2013-03-24 17:38:00,84.9,14.1,29.32,SSE,162,6.6,9.7,7,-99.99,,,0.00,302.3,rob ver 1B,2013-03-25 00:38:00,
2013-03-24 17:39:00,84.9,14.2,29.32,SSE,154,9.8,11.1,7,-99.99,,,0.00,292.8,rob ver 1B,2013-03-25 00:39:00,
2013-03-24 17:40:00,84.6,14.1,29.32,SSE,158,7.4,8.7,7,-99.99,,,0.00,278.8,rob ver 1B,2013-03-25 00:40:00,
2013-03-24 17:41:00,84.5,14.1,29.32,SSE,161,6.1,7.7,7,-99.99,,,0.00,284.6,rob ver 1B,2013-03-25 00:41:00,
2013-03-24 17:42:00,80.3,10.6,29.35,NW,312,11.0,14.0,6,-99.99,,,0.00,215.6,rob ver 1A,2013-03-25 00:42:00,
2013-03-24 17:43:00,84.7,14.0,29.32,SSE,152,6.9,8.7,6,-99.99,,,0.00,269.8,rob ver 1B,2013-03-25 00:43:00,
2013-03-24 17:44:00,84.6,13.9,29.32,SE,144,5.7,9.0,7,-99.99,,,0.00,263.4,rob ver 1B,2013-03-25 00:44:00,
2013-03-24 17:45:00,84.7,14.0,29.32,SE,141,7.0,10.1,6,-99.99,,,0.00,257.2,rob ver 1B,2013-03-25 00:45:00,
2013-03-24 17:46:00,84.8,14.1,29.32,SSE,150,5.5,6.7,7,-99.99,,,0.00,251.3,rob ver 1B,2013-03-25 00:46:00,
2013-03-24 17:47:00,79.9,10.7,29.35,NNW,329,6.1,7.5,7,-99.99,,,0.00,198,rob ver 1A,2013-03-25 00:47:00,
2013-03-24 17:48:00,85.1,13.9,29.32,South,190,6.4,8.4,6,-99.99,,,0.00,239.9,rob ver 1B,2013-03-25 00:48:00,
2013-03-24 17:49:00,85.1,13.8,29.32,South,184,5.5,6.8,6,-99.99,,,0.00,233.6,rob ver 1B,2013-03-25 00:49:00,
2013-03-24 17:50:00,85.1,13.9,29.32,South,176,5.2,6.0,6,-99.99,,,0.00,227.4,rob ver 1B,2013-03-25 00:50:00,
2013-03-24 17:51:00,85.2,13.9,29.32,South,179,5.5,6.4,6,-99.99,,,0.00,222.8,rob ver 1B,2013-03-25 00:51:00,
2013-03-24 17:52:00,80.0,10.9,29.35,NW,308,8.2,12.5,7,-99.99,,,0.00,179.3,rob ver 1A,2013-03-25 00:52:00,
2013-03-24 17:53:00,85.3,13.9,29.32,SSE,150,6.2,9.8,6,-99.99,,,0.00,163.5,rob ver 1B,2013-03-25 00:53:00,
2013-03-24 17:54:00,85.0,13.6,29.32,SSE,158,8.2,9.5,6,-99.99,,,0.00,201.7,rob ver 1B,2013-03-25 00:54:00,
2013-03-24 17:55:00,84.7,13.5,29.32,South,171,6.6,8.2,6,-99.99,,,0.00,190.7,rob ver 1B,2013-03-25 00:55:00,
2013-03-24 17:56:00,84.7,13.4,29.32,SSE,168,7.3,9.7,6,-99.99,,,0.00,189.6,rob ver 1B,2013-03-25 00:56:00,
2013-03-24 17:57:00,84.8,13.5,29.32,South,171,8.4,9.8,6,-99.99,,,0.00,179.9,rob ver 1B,2013-03-25 00:57:00,
2013-03-24 17:58:00,79.8,10.7,29.35,WNW,303,8.2,9.9,7,-99.99,,,0.00,161.6,rob ver 1A,2013-03-25 00:58:00,
2013-03-24 17:59:00,84.8,13.8,29.32,SE,142,7.8,9.5,7,-99.99,,,0.00,163.5,rob ver 1B,2013-03-25 00:59:00,
2013-03-24 18:00:00,84.6,13.7,29.32,SE,128,6.7,7.7,6,-99.99,,,0.00,150.7,rob ver 1B,2013-03-25 01:00:00,
2013-03-24 18:01:00,84.4,13.6,29.32,SE,135,4.9,6.4,7,-99.99,,,0.00,130.7,rob ver 1B,2013-03-25 01:01:00,
2013-03-24 18:02:00,84.4,13.9,29.32,SSE,162,5.9,9.9,7,-99.99,,,0.00,123.2,rob ver 1B,2013-03-25 01:02:00,
2013-03-24 18:03:00,79.7,10.9,29.35,NW,310,11.8,13.3,7,-99.99,,,0.00,143.6,rob ver 1A,2013-03-25 01:03:00,
2013-03-24 18:04:00,84.4,13.8,29.32,South,179,9.3,12.1,7,-99.99,,,0.00,83.6,rob ver 1B,2013-03-25 01:04:00,
2013-03-24 18:05:00,84.3,13.8,29.32,South,182,7.4,9.7,7,-99.99,,,0.00,73.1,rob ver 1B,2013-03-25 01:05:00,
2013-03-24 18:06:00,84.3,14.0,29.32,South,179,8.0,9.6,7,-99.99,,,0.00,75,rob ver 1B,2013-03-25 01:06:00,
2013-03-24 18:07:00,84.2,13.9,29.32,SSE,164,8.1,10.1,7,-99.99,,,0.00,74.1,rob ver 1B,2013-03-25 01:07:00,
2013-03-24 18:08:00,79.5,10.9,29.35,NW,308,11.4,13.6,7,-99.99,,,0.00,126.2,rob ver 1A,2013-03-25 01:08:00,
2013-03-24 18:09:00,84.0,13.9,29.32,South,175,6.4,7.5,7,-99.99,,,0.00,93.6,rob ver 1B,2013-03-25 01:09:00,
2013-03-24 18:10:00,83.9,14.0,29.32,South,181,6.9,8.5,7,-99.99,,,0.00,92.7,rob ver 1B,2013-03-25 01:10:00,
2013-03-24 18:11:00,84.0,14.2,29.32,SSE,168,7.4,8.9,7,-99.99,,,0.00,94,rob ver 1B,2013-03-25 01:11:00,
2013-03-24 18:12:00,83.9,14.3,29.32,SSE,160,7.1,8.1,7,-99.99,,,0.00,96.7,rob ver 1B,2013-03-25 01:12:00,
2013-03-24 18:13:00,79.3,10.9,29.35,WNW,287,9.9,11.3,7,-99.99,,,0.00,110.1,rob ver 1A,2013-03-25 01:13:00,
2013-03-24 18:14:00,83.9,14.3,29.32,SSE,148,9.3,11.3,7,-99.99,,,0.00,99.8,rob ver 1B,2013-03-25 01:14:00,
2013-03-24 18:15:00,83.8,14.5,29.32,SSE,153,9.1,10.2,7,-99.99,,,0.00,105.5,rob ver 1B,2013-03-25 01:15:00,
2013-03-24 18:16:00,83.7,14.4,29.32,SSE,147,9.3,10.9,7,-99.99,,,0.00,109.4,rob ver 1B,2013-03-25 01:16:00,
2013-03-24 18:17:00,83.7,14.4,29.32,SSE,157,8.0,10.0,7,-99.99,,,0.00,105.3,rob ver 1B,2013-03-25 01:17:00,
2013-03-24 18:18:00,79.2,10.9,29.35,WNW,297,7.0,9.0,7,-99.99,,,0.00,90.6,rob ver 1A,2013-03-25 01:18:00,
2013-03-24 18:19:00,83.8,14.5,29.32,SSE,164,8.3,9.6,7,-99.99,,,0.00,100.3,rob ver 1B,2013-03-25 01:19:00,
2013-03-24 18:20:00,83.8,14.5,29.32,SSE,161,7.0,8.6,7,-99.99,,,0.00,99.3,rob ver 1B,2013-03-25 01:20:00,
2013-03-24 18:21:00,83.8,14.6,29.32,SSE,167,7.3,8.4,7,-99.99,,,0.00,101.6,rob ver 1B,2013-03-25 01:21:00,
2013-03-24 18:22:00,83.8,14.6,29.32,SSE,163,8.3,9.3,7,-99.99,,,0.00,100.6,rob ver 1B,2013-03-25 01:22:00,
2013-03-24 18:23:00,79.1,11.2,29.35,WNW,297,11.0,13.0,7,-99.99,,,0.00,74.7,rob ver 1A,2013-03-25 01:23:00,
2013-03-24 18:24:00,83.8,14.6,29.32,SSE,150,6.1,7.1,7,-99.99,,,0.00,76.3,rob ver 1B,2013-03-25 01:24:00,
2013-03-24 18:25:00,83.8,14.3,29.32,SSE,154,5.4,6.4,7,-99.99,,,0.00,80,rob ver 1B,2013-03-25 01:25:00,
2013-03-24 18:26:00,83.7,14.2,29.32,SSE,162,5.5,6.3,7,-99.99,,,0.00,79.6,rob ver 1B,2013-03-25 01:26:00,
2013-03-24 18:27:00,83.7,14.2,29.32,SSE,161,5.3,6.5,7,-99.99,,,0.00,79.3,rob ver 1B,2013-03-25 01:27:00,
2013-03-24 18:28:00,78.9,11.3,29.35,WNW,303,9.3,10.7,7,-99.99,,,0.00,58.68,rob ver 1A,2013-03-25 01:28:00,
2013-03-24 18:29:00,83.6,14.3,29.32,SSE,160,5.8,7.0,7,-99.99,,,0.00,70.8,rob ver 1B,2013-03-25 01:29:00,
2013-03-24 18:30:00,83.6,14.3,29.32,SSE,151,5.1,5.8,7,-99.99,,,0.00,66.19,rob ver 1B,2013-03-25 01:30:00,
2013-03-24 18:31:00,83.5,14.4,29.32,SE,145,4.5,5.2,7,-99.99,,,0.00,63.08,rob ver 1B,2013-03-25 01:31:00,
2013-03-24 18:32:00,83.5,14.4,29.32,SE,139,4.7,5.7,7,-99.99,,,0.00,57.34,rob ver 1B,2013-03-25 01:32:00,
2013-03-24 18:33:00,78.6,11.3,29.35,WNW,287,7.5,8.7,7,-99.99,,,0.00,44.26,rob ver 1A,2013-03-25 01:33:00,
2013-03-24 18:34:00,83.3,14.4,29.32,SSE,150,5.0,5.8,7,-99.99,,,0.00,43.58,rob ver 1B,2013-03-25 01:34:00,
2013-03-24 18:35:00,83.2,14.4,29.32,SSE,149,4.5,5.3,7,-99.99,,,0.00,38.34,rob ver 1B,2013-03-25 01:35:00,
2013-03-24 18:36:00,83.2,14.4,29.32,SSE,150,4.2,5.1,7,-99.99,,,0.00,34.41,rob ver 1B,2013-03-25 01:36:00,
2013-03-24 18:37:00,83.1,14.4,29.32,SSE,148,4.3,5.5,7,-99.99,,,0.00,28.18,rob ver 1B,2013-03-25 01:37:00,
2013-03-24 18:38:00,78.4,11.6,29.35,WNW,303,8.2,10.0,7,-99.99,,,0.00,30.82,rob ver 1A,2013-03-25 01:38:00,
2013-03-24 18:39:00,82.9,14.4,29.32,SE,142,4.8,6.0,7,-99.99,,,0.00,20.97,rob ver 1B,2013-03-25 01:39:00,
2013-03-24 18:40:00,82.8,14.4,29.32,SE,146,4.2,5.0,7,-99.99,,,0.00,19.01,rob ver 1B,2013-03-25 01:40:00,
2013-03-24 18:41:00,82.7,14.4,29.32,SSE,148,4.5,5.5,7,-99.99,,,0.00,18.84,rob ver 1B,2013-03-25 01:41:00,
2013-03-24 18:42:00,82.7,14.3,29.32,SE,143,3.8,4.6,7,-99.99,,,0.00,20.64,rob ver 1B,2013-03-25 01:42:00,
2013-03-24 18:43:00,82.6,14.3,29.35,SE,140,3.8,4.5,7,-99.99,,,0.00,19.66,rob ver 1B,2013-03-25 01:43:00,
2013-03-24 18:44:00,78.2,11.9,29.35,NW,306,9.2,11.5,7,-99.99,,,0.00,17.7,rob ver 1A,2013-03-25 01:44:00,
2013-03-24 18:45:00,82.5,14.4,29.32,SE,143,3.6,4.5,7,-99.99,,,0.00,15.07,rob ver 1B,2013-03-25 01:45:00,
2013-03-24 18:46:00,82.4,14.4,29.32,SE,143,3.3,3.8,7,-99.99,,,0.00,12.45,rob ver 1B,2013-03-25 01:46:00,
2013-03-24 18:47:00,82.2,14.3,29.32,SE,145,3.6,4.6,7,-99.99,,,0.00,10.49,rob ver 1B,2013-03-25 01:47:00,
2013-03-24 18:48:00,82.1,14.3,29.32,SSE,151,4.2,5.1,7,-99.99,,,0.00,8.85,rob ver 1B,2013-03-25 01:48:00,
2013-03-24 18:49:00,77.5,11.9,29.35,NW,311,8.9,11.2,8,-99.99,,,0.00,8.85,rob ver 1A,2013-03-25 01:49:00,
2013-03-24 18:50:00,82.0,14.3,29.32,SSE,155,4.1,4.4,7,-99.99,,,0.00,6.39,rob ver 1B,2013-03-25 01:50:00,
2013-03-24 18:51:00,81.9,14.3,29.32,SSE,164,3.7,4.2,7,-99.99,,,0.00,5.243,rob ver 1B,2013-03-25 01:51:00,
2013-03-24 18:52:00,81.9,14.3,29.32,SSE,162,3.2,3.4,7,-99.99,,,0.00,4.26,rob ver 1B,2013-03-25 01:52:00,
2013-03-24 18:53:00,81.8,14.3,29.32,SSE,156,3.2,3.5,7,-99.99,,,0.00,3.605,rob ver 1B,2013-03-25 01:53:00,
2013-03-24 18:54:00,77.4,11.9,29.35,NW,307,8.8,10.1,8,-99.99,,,0.00,4.262,rob ver 1A,2013-03-25 01:54:00,
2013-03-24 18:55:00,81.5,14.1,29.32,SSE,162,2.9,3.6,7,-99.99,,,0.00,2.622,rob ver 1B,2013-03-25 01:55:00,
2013-03-24 18:56:00,81.4,14.1,29.35,SSE,158,3.2,3.7,7,-99.99,,,0.00,2.13,rob ver 1B,2013-03-25 01:56:00,
2013-03-24 18:57:00,81.2,14.0,29.35,SSE,160,3.6,4.1,7,-99.99,,,0.00,1.639,rob ver 1B,2013-03-25 01:57:00,
2013-03-24 18:58:00,81.1,14.0,29.35,SSE,157,3.5,3.8,7,-99.99,,,0.00,1.475,rob ver 1B,2013-03-25 01:58:00,
2013-03-24 18:59:00,77.2,12.0,29.35,NW,306,7.7,9.4,8,-99.99,,,0.00,2.295,rob ver 1A,2013-03-25 01:59:00,
2013-03-24 19:00:00,80.9,14.0,29.32,SSE,152,3.4,3.6,8,-99.99,,,0.00,.983,rob ver 1B,2013-03-25 02:00:00,
2013-03-24 19:01:00,80.8,14.1,29.32,SSE,153,3.4,3.7,7,-99.99,,,0.00,.983,rob ver 1B,2013-03-25 02:01:00,
2013-03-24 19:02:00,80.8,14.1,29.35,SSE,154,3.4,3.6,8,-99.99,,,0.00,.983,rob ver 1B,2013-03-25 02:02:00,
2013-03-24 19:03:00,80.7,14.1,29.35,SSE,155,3.2,3.4,8,-99.99,,,0.00,.656,rob ver 1B,2013-03-25 02:03:00,
2013-03-24 19:04:00,77.0,12.0,29.35,NW,304,7.5,9.7,8,-99.99,,,0.00,.984,rob ver 1A,2013-03-25 02:04:00,
2013-03-24 19:05:00,80.4,14.1,29.35,SSE,151,3.3,3.5,8,-99.99,,,0.00,.328,rob ver 1B,2013-03-25 02:05:00,
2013-03-24 19:06:00,80.3,14.1,29.35,SSE,150,3.3,3.6,8,-99.99,,,0.00,.328,rob ver 1B,2013-03-25 02:06:00,
2013-03-24 19:07:00,80.2,14.0,29.32,SE,145,3.2,3.4,8,-99.99,,,0.00,.328,rob ver 1B,2013-03-25 02:07:00,
2013-03-24 19:08:00,80.1,14.0,29.35,SSE,147,3.2,3.4,8,-99.99,,,0.00,.328,rob ver 1B,2013-03-25 02:08:00,
2013-03-24 19:09:00,76.7,12.1,29.35,NW,308,7.7,9.0,8,-99.99,,,0.00,.328,rob ver 1A,2013-03-25 02:09:00,
2013-03-24 19:10:00,80.0,14.1,29.35,SE,146,3.6,4.1,8,-99.99,,,0.00,0,rob ver 1B,2013-03-25 02:10:00,
2013-03-24 19:11:00,80.1,14.1,29.35,SSE,150,3.7,4.3,8,-99.99,,,0.00,0,rob ver 1B,2013-03-25 02:11:00,
2013-03-24 19:12:00,80.1,14.1,29.35,SSE,150,3.9,4.4,8,-99.99,,,0.00,0,rob ver 1B,2013-03-25 02:12:00,
2013-03-24 19:13:00,80.1,14.1,29.32,SSE,148,3.9,4.2,8,-99.99,,,0.00,0,rob ver 1B,2013-03-25 02:13:00,
2013-03-24 19:14:00,76.4,12.1,29.35,NW,307,6.8,7.9,8,-99.99,,,0.00,0,rob ver 1A,2013-03-25 02:14:00,
2013-03-24 19:15:00,79.8,14.1,29.32,SSE,149,4.2,4.5,8,-99.99,,,0.00,0,rob ver 1B,2013-03-25 02:15:00,
2013-03-24 19:16:00,79.7,14.1,29.35,SSE,151,4.3,4.5,8,-99.99,,,0.00,0,rob ver 1B,2013-03-25 02:16:00,
2013-03-24 19:17:00,79.6,14.1,29.35,SSE,151,4.3,4.6,8,-99.99,,,0.00,0,rob ver 1B,2013-03-25 02:17:00,
2013-03-24 19:18:00,79.5,14.1,29.35,SSE,147,4.0,4.3,8,-99.99,,,0.00,0,rob ver 1B,2013-03-25 02:18:00,
2013-03-24 19:19:00,76.0,12.1,29.35,NW,309,7.1,8.0,8,-99.99,,,0.00,0,rob ver 1A,2013-03-25 02:19:00,
2013-03-24 19:20:00,79.3,14.0,29.35,SE,145,4.2,4.4,8,-99.99,,,0.00,0,rob ver 1B,2013-03-25 02:20:00,
2013-03-24 19:21:00,79.2,14.0,29.32,SSE,151,4.5,4.9,8,-99.99,,,0.00,0,rob ver 1B,2013-03-25 02:21:00,
2013-03-24 19:22:00,79.1,14.0,29.35,SSE,148,4.8,5.2,8,-99.99,,,0.00,0,rob ver 1B,2013-03-25 02:22:00,
2013-03-24 19:23:00,79.2,14.1,29.35,SE,144,4.6,5.0,8,-99.99,,,0.00,0,rob ver 1B,2013-03-25 02:23:00,
2013-03-24 19:24:00,75.4,12.1,29.35,NW,316,5.5,6.3,8,-99.99,,,0.00,0,rob ver 1A,2013-03-25 02:24:00,
2013-03-24 19:25:00,79.1,14.2,29.35,SE,144,4.5,5.5,8,-99.99,,,0.00,0,rob ver 1B,2013-03-25 02:25:00,
2013-03-24 19:26:00,79.2,14.4,29.35,SE,143,4.7,6.1,8,-99.99,,,0.00,0,rob ver 1B,2013-03-25 02:26:00,
2013-03-24 19:27:00,79.1,14.7,29.35,SSE,151,4.4,5.6,8,-99.99,,,0.00,0,rob ver 1B,2013-03-25 02:27:00,
2013-03-24 19:28:00,79.1,14.8,29.35,SSE,150,4.3,4.9,8,-99.99,,,0.00,0,rob ver 1B,2013-03-25 02:28:00,
2013-03-24 19:29:00,75.0,12.0,29.35,NW,312,5.4,6.2,8,-99.99,,,0.00,0,rob ver 1A,2013-03-25 02:29:00,
2013-03-24 19:30:00,78.9,14.7,29.35,SSE,151,3.8,4.7,8,-99.99,,,0.00,0,rob ver 1B,2013-03-25 02:30:00,
2013-03-24 19:31:00,78.7,14.7,29.35,SSE,155,4.2,4.9,8,-99.99,,,0.00,0,rob ver 1B,2013-03-25 02:31:00,
2013-03-24 19:32:00,78.6,14.8,29.35,SSE,157,4.2,5.1,8,-99.99,,,0.00,0,rob ver 1B,2013-03-25 02:32:00,
2013-03-24 19:33:00,78.4,14.9,29.35,SSE,160,4.3,4.9,9,-99.99,,,0.00,0,rob ver 1B,2013-03-25 02:33:00,
2013-03-24 19:34:00,78.3,14.9,29.35,SSE,155,3.9,4.4,9,-99.99,,,0.00,0,rob ver 1B,2013-03-25 02:34:00,
2013-03-24 19:35:00,74.6,11.9,29.35,NW,314,5.7,7.0,8,-99.99,,,0.00,0,rob ver 1A,2013-03-25 02:35:00,
2013-03-24 19:36:00,78.0,14.8,29.35,SE,146,3.3,3.8,9,-99.99,,,0.00,0,rob ver 1B,2013-03-25 02:36:00,
2013-03-24 19:37:00,77.9,14.8,29.35,SE,142,3.5,3.8,9,-99.99,,,0.00,0,rob ver 1B,2013-03-25 02:37:00,
2013-03-24 19:38:00,77.8,14.8,29.35,SE,137,3.9,4.3,9,-99.99,,,0.00,0,rob ver 1B,2013-03-25 02:38:00,
2013-03-24 19:39:00,77.6,14.8,29.35,SE,132,3.8,4.0,9,-99.99,,,0.00,0,rob ver 1B,2013-03-25 02:39:00,
2013-03-24 19:40:00,74.6,11.9,29.35,NW,308,5.1,5.7,8,-99.99,,,0.00,0,rob ver 1A,2013-03-25 02:40:00,
2013-03-24 19:41:00,77.4,15.0,29.32,SE,126,3.4,4.2,9,-99.99,,,0.00,0,rob ver 1B,2013-03-25 02:41:00,
2013-03-24 19:42:00,77.3,14.9,29.35,SE,124,3.2,3.7,9,-99.99,,,0.00,0,rob ver 1B,2013-03-25 02:42:00,
2013-03-24 19:43:00,77.2,14.9,29.35,SE,124,3.2,3.6,9,-99.99,,,0.00,0,rob ver 1B,2013-03-25 02:43:00,
2013-03-24 19:44:00,77.2,14.9,29.35,ESE,116,3.4,3.9,9,-99.99,,,0.00,0,rob ver 1B,2013-03-25 02:44:00,
2013-03-24 19:45:00,74.6,11.8,29.35,WNW,303,4.9,5.6,8,-99.99,,,0.00,0,rob ver 1A,2013-03-25 02:45:00,
2013-03-24 19:46:00,77.1,14.7,29.35,ESE,120,3.2,3.8,9,-99.99,,,0.00,0,rob ver 1B,2013-03-25 02:46:00,
2013-03-24 19:47:00,77.1,14.9,29.35,SE,126,3.1,3.6,9,-99.99,,,0.00,0,rob ver 1B,2013-03-25 02:47:00,
2013-03-24 19:48:00,77.2,14.9,29.35,SE,127,3.1,3.4,9,-99.99,,,0.00,0,rob ver 1B,2013-03-25 02:48:00,
2013-03-24 19:49:00,77.3,15.2,29.35,SE,130,3.3,4.0,9,-99.99,,,0.00,0,rob ver 1B,2013-03-25 02:49:00,
2013-03-24 19:50:00,74.4,11.8,29.35,NW,304,5.5,6.4,8,-99.99,,,0.00,0,rob ver 1A,2013-03-25 02:50:00,
2013-03-24 19:51:00,77.4,15.4,29.35,SE,127,2.8,3.2,9,-99.99,,,0.00,0,rob ver 1B,2013-03-25 02:51:00,
2013-03-24 19:52:00,77.6,15.4,29.35,SE,130,2.8,3.2,9,-99.99,,,0.00,0,rob ver 1B,2013-03-25 02:52:00,
2013-03-24 19:53:00,77.7,15.3,29.35,SE,128,2.6,2.9,9,-99.99,,,0.00,0,rob ver 1B,2013-03-25 02:53:00,
2013-03-24 19:54:00,77.6,15.2,29.35,ESE,122,2.4,2.9,9,-99.99,,,0.00,0,rob ver 1B,2013-03-25 02:54:00,
2013-03-24 19:55:00,73.8,11.6,29.35,NW,310,4.2,5.0,9,-99.99,,,0.00,0,rob ver 1A,2013-03-25 02:55:00,
2013-03-24 19:56:00,77.6,15.5,29.35,ESE,122,2.9,3.2,9,-99.99,,,0.00,0,rob ver 1B,2013-03-25 02:56:00,
2013-03-24 19:57:00,77.6,15.4,29.35,ESE,111,2.7,3.1,9,-99.99,,,0.00,0,rob ver 1B,2013-03-25 02:57:00,
2013-03-24 19:58:00,77.5,15.3,29.35,ESE,114,2.7,3.6,9,-99.99,,,0.00,0,rob ver 1B,2013-03-25 02:58:00,
2013-03-24 19:59:00,77.5,15.4,29.35,ESE,112,2.8,3.5,9,-99.99,,,0.00,0,rob ver 1B,2013-03-25 02:59:00,
2013-03-24 20:00:00,73.4,11.6,29.35,NW,309,3.8,4.5,9,-99.99,,,0.00,0,rob ver 1A,2013-03-25 03:00:00,
2013-03-24 20:01:00,77.6,15.5,29.35,ESE,115,3.0,3.4,9,-99.99,,,0.00,0,rob ver 1B,2013-03-25 03:01:00,
2013-03-24 20:02:00,77.7,15.6,29.35,ESE,116,3.2,3.8,9,-99.99,,,0.00,0,rob ver 1B,2013-03-25 03:02:00,
2013-03-24 20:03:00,77.8,15.7,29.35,ESE,113,2.9,3.3,9,-99.99,,,0.00,0,rob ver 1B,2013-03-25 03:03:00,
2013-03-24 20:04:00,77.8,15.5,29.35,ESE,113,3.2,3.6,9,-99.99,,,0.00,0,rob ver 1B,2013-03-25 03:04:00,
2013-03-24 20:05:00,73.0,11.5,29.35,WNW,301,3.1,3.4,9,-99.99,,,0.00,0,rob ver 1A,2013-03-25 03:05:00,
2013-03-24 20:06:00,77.5,15.6,29.35,ESE,108,3.5,4.1,9,-99.99,,,0.00,0,rob ver 1B,2013-03-25 03:06:00,
2013-03-24 20:07:00,77.2,15.5,29.35,ESE,113,4.0,4.4,9,-99.99,,,0.00,0,rob ver 1B,2013-03-25 03:07:00,
2013-03-24 20:08:00,77.3,15.8,29.35,ESE,114,4.0,4.4,9,-99.99,,,0.00,0,rob ver 1B,2013-03-25 03:08:00,
2013-03-24 20:09:00,77.5,15.8,29.35,ESE,120,4.0,4.2,9,-99.99,,,0.00,0,rob ver 1B,2013-03-25 03:09:00,
2013-03-24 20:10:00,72.6,11.4,29.38,WNW,291,3.3,3.6,9,-99.99,,,0.00,0,rob ver 1A,2013-03-25 03:10:00,
2013-03-24 20:11:00,77.8,15.9,29.35,ESE,121,3.8,4.2,9,-99.99,,,0.00,0,rob ver 1B,2013-03-25 03:11:00,
2013-03-24 20:12:00,78.0,15.9,29.35,ESE,122,4.0,4.3,9,-99.99,,,0.00,0,rob ver 1B,2013-03-25 03:12:00,
2013-03-24 20:13:00,78.1,16.0,29.35,ESE,123,4.1,4.7,9,-99.99,,,0.00,0,rob ver 1B,2013-03-25 03:13:00,
2013-03-24 20:14:00,78.3,16.0,29.35,ESE,121,4.1,5.5,9,-99.99,,,0.00,0,rob ver 1B,2013-03-25 03:14:00,
2013-03-24 20:15:00,71.4,11.2,29.38,West,267,1.9,2.1,9,-99.99,,,0.00,0,rob ver 1A,2013-03-25 03:15:00,
2013-03-24 20:16:00,78.3,15.9,29.35,SE,128,3.8,4.4,9,-99.99,,,0.00,0,rob ver 1B,2013-03-25 03:16:00,
2013-03-24 20:17:00,78.2,16.0,29.35,SE,130,3.4,3.8,9,-99.99,,,0.00,0,rob ver 1B,2013-03-25 03:17:00,
2013-03-24 20:18:00,78.3,16.0,29.35,SE,133,3.3,3.9,9,-99.99,,,0.00,0,rob ver 1B,2013-03-25 03:18:00,
2013-03-24 20:19:00,78.3,16.0,29.35,SE,142,3.0,3.4,9,-99.99,,,0.00,0,rob ver 1B,2013-03-25 03:19:00,
2013-03-24 20:20:00,70.7,11.2,29.38,WSW,256,2.1,2.3,9,-99.99,,,0.00,0,rob ver 1A,2013-03-25 03:20:00,
2013-03-24 20:21:00,78.3,15.9,29.35,SSE,157,2.6,3.2,9,-99.99,,,0.00,0,rob ver 1B,2013-03-25 03:21:00,
2013-03-24 20:22:00,78.3,15.9,29.35,SSE,159,2.9,3.0,9,-99.99,,,0.00,0,rob ver 1B,2013-03-25 03:22:00,
2013-03-24 20:23:00,78.3,16.0,29.35,SSE,152,2.9,3.1,9,-99.99,,,0.00,0,rob ver 1B,2013-03-25 03:23:00,
2013-03-24 20:24:00,78.6,16.1,29.35,SSE,152,2.8,3.2,9,-99.99,,,0.00,0,rob ver 1B,2013-03-25 03:24:00,
2013-03-24 20:25:00,70.2,11.2,29.38,WSW,256,1.9,2.4,10,-99.99,,,0.00,0,rob ver 1A,2013-03-25 03:25:00,
2013-03-24 20:26:00,79.0,16.1,29.35,SSE,155,2.8,3.1,9,-99.99,,,0.00,0,rob ver 1B,2013-03-25 03:26:00,
2013-03-24 20:27:00,79.0,16.1,29.35,SSE,149,3.0,3.2,9,-99.99,,,0.00,0,rob ver 1B,2013-03-25 03:27:00,
2013-03-24 20:28:00,79.0,16.1,29.35,SSE,147,2.9,3.2,9,-99.99,,,0.00,0,rob ver 1B,2013-03-25 03:28:00,
2013-03-24 20:29:00,79.0,16.0,29.35,SE,140,3.3,3.7,9,-99.99,,,0.00,0,rob ver 1B,2013-03-25 03:29:00,
2013-03-24 20:30:00,78.9,16.0,29.35,SE,139,3.2,3.4,9,-99.99,,,0.00,0,rob ver 1B,2013-03-25 03:30:00,
2013-03-24 20:31:00,69.7,11.0,29.38,WSW,255,0.9,1.5,10,-99.99,,,0.00,0,rob ver 1A,2013-03-25 03:31:00,
2013-03-24 20:32:00,78.6,15.9,29.35,SE,130,3.5,3.7,9,-99.99,,,0.00,0,rob ver 1B,2013-03-25 03:32:00,
2013-03-24 20:33:00,78.3,15.9,29.35,SE,131,3.6,3.8,9,-99.99,,,0.00,0,rob ver 1B,2013-03-25 03:33:00,
2013-03-24 20:34:00,78.3,16.0,29.35,SE,130,3.6,3.7,9,-99.99,,,0.00,0,rob ver 1B,2013-03-25 03:34:00,
2013-03-24 20:35:00,78.4,16.0,29.35,SE,126,3.4,3.6,9,-99.99,,,0.00,0,rob ver 1B,2013-03-25 03:35:00,
2013-03-24 20:36:00,69.3,11.0,29.38,West,261,1.0,1.6,10,-99.99,,,0.00,0,rob ver 1A,2013-03-25 03:36:00,
2013-03-24 20:37:00,78.3,15.9,29.35,SE,128,3.2,3.4,9,-99.99,,,0.00,0,rob ver 1B,2013-03-25 03:37:00,
2013-03-24 20:38:00,78.2,15.9,29.35,SE,128,3.1,3.3,9,-99.99,,,0.00,0,rob ver 1B,2013-03-25 03:38:00,
2013-03-24 20:39:00,78.1,15.9,29.35,SE,128,3.1,3.3,9,-99.99,,,0.00,0,rob ver 1B,2013-03-25 03:39:00,
2013-03-24 20:40:00,78.0,15.9,29.35,SE,126,3.0,3.3,9,-99.99,,,0.00,0,rob ver 1B,2013-03-25 03:40:00,
2013-03-24 20:41:00,69.1,10.9,29.38,West,276,0.4,0.8,10,-99.99,,,0.00,0,rob ver 1A,2013-03-25 03:41:00,
2013-03-24 20:42:00,78.0,15.9,29.35,SE,129,2.9,3.0,9,-99.99,,,0.00,0,rob ver 1B,2013-03-25 03:42:00,
2013-03-24 20:43:00,78.0,16.0,29.35,SE,130,2.9,3.0,9,-99.99,,,0.00,0,rob ver 1B,2013-03-25 03:43:00,
2013-03-24 20:44:00,78.2,16.0,29.35,SE,129,3.0,3.1,9,-99.99,,,0.00,0,rob ver 1B,2013-03-25 03:44:00,
2013-03-24 20:45:00,78.2,16.0,29.35,SE,130,3.0,3.1,9,-99.99,,,0.00,0,rob ver 1B,2013-03-25 03:45:00,
2013-03-24 20:46:00,68.9,10.8,29.38,West,277,1.0,1.3,10,-99.99,,,0.00,0,rob ver 1A,2013-03-25 03:46:00,
2013-03-24 20:47:00,78.2,16.0,29.35,SE,135,3.2,3.3,9,-99.99,,,0.00,0,rob ver 1B,2013-03-25 03:47:00,
2013-03-24 20:48:00,78.0,15.9,29.35,SE,131,3.3,3.5,9,-99.99,,,0.00,0,rob ver 1B,2013-03-25 03:48:00,
2013-03-24 20:49:00,77.8,15.9,29.35,SE,133,3.3,3.5,9,-99.99,,,0.00,0,rob ver 1B,2013-03-25 03:49:00,
2013-03-24 20:50:00,77.8,16.0,29.35,SE,135,3.3,3.4,9,-99.99,,,0.00,0,rob ver 1B,2013-03-25 03:50:00,
2013-03-24 20:51:00,70.2,10.7,29.38,West,273,1.9,2.3,9,-99.99,,,0.00,0,rob ver 1A,2013-03-25 03:51:00,
2013-03-24 20:52:00,77.8,16.0,29.35,SE,142,3.2,3.4,9,-99.99,,,0.00,0,rob ver 1B,2013-03-25 03:52:00,
2013-03-24 20:53:00,77.8,16.0,29.35,SE,143,3.2,3.4,9,-99.99,,,0.00,0,rob ver 1B,2013-03-25 03:53:00,
2013-03-24 20:54:00,77.8,16.0,29.35,SSE,148,3.0,3.2,9,-99.99,,,0.00,0,rob ver 1B,2013-03-25 03:54:00,
2013-03-24 20:55:00,77.8,16.0,29.35,SSE,152,2.9,3.0,9,-99.99,,,0.00,0,rob ver 1B,2013-03-25 03:55:00,
2013-03-24 20:56:00,71.4,10.7,29.38,WSW,253,1.9,2.6,9,-99.99,,,0.00,0,rob ver 1A,2013-03-25 03:56:00,
2013-03-24 20:57:00,77.9,16.0,29.35,SSE,152,3.1,3.2,9,-99.99,,,0.00,0,rob ver 1B,2013-03-25 03:57:00,
2013-03-24 20:58:00,78.0,16.0,29.35,SSE,151,2.9,3.1,9,-99.99,,,0.00,0,rob ver 1B,2013-03-25 03:58:00,
2013-03-24 20:59:00,77.9,15.9,29.35,SSE,152,2.7,2.9,9,-99.99,,,0.00,0,rob ver 1B,2013-03-25 03:59:00,
2013-03-24 21:00:00,70.8,10.7,29.38,WSW,255,2.2,2.5,9,-99.99,,,0.00,0,rob ver 1A,2013-03-25 04:00:00,
2013-03-24 21:01:00,70.9,10.8,29.38,West,268,2.6,2.8,9,-99.99,,,0.00,0,rob ver 1A,2013-03-25 04:01:00,
2013-03-24 21:02:00,77.7,15.9,29.35,SE,134,2.4,2.6,9,-99.99,,,0.00,0,rob ver 1B,2013-03-25 04:02:00,
2013-03-24 21:03:00,77.6,15.9,29.35,SE,126,2.3,2.5,9,-99.99,,,0.00,0,rob ver 1B,2013-03-25 04:03:00,
2013-03-24 21:04:00,77.5,15.9,29.35,ESE,110,2.5,2.7,9,-99.99,,,0.00,0,rob ver 1B,2013-03-25 04:04:00,
2013-03-24 21:05:00,77.3,15.8,29.35,ESE,110,2.3,2.5,9,-99.99,,,0.00,0,rob ver 1B,2013-03-25 04:05:00,
2013-03-24 21:06:00,70.5,10.9,29.38,WSW,246,2.9,3.3,9,-99.99,,,0.00,0,rob ver 1A,2013-03-25 04:06:00,
2013-03-24 21:07:00,77.2,15.8,29.35,East,90,2.9,3.6,9,-99.99,,,0.00,0,rob ver 1B,2013-03-25 04:07:00,
2013-03-24 21:08:00,77.0,15.6,29.35,East,84,2.4,3.0,9,-99.99,,,0.00,0,rob ver 1B,2013-03-25 04:08:00,
2013-03-24 21:09:00,76.7,15.6,29.35,East,93,2.6,3.2,9,-99.99,,,0.00,0,rob ver 1B,2013-03-25 04:09:00,
2013-03-24 21:10:00,76.5,15.4,29.35,East,92,2.5,2.7,9,-99.99,,,0.00,0,rob ver 1B,2013-03-25 04:10:00,
2013-03-24 21:11:00,70.6,10.9,29.38,WSW,257,2.3,2.5,9,-99.99,,,0.00,0,rob ver 1A,2013-03-25 04:11:00,
2013-03-24 21:12:00,75.6,14.9,29.35,NE,38,4.1,5.3,9,-99.99,,,0.00,0,rob ver 1B,2013-03-25 04:12:00,
2013-03-24 21:13:00,75.0,14.7,29.35,NE,38,4.5,6.2,10,-99.99,,,0.00,0,rob ver 1B,2013-03-25 04:13:00,
2013-03-24 21:14:00,74.6,14.7,29.35,NE,47,3.6,4.6,10,-99.99,,,0.00,0,rob ver 1B,2013-03-25 04:14:00,
2013-03-24 21:15:00,74.5,14.7,29.35,NE,39,2.9,3.7,10,-99.99,,,0.00,0,rob ver 1B,2013-03-25 04:15:00,
2013-03-24 21:16:00,74.4,14.7,29.35,NNE,32,2.3,2.8,10,-99.99,,,0.00,0,rob ver 1B,2013-03-25 04:16:00,
2013-03-24 21:17:00,70.1,10.8,29.38,WSW,249,2.5,2.9,9,-99.99,,,0.00,0,rob ver 1A,2013-03-25 04:17:00,
2013-03-24 21:18:00,74.4,14.6,29.35,NNE,28,1.5,2.1,10,-99.99,,,0.00,0,rob ver 1B,2013-03-25 04:18:00,
2013-03-24 21:19:00,74.3,14.5,29.35,NNE,30,1.8,2.8,10,-99.99,,,0.00,0,rob ver 1B,2013-03-25 04:19:00,
2013-03-24 21:20:00,74.2,14.4,29.35,NE,39,2.6,3.4,10,-99.99,,,0.00,0,rob ver 1B,2013-03-25 04:20:00,
2013-03-24 21:21:00,74.0,14.3,29.35,NE,41,3.3,3.8,10,-99.99,,,0.00,0,rob ver 1B,2013-03-25 04:21:00,
2013-03-24 21:22:00,69.6,10.7,29.38,SSW,208,1.5,1.9,10,-99.99,,,0.00,0,rob ver 1A,2013-03-25 04:22:00,
2013-03-24 21:23:00,73.9,14.2,29.35,NE,42,3.7,4.0,10,-99.99,,,0.00,0,rob ver 1B,2013-03-25 04:23:00,
2013-03-24 21:24:00,74.0,14.2,29.35,NE,42,3.4,3.6,10,-99.99,,,0.00,0,rob ver 1B,2013-03-25 04:24:00,
2013-03-24 21:25:00,74.2,14.2,29.38,NE,43,3.2,3.4,9,-99.99,,,0.00,0,rob ver 1B,2013-03-25 04:25:00,
2013-03-24 21:26:00,74.3,14.2,29.35,NE,41,3.1,3.4,9,-99.99,,,0.00,0,rob ver 1B,2013-03-25 04:26:00,
2013-03-24 21:27:00,68.4,10.3,29.38,SW,222,2.1,2.4,10,-99.99,,,0.00,0,rob ver 1A,2013-03-25 04:27:00,
2013-03-24 21:28:00,74.2,14.1,29.35,NE,42,3.4,3.8,10,-99.99,,,0.00,0,rob ver 1B,2013-03-25 04:28:00,
2013-03-24 21:29:00,74.0,14.0,29.35,NE,44,3.8,4.2,10,-99.99,,,0.00,0,rob ver 1B,2013-03-25 04:29:00,
2013-03-24 21:30:00,73.7,13.9,29.35,NE,40,4.3,4.5,10,-99.99,,,0.00,0,rob ver 1B,2013-03-25 04:30:00,
2013-03-24 21:31:00,73.6,13.9,29.38,NE,40,3.8,4.2,10,-99.99,,,0.00,0,rob ver 1B,2013-03-25 04:31:00,
2013-03-24 21:32:00,68.3,10.6,29.38,WSW,247,1.9,2.1,10,-99.99,,,0.00,0,rob ver 1A,2013-03-25 04:32:00,
2013-03-24 21:33:00,73.2,13.7,29.35,NE,45,4.1,4.5,10,-99.99,,,0.00,0,rob ver 1B,2013-03-25 04:33:00,
2013-03-24 21:34:00,72.9,13.6,29.35,NE,43,4.4,5.1,10,-99.99,,,0.00,0,rob ver 1B,2013-03-25 04:34:00,
2013-03-24 21:35:00,72.8,13.6,29.35,NE,42,4.7,5.3,10,-99.99,,,0.00,0,rob ver 1B,2013-03-25 04:35:00,
2013-03-24 21:36:00,72.7,13.5,29.38,NE,41,4.7,5.2,10,-99.99,,,0.00,0,rob ver 1B,2013-03-25 04:36:00,
2013-03-24 21:37:00,68.4,10.8,29.38,WSW,255,2.0,2.1,10,-99.99,,,0.00,0,rob ver 1A,2013-03-25 04:37:00,
2013-03-24 21:38:00,72.3,13.2,29.38,NE,40,5.0,5.6,10,-99.99,,,0.00,0,rob ver 1B,2013-03-25 04:38:00,
2013-03-24 21:39:00,72.2,13.2,29.38,NE,39,4.6,5.0,10,-99.99,,,0.00,0,rob ver 1B,2013-03-25 04:39:00,
2013-03-24 21:40:00,72.1,13.2,29.38,NE,37,4.3,4.7,10,-99.99,,,0.00,0,rob ver 1B,2013-03-25 04:40:00,
2013-03-24 21:41:00,72.0,13.2,29.38,NE,38,4.1,4.9,10,-99.99,,,0.00,0,rob ver 1B,2013-03-25 04:41:00,
2013-03-24 21:42:00,68.5,10.8,29.38,WSW,256,2.6,2.8,10,-99.99,,,0.00,0,rob ver 1A,2013-03-25 04:42:00,
2013-03-24 21:43:00,71.9,13.2,29.38,NNE,33,4.3,4.8,10,-99.99,,,0.00,0,rob ver 1B,2013-03-25 04:43:00,
2013-03-24 21:44:00,71.9,13.2,29.38,NNE,30,4.3,4.8,10,-99.99,,,0.00,0,rob ver 1B,2013-03-25 04:44:00,
2013-03-24 21:45:00,71.9,13.2,29.35,NE,35,4.0,4.6,10,-99.99,,,0.00,0,rob ver 1B,2013-03-25 04:45:00,
2013-03-24 21:46:00,71.8,13.1,29.35,NE,34,4.0,4.5,10,-99.99,,,0.00,0,rob ver 1B,2013-03-25 04:46:00,
2013-03-24 21:47:00,68.1,10.7,29.38,West,274,2.5,2.7,10,-99.99,,,0.00,0,rob ver 1A,2013-03-25 04:47:00,
2013-03-24 21:48:00,71.7,13.2,29.38,NE,34,4.0,4.6,10,-99.99,,,0.00,0,rob ver 1B,2013-03-25 04:48:00,
2013-03-24 21:49:00,71.7,13.3,29.38,NNE,28,3.8,4.3,10,-99.99,,,0.00,0,rob ver 1B,2013-03-25 04:49:00,
2013-03-24 21:50:00,71.7,13.3,29.38,NNE,24,3.5,4.0,10,-99.99,,,0.00,0,rob ver 1B,2013-03-25 04:50:00,
2013-03-24 21:51:00,71.7,13.3,29.35,NNE,29,3.6,4.2,10,-99.99,,,0.00,0,rob ver 1B,2013-03-25 04:51:00,
2013-03-24 21:52:00,67.8,10.6,29.38,WNW,293,2.1,2.3,10,-99.99,,,0.00,0,rob ver 1A,2013-03-25 04:52:00,
2013-03-24 21:53:00,71.8,13.3,29.38,NNE,29,3.7,4.5,10,-99.99,,,0.00,0,rob ver 1B,2013-03-25 04:53:00,
2013-03-24 21:54:00,71.9,13.4,29.38,NNE,32,4.1,4.5,10,-99.99,,,0.00,0,rob ver 1B,2013-03-25 04:54:00,
2013-03-24 21:55:00,72.1,13.4,29.38,NNE,33,4.5,4.8,10,-99.99,,,0.00,0,rob ver 1B,2013-03-25 04:55:00,
2013-03-24 21:56:00,72.2,13.4,29.38,NE,34,4.8,5.2,10,-99.99,,,0.00,0,rob ver 1B,2013-03-25 04:56:00,
2013-03-24 21:57:00,67.6,10.7,29.38,WNW,290,2.5,2.8,10,-99.99,,,0.00,0,rob ver 1A,2013-03-25 04:57:00,
2013-03-24 21:58:00,72.4,13.5,29.38,NE,34,4.9,5.2,10,-99.99,,,0.00,0,rob ver 1B,2013-03-25 04:58:00,
2013-03-24 21:59:00,72.4,13.5,29.38,NNE,29,4.7,5.0,10,-99.99,,,0.00,0,rob ver 1B,2013-03-25 04:59:00,
2013-03-24 22:00:00,72.4,13.5,29.38,NNE,27,4.3,4.5,10,-99.99,,,0.00,0,rob ver 1B,2013-03-25 05:00:00,
2013-03-24 22:01:00,72.4,13.4,29.38,NNE,25,4.1,4.4,10,-99.99,,,0.00,0,rob ver 1B,2013-03-25 05:01:00,
2013-03-24 22:02:00,67.9,10.6,29.38,NW,307,2.2,2.6,10,-99.99,,,0.00,0,rob ver 1A,2013-03-25 05:02:00,
2013-03-24 22:03:00,72.4,13.5,29.38,NNE,27,4.0,4.2,10,-99.99,,,0.00,0,rob ver 1B,2013-03-25 05:03:00,
2013-03-24 22:04:00,72.5,13.5,29.38,NNE,32,3.9,4.1,10,-99.99,,,0.00,0,rob ver 1B,2013-03-25 05:04:00,
2013-03-24 22:05:00,72.5,13.5,29.38,NE,39,4.0,4.7,10,-99.99,,,0.00,0,rob ver 1B,2013-03-25 05:05:00,
2013-03-24 22:06:00,72.4,13.6,29.38,NE,34,4.3,4.7,10,-99.99,,,0.00,0,rob ver 1B,2013-03-25 05:06:00,
2013-03-24 22:07:00,67.8,10.6,29.38,WNW,286,3.2,3.5,10,-99.99,,,0.00,0,rob ver 1A,2013-03-25 05:07:00,
2013-03-24 22:08:00,72.4,13.5,29.38,NE,38,4.7,5.4,10,-99.99,,,0.00,0,rob ver 1B,2013-03-25 05:08:00,
2013-03-24 22:09:00,72.2,13.4,29.38,NE,34,4.4,4.7,10,-99.99,,,0.00,0,rob ver 1B,2013-03-25 05:09:00,
2013-03-24 22:10:00,72.1,13.4,29.38,NE,34,4.6,4.9,10,-99.99,,,0.00,0,rob ver 1B,2013-03-25 05:10:00,
2013-03-24 22:11:00,72.1,13.5,29.38,NE,37,4.8,5.2,10,-99.99,,,0.00,0,rob ver 1B,2013-03-25 05:11:00,
2013-03-24 22:12:00,67.8,10.5,29.38,West,277,4.3,4.6,10,-99.99,,,0.00,0,rob ver 1A,2013-03-25 05:12:00,
2013-03-24 22:13:00,71.9,13.4,29.38,NE,37,4.7,5.1,10,-99.99,,,0.00,0,rob ver 1B,2013-03-25 05:13:00,
2013-03-24 22:14:00,71.7,13.4,29.38,NE,36,5.1,5.5,10,-99.99,,,0.00,0,rob ver 1B,2013-03-25 05:14:00,
2013-03-24 22:15:00,71.6,13.4,29.38,NNE,33,4.8,5.3,10,-99.99,,,0.00,0,rob ver 1B,2013-03-25 05:15:00,
2013-03-24 22:16:00,71.5,13.4,29.38,NNE,29,5.2,5.9,10,-99.99,,,0.00,0,rob ver 1B,2013-03-25 05:16:00,
2013-03-24 22:17:00,66.9,10.3,29.38,WNW,291,4.4,4.7,10,-99.99,,,0.00,0,rob ver 1A,2013-03-25 05:17:00,
2013-03-24 22:18:00,71.6,13.4,29.38,NNE,24,5.3,5.8,10,-99.99,,,0.00,0,rob ver 1B,2013-03-25 05:18:00,
2013-03-24 22:19:00,71.7,13.4,29.38,NNE,25,5.4,6.0,10,-99.99,,,0.00,0,rob ver 1B,2013-03-25 05:19:00,
2013-03-24 22:20:00,71.8,13.4,29.38,NNE,25,5.3,6.0,10,-99.99,,,0.00,0,rob ver 1B,2013-03-25 05:20:00,
2013-03-24 22:21:00,71.9,13.5,29.38,NNE,25,5.3,5.9,10,-99.99,,,0.00,0,rob ver 1B,2013-03-25 05:21:00,
2013-03-24 22:22:00,71.9,13.5,29.38,NNE,27,5.4,5.9,10,-99.99,,,0.00,0,rob ver 1B,2013-03-25 05:22:00,
2013-03-24 22:23:00,66.8,10.2,29.38,WNW,301,3.8,4.2,10,-99.99,,,0.00,0,rob ver 1A,2013-03-25 05:23:00,
2013-03-24 22:24:00,71.8,13.5,29.38,NNE,32,4.9,5.7,10,-99.99,,,0.00,0,rob ver 1B,2013-03-25 05:24:00,
2013-03-24 22:25:00,71.7,13.5,29.35,NNE,32,5.1,5.8,10,-99.99,,,0.00,0,rob ver 1B,2013-03-25 05:25:00,
2013-03-24 22:26:00,71.6,13.5,29.38,NNE,33,5.0,5.4,10,-99.99,,,0.00,0,rob ver 1B,2013-03-25 05:26:00,
2013-03-24 22:27:00,71.5,13.5,29.38,NE,35,4.7,5.1,10,-99.99,,,0.00,0,rob ver 1B,2013-03-25 05:27:00,
2013-03-24 22:28:00,66.3,10.0,29.38,NW,305,2.9,3.1,10,-99.99,,,0.00,0,rob ver 1A,2013-03-25 05:28:00,
2013-03-24 22:29:00,71.5,13.4,29.38,NE,35,4.7,5.2,10,-99.99,,,0.00,0,rob ver 1B,2013-03-25 05:29:00,
2013-03-24 22:30:00,71.5,13.4,29.38,NE,35,5.1,5.7,10,-99.99,,,0.00,0,rob ver 1B,2013-03-25 05:30:00,
2013-03-24 22:31:00,71.5,13.4,29.35,NE,36,5.2,6.1,10,-99.99,,,0.00,0,rob ver 1B,2013-03-25 05:31:00,
2013-03-24 22:32:00,71.5,13.4,29.38,NE,39,4.5,5.1,10,-99.99,,,0.00,0,rob ver 1B,2013-03-25 05:32:00,
2013-03-24 22:33:00,66.3,9.7,29.38,NW,326,2.8,3.1,10,-99.99,,,0.00,0,rob ver 1A,2013-03-25 05:33:00,
2013-03-24 22:34:00,71.7,13.4,29.38,NE,43,4.6,5.3,10,-99.99,,,0.00,0,rob ver 1B,2013-03-25 05:34:00,
2013-03-24 22:35:00,71.8,13.4,29.38,NE,45,4.1,4.8,10,-99.99,,,0.00,0,rob ver 1B,2013-03-25 05:35:00,
2013-03-24 22:36:00,71.8,13.4,29.38,NE,45,4.1,4.5,10,-99.99,,,0.00,0,rob ver 1B,2013-03-25 05:36:00,
2013-03-24 22:37:00,71.8,13.4,29.38,ENE,58,2.9,4.1,10,-99.99,,,0.00,0,rob ver 1B,2013-03-25 05:37:00,
2013-03-24 22:38:00,65.9,9.2,29.38,NW,324,3.3,3.7,10,-99.99,,,0.00,0,rob ver 1A,2013-03-25 05:38:00,
2013-03-24 22:39:00,71.5,13.3,29.38,ESE,107,2.5,3.2,10,-99.99,,,0.00,0,rob ver 1B,2013-03-25 05:39:00,
2013-03-24 22:40:00,71.2,13.3,29.38,SE,130,3.9,5.8,10,-99.99,,,0.00,0,rob ver 1B,2013-03-25 05:40:00,
2013-03-24 22:41:00,70.6,13.0,29.38,SE,127,4.1,5.3,10,-99.99,,,0.00,0,rob ver 1B,2013-03-25 05:41:00,
2013-03-24 22:42:00,70.4,13.0,29.38,ENE,77,3.5,4.2,10,-99.99,,,0.00,0,rob ver 1B,2013-03-25 05:42:00,
2013-03-24 22:43:00,66.3,8.9,29.38,NW,326,4.9,6.0,10,-99.99,,,0.00,0,rob ver 1A,2013-03-25 05:43:00,
2013-03-24 22:44:00,70.5,13.2,29.38,East,79,3.2,4.0,10,-99.99,,,0.00,0,rob ver 1B,2013-03-25 05:44:00,
2013-03-24 22:45:00,70.3,13.1,29.38,East,96,2.5,3.2,10,-99.99,,,0.00,0,rob ver 1B,2013-03-25 05:45:00,
2013-03-24 22:46:00,70.0,13.0,29.38,ENE,65,3.1,3.8,11,-99.99,,,0.00,0,rob ver 1B,2013-03-25 05:46:00,
2013-03-24 22:47:00,69.8,13.1,29.38,ENE,60,3.4,4.5,11,-99.99,,,0.00,0,rob ver 1B,2013-03-25 05:47:00,
2013-03-24 22:48:00,67.4,8.9,29.38,NW,325,5.1,6.1,9,-99.99,,,0.00,0,rob ver 1A,2013-03-25 05:48:00,
2013-03-24 22:49:00,69.7,13.0,29.35,ENE,70,1.5,1.8,11,-99.99,,,0.00,0,rob ver 1B,2013-03-25 05:49:00,
2013-03-24 22:50:00,69.6,13.1,29.38,NE,55,1.8,2.7,11,-99.99,,,0.00,0,rob ver 1B,2013-03-25 05:50:00,
2013-03-24 22:51:00,69.5,13.0,29.38,NE,54,2.7,3.2,11,-99.99,,,0.00,0,rob ver 1B,2013-03-25 05:51:00,
2013-03-24 22:52:00,69.5,13.1,29.38,NE,55,2.6,3.3,11,-99.99,,,0.00,0,rob ver 1B,2013-03-25 05:52:00,
2013-03-24 22:53:00,67.6,8.8,29.38,NW,326,4.5,5.6,9,-99.99,,,0.00,0,rob ver 1A,2013-03-25 05:53:00,
2013-03-24 22:54:00,69.4,13.0,29.35,NE,44,3.7,4.5,11,-99.99,,,0.00,0,rob ver 1B,2013-03-25 05:54:00,
2013-03-24 22:55:00,69.4,13.0,29.38,NE,48,3.4,4.4,11,-99.99,,,0.00,0,rob ver 1B,2013-03-25 05:55:00,
2013-03-24 22:56:00,69.5,13.0,29.38,NE,47,3.0,3.8,11,-99.99,,,0.00,0,rob ver 1B,2013-03-25 05:56:00,
2013-03-24 22:57:00,69.4,13.0,29.38,NE,39,4.0,4.6,11,-99.99,,,0.00,0,rob ver 1B,2013-03-25 05:57:00,
2013-03-24 22:58:00,67.5,8.6,29.38,NNW,330,3.1,3.8,9,-99.99,,,0.00,0,rob ver 1A,2013-03-25 05:58:00,
2013-03-24 22:59:00,69.5,13.0,29.38,NE,38,4.8,5.3,11,-99.99,,,0.00,0,rob ver 1B,2013-03-25 05:59:00,
2013-03-24 23:00:00,69.6,13.0,29.38,NE,36,5.0,5.7,11,-99.99,,,0.00,0,rob ver 1B,2013-03-25 06:00:00,
2013-03-24 23:01:00,69.7,13.0,29.38,NE,37,5.2,5.6,11,-99.99,,,0.00,0,rob ver 1B,2013-03-25 06:01:00,
2013-03-24 23:02:00,69.9,13.1,29.38,NE,35,5.1,5.5,10,-99.99,,,0.00,0,rob ver 1B,2013-03-25 06:02:00,
2013-03-24 23:03:00,65.6,8.4,29.38,SSW,197,1.7,2.4,10,-99.99,,,0.00,0,rob ver 1A,2013-03-25 06:03:00,
2013-03-24 23:04:00,70.2,13.1,29.38,NE,37,4.5,4.7,10,-99.99,,,0.00,0,rob ver 1B,2013-03-25 06:04:00,
2013-03-24 23:05:00,70.2,13.2,29.38,NNE,33,4.3,4.6,10,-99.99,,,0.00,0,rob ver 1B,2013-03-25 06:05:00,
2013-03-24 23:06:00,70.3,13.2,29.38,NNE,31,3.9,4.4,10,-99.99,,,0.00,0,rob ver 1B,2013-03-25 06:06:00,
2013-03-24 23:07:00,70.2,13.2,29.38,NNE,31,4.3,4.7,11,-99.99,,,0.00,0,rob ver 1B,2013-03-25 06:07:00,
2013-03-24 23:08:00,66.2,8.3,29.38,WNW,286,1.9,2.8,10,-99.99,,,0.00,0,rob ver 1A,2013-03-25 06:08:00,
2013-03-24 23:09:00,70.4,13.3,29.38,NE,35,4.3,4.6,10,-99.99,,,0.00,0,rob ver 1B,2013-03-25 06:09:00,
2013-03-24 23:10:00,70.6,13.3,29.38,NE,34,4.5,4.8,10,-99.99,,,0.00,0,rob ver 1B,2013-03-25 06:10:00,
2013-03-24 23:11:00,70.7,13.3,29.38,NE,35,4.4,4.6,10,-99.99,,,0.00,0,rob ver 1B,2013-03-25 06:11:00,
2013-03-24 23:12:00,70.8,13.3,29.38,NE,39,4.2,4.6,10,-99.99,,,0.00,0,rob ver 1B,2013-03-25 06:12:00,
2013-03-24 23:13:00,66.7,8.6,29.38,WSW,252,2.4,2.8,10,-99.99,,,0.00,0,rob ver 1A,2013-03-25 06:13:00,
2013-03-24 23:14:00,70.8,13.2,29.38,NE,37,4.6,5.0,10,-99.99,,,0.00,0,rob ver 1B,2013-03-25 06:14:00,
2013-03-24 23:15:00,70.8,13.2,29.35,NE,39,4.5,4.9,10,-99.99,,,0.00,0,rob ver 1B,2013-03-25 06:15:00,
2013-03-24 23:16:00,70.9,13.2,29.35,NE,39,4.3,4.8,10,-99.99,,,0.00,0,rob ver 1B,2013-03-25 06:16:00,
2013-03-24 23:17:00,70.9,13.2,29.38,NE,42,3.9,4.3,10,-99.99,,,0.00,0,rob ver 1B,2013-03-25 06:17:00,
2013-03-24 23:18:00,70.8,13.1,29.35,NE,44,3.9,4.2,10,-99.99,,,0.00,0,rob ver 1B,2013-03-25 06:18:00,
2013-03-24 23:19:00,66.2,8.5,29.38,WSW,243,2.5,3.1,10,-99.99,,,0.00,0,rob ver 1A,2013-03-25 06:19:00,
2013-03-24 23:20:00,70.8,13.1,29.35,NE,46,3.5,4.3,10,-99.99,,,0.00,0,rob ver 1B,2013-03-25 06:20:00,
2013-03-24 23:21:00,70.7,13.1,29.35,NE,43,4.2,4.9,10,-99.99,,,0.00,0,rob ver 1B,2013-03-25 06:21:00,
2013-03-24 23:22:00,70.7,13.1,29.35,NE,39,4.2,5.0,10,-99.99,,,0.00,0,rob ver 1B,2013-03-25 06:22:00,
2013-03-24 23:23:00,70.7,13.1,29.35,NE,42,3.7,4.3,10,-99.99,,,0.00,0,rob ver 1B,2013-03-25 06:23:00,
2013-03-24 23:24:00,66.5,8.5,29.38,WSW,258,1.7,2.1,10,-99.99,,,0.00,0,rob ver 1A,2013-03-25 06:24:00,
2013-03-24 23:25:00,70.2,13.0,29.35,ENE,73,2.0,2.9,10,-99.99,,,0.00,0,rob ver 1B,2013-03-25 06:25:00,
2013-03-24 23:26:00,69.8,12.9,29.35,ENE,62,2.2,3.9,11,-99.99,,,0.00,0,rob ver 1B,2013-03-25 06:26:00,
2013-03-24 23:27:00,69.6,12.9,29.35,NE,53,3.2,5.0,11,-99.99,,,0.00,0,rob ver 1B,2013-03-25 06:27:00,
2013-03-24 23:28:00,69.5,12.8,29.35,NE,52,3.6,4.5,11,-99.99,,,0.00,0,rob ver 1B,2013-03-25 06:28:00,
2013-03-24 23:29:00,66.0,8.5,29.38,WSW,237,1.8,2.3,10,-99.99,,,0.00,0,rob ver 1A,2013-03-25 06:29:00,
2013-03-24 23:30:00,69.2,12.8,29.35,ENE,65,2.9,3.7,11,-99.99,,,0.00,0,rob ver 1B,2013-03-25 06:30:00,
2013-03-24 23:31:00,69.0,12.9,29.35,NE,56,3.1,4.0,11,-99.99,,,0.00,0,rob ver 1B,2013-03-25 06:31:00,
2013-03-24 23:32:00,68.9,12.8,29.35,NE,48,2.9,3.6,11,-99.99,,,0.00,0,rob ver 1B,2013-03-25 06:32:00,
2013-03-24 23:33:00,68.7,12.7,29.35,NE,47,3.4,4.0,11,-99.99,,,0.00,0,rob ver 1B,2013-03-25 06:33:00,
2013-03-24 23:34:00,65.3,8.7,29.38,SW,220,2.3,2.6,10,-99.99,,,0.00,0,rob ver 1A,2013-03-25 06:34:00,
2013-03-24 23:35:00,68.4,12.7,29.35,East,86,1.8,2.8,11,-99.99,,,0.00,0,rob ver 1B,2013-03-25 06:35:00,
2013-03-24 23:36:00,68.2,12.7,29.35,East,100,1.7,2.8,11,-99.99,,,0.00,0,rob ver 1B,2013-03-25 06:36:00,
2013-03-24 23:37:00,68.0,12.6,29.35,SE,126,2.0,2.7,11,-99.99,,,0.00,0,rob ver 1B,2013-03-25 06:37:00,
2013-03-24 23:38:00,67.7,12.6,29.35,SE,133,2.3,3.0,11,-99.99,,,0.00,0,rob ver 1B,2013-03-25 06:38:00,
2013-03-24 23:39:00,64.0,8.9,29.38,ESE,113,3.5,4.1,11,-99.99,,,0.00,0,rob ver 1A,2013-03-25 06:39:00,
2013-03-24 23:40:00,67.8,12.7,29.35,East,87,2.1,3.0,11,-99.99,,,0.00,0,rob ver 1B,2013-03-25 06:40:00,
2013-03-24 23:41:00,67.8,12.7,29.35,ENE,78,1.9,2.7,11,-99.99,,,0.00,0,rob ver 1B,2013-03-25 06:41:00,
2013-03-24 23:42:00,67.9,12.8,29.35,ESE,104,2.1,2.8,11,-99.99,,,0.00,0,rob ver 1B,2013-03-25 06:42:00,
2013-03-24 23:43:00,67.7,12.8,29.35,SSE,148,2.9,3.3,11,-99.99,,,0.00,0,rob ver 1B,2013-03-25 06:43:00,
2013-03-24 23:44:00,63.1,8.2,29.38,ESE,110,3.2,3.8,11,-99.99,,,0.00,0,rob ver 1A,2013-03-25 06:44:00,
2013-03-24 23:45:00,67.7,12.7,29.35,East,86,2.9,3.4,11,-99.99,,,0.00,0,rob ver 1B,2013-03-25 06:45:00,
2013-03-24 23:46:00,67.9,12.8,29.35,East,90,2.9,3.8,11,-99.99,,,0.00,0,rob ver 1B,2013-03-25 06:46:00,
2013-03-24 23:47:00,67.8,12.8,29.35,SSE,147,2.5,3.1,11,-99.99,,,0.00,0,rob ver 1B,2013-03-25 06:47:00,
2013-03-24 23:48:00,67.6,12.8,29.35,ESE,123,1.9,2.3,11,-99.99,,,0.00,0,rob ver 1B,2013-03-25 06:48:00,
2013-03-24 23:49:00,61.9,7.4,29.38,ENE,67,4.1,4.9,11,-99.99,,,0.00,0,rob ver 1A,2013-03-25 06:49:00,
2013-03-24 23:50:00,67.7,12.8,29.35,East,91,2.0,2.5,11,-99.99,,,0.00,0,rob ver 1B,2013-03-25 06:50:00,
2013-03-24 23:51:00,67.6,12.8,29.35,SE,146,1.7,2.3,11,-99.99,,,0.00,0,rob ver 1B,2013-03-25 06:51:00,
2013-03-24 23:52:00,67.2,12.7,29.35,SE,134,1.8,2.2,11,-99.99,,,0.00,0,rob ver 1B,2013-03-25 06:52:00,
2013-03-24 23:53:00,67.0,12.8,29.35,ESE,122,2.0,2.3,12,-99.99,,,0.00,0,rob ver 1B,2013-03-25 06:53:00,
2013-03-24 23:54:00,61.3,7.2,29.38,ENE,62,3.6,4.2,11,-99.99,,,0.00,0,rob ver 1A,2013-03-25 06:54:00,
2013-03-24 23:55:00,66.9,12.8,29.35,ESE,118,2.0,2.6,12,-99.99,,,0.00,0,rob ver 1B,2013-03-25 06:55:00,
2013-03-24 23:56:00,66.9,12.8,29.35,ESE,110,1.9,2.2,12,-99.99,,,0.00,0,rob ver 1B,2013-03-25 06:56:00,
2013-03-24 23:57:00,66.9,12.9,29.35,SE,133,1.8,2.0,12,-99.99,,,0.00,0,rob ver 1B,2013-03-25 06:57:00,
2013-03-24 23:58:00,66.8,12.9,29.35,ESE,122,1.7,1.8,12,-99.99,,,0.00,0,rob ver 1B,2013-03-25 06:58:00,
2013-03-24 23:59:00,61.0,7.1,29.38,ENE,60,4.4,5.3,11,-99.99,,,0.00,0,rob ver 1A,2013-03-25 06:59:00,